<?xml version="1.0" encoding="UTF-8" standalone="no" ?>
<gpx xmlns="http://www.topografix.com/GPX/1/1" xmlns:xsi="http://www.w3.org/2001/XMLSchema-instance" xsi:schemaLocation="http://www.topografix.com/GPX/1/1 http://www.topografix.com/GPX/1/1/gpx.xsd" version="1.1" creator="VisuGPX - https://www.visugpx.com">
  <metadata>
    <name>Pte Longue</name>
    <desc><![CDATA[En ski de randonnée, au départ du Reposoir]]></desc>
  </metadata>
  <trk>
    <name><![CDATA[20180127110606-KcTaD]]></name>
    <trkseg>
      <trkpt lat="46.00175" lon="6.54093">
        <ele>1042</ele>
        <time>2018-01-15T11:44:19Z</time>
      </trkpt>
      <trkpt lat="46.00174" lon="6.54092">
        <ele>1042</ele>
        <time>2018-01-15T11:44:20Z</time>
      </trkpt>
      <trkpt lat="46.00174" lon="6.54093">
        <ele>1042</ele>
        <time>2018-01-15T11:44:21Z</time>
      </trkpt>
      <trkpt lat="46.00171" lon="6.54092">
        <ele>1042</ele>
        <time>2018-01-15T11:44:24Z</time>
      </trkpt>
      <trkpt lat="46.0017" lon="6.54091">
        <ele>1042</ele>
        <time>2018-01-15T11:44:25Z</time>
      </trkpt>
      <trkpt lat="46.00163" lon="6.54088">
        <ele>1044</ele>
        <time>2018-01-15T11:44:30Z</time>
      </trkpt>
      <trkpt lat="46.00157" lon="6.54088">
        <ele>1045</ele>
        <time>2018-01-15T11:44:33Z</time>
      </trkpt>
      <trkpt lat="46.00152" lon="6.54086">
        <ele>1046</ele>
        <time>2018-01-15T11:44:37Z</time>
      </trkpt>
      <trkpt lat="46.00145" lon="6.54086">
        <ele>1047</ele>
        <time>2018-01-15T11:44:42Z</time>
      </trkpt>
      <trkpt lat="46.0013" lon="6.54083">
        <ele>1045</ele>
        <time>2018-01-15T11:44:53Z</time>
      </trkpt>
      <trkpt lat="46.00127" lon="6.54081">
        <ele>1045</ele>
        <time>2018-01-15T11:44:57Z</time>
      </trkpt>
      <trkpt lat="46.00121" lon="6.54081">
        <ele>1045</ele>
        <time>2018-01-15T11:45:01Z</time>
      </trkpt>
      <trkpt lat="46.00118" lon="6.54078">
        <ele>1045</ele>
        <time>2018-01-15T11:45:07Z</time>
      </trkpt>
      <trkpt lat="46.00114" lon="6.54079">
        <ele>1046</ele>
        <time>2018-01-15T11:45:10Z</time>
      </trkpt>
      <trkpt lat="46.00111" lon="6.54079">
        <ele>1046</ele>
        <time>2018-01-15T11:45:14Z</time>
      </trkpt>
      <trkpt lat="46.00103" lon="6.54082">
        <ele>1046</ele>
        <time>2018-01-15T11:45:19Z</time>
      </trkpt>
      <trkpt lat="46.00101" lon="6.54083">
        <ele>1046</ele>
        <time>2018-01-15T11:45:20Z</time>
      </trkpt>
      <trkpt lat="46.001" lon="6.54083">
        <ele>1046</ele>
        <time>2018-01-15T11:45:21Z</time>
      </trkpt>
      <trkpt lat="46.00098" lon="6.54085">
        <ele>1049</ele>
        <time>2018-01-15T11:45:31Z</time>
      </trkpt>
      <trkpt lat="46.00097" lon="6.54086">
        <ele>1049</ele>
        <time>2018-01-15T11:45:35Z</time>
      </trkpt>
      <trkpt lat="46.00097" lon="6.54087">
        <ele>1049</ele>
        <time>2018-01-15T11:45:37Z</time>
      </trkpt>
      <trkpt lat="46.00096" lon="6.54087">
        <ele>1049</ele>
        <time>2018-01-15T11:45:39Z</time>
      </trkpt>
      <trkpt lat="46.00095" lon="6.54087">
        <ele>1049</ele>
        <time>2018-01-15T11:45:41Z</time>
      </trkpt>
      <trkpt lat="46.00086" lon="6.54086">
        <ele>1048</ele>
        <time>2018-01-15T11:45:52Z</time>
      </trkpt>
      <trkpt lat="46.00082" lon="6.54086">
        <ele>1049</ele>
        <time>2018-01-15T11:45:55Z</time>
      </trkpt>
      <trkpt lat="46.00078" lon="6.54086">
        <ele>1050</ele>
        <time>2018-01-15T11:45:58Z</time>
      </trkpt>
      <trkpt lat="46.00071" lon="6.54087">
        <ele>1052</ele>
        <time>2018-01-15T11:46:04Z</time>
      </trkpt>
      <trkpt lat="46.00044" lon="6.54102">
        <ele>1057</ele>
        <time>2018-01-15T11:46:28Z</time>
      </trkpt>
      <trkpt lat="46.00011" lon="6.54113">
        <ele>1058</ele>
        <time>2018-01-15T11:46:54Z</time>
      </trkpt>
      <trkpt lat="46.00007" lon="6.54116">
        <ele>1059</ele>
        <time>2018-01-15T11:47:00Z</time>
      </trkpt>
      <trkpt lat="46.00005" lon="6.54118">
        <ele>1059</ele>
        <time>2018-01-15T11:47:04Z</time>
      </trkpt>
      <trkpt lat="46.00006" lon="6.54118">
        <ele>1059</ele>
        <time>2018-01-15T11:47:11Z</time>
      </trkpt>
      <trkpt lat="46.00007" lon="6.54119">
        <ele>1059</ele>
        <time>2018-01-15T11:47:13Z</time>
      </trkpt>
      <trkpt lat="46.00005" lon="6.54121">
        <ele>1059</ele>
        <time>2018-01-15T11:47:15Z</time>
      </trkpt>
      <trkpt lat="46.00003" lon="6.54122">
        <ele>1059</ele>
        <time>2018-01-15T11:47:16Z</time>
      </trkpt>
      <trkpt lat="46.00002" lon="6.54122">
        <ele>1059</ele>
        <time>2018-01-15T11:47:17Z</time>
      </trkpt>
      <trkpt lat="46" lon="6.54123">
        <ele>1060</ele>
        <time>2018-01-15T11:47:18Z</time>
      </trkpt>
      <trkpt lat="45.99999" lon="6.54123">
        <ele>1063</ele>
        <time>2018-01-15T11:47:19Z</time>
      </trkpt>
      <trkpt lat="45.99989" lon="6.5413">
        <ele>1064</ele>
        <time>2018-01-15T11:47:25Z</time>
      </trkpt>
      <trkpt lat="45.99988" lon="6.54131">
        <ele>1064</ele>
        <time>2018-01-15T11:47:26Z</time>
      </trkpt>
      <trkpt lat="45.99984" lon="6.54134">
        <ele>1064</ele>
        <time>2018-01-15T11:47:29Z</time>
      </trkpt>
      <trkpt lat="45.99982" lon="6.54135">
        <ele>1065</ele>
        <time>2018-01-15T11:47:30Z</time>
      </trkpt>
      <trkpt lat="45.9998" lon="6.54135">
        <ele>1065</ele>
        <time>2018-01-15T11:47:31Z</time>
      </trkpt>
      <trkpt lat="45.99959" lon="6.54146">
        <ele>1066</ele>
        <time>2018-01-15T11:47:46Z</time>
      </trkpt>
      <trkpt lat="45.99958" lon="6.54147">
        <ele>1066</ele>
        <time>2018-01-15T11:47:47Z</time>
      </trkpt>
      <trkpt lat="45.99938" lon="6.54151">
        <ele>1067</ele>
        <time>2018-01-15T11:48:01Z</time>
      </trkpt>
      <trkpt lat="45.99936" lon="6.54152">
        <ele>1067</ele>
        <time>2018-01-15T11:48:03Z</time>
      </trkpt>
      <trkpt lat="45.99935" lon="6.54152">
        <ele>1067</ele>
        <time>2018-01-15T11:48:04Z</time>
      </trkpt>
      <trkpt lat="45.99933" lon="6.54153">
        <ele>1067</ele>
        <time>2018-01-15T11:48:05Z</time>
      </trkpt>
      <trkpt lat="45.99896" lon="6.54145">
        <ele>1072</ele>
        <time>2018-01-15T11:48:32Z</time>
      </trkpt>
      <trkpt lat="45.99895" lon="6.54145">
        <ele>1073</ele>
        <time>2018-01-15T11:48:33Z</time>
      </trkpt>
      <trkpt lat="45.99893" lon="6.54145">
        <ele>1073</ele>
        <time>2018-01-15T11:48:34Z</time>
      </trkpt>
      <trkpt lat="45.99892" lon="6.54144">
        <ele>1073</ele>
        <time>2018-01-15T11:48:35Z</time>
      </trkpt>
      <trkpt lat="45.99891" lon="6.54145">
        <ele>1073</ele>
        <time>2018-01-15T11:48:36Z</time>
      </trkpt>
      <trkpt lat="45.99889" lon="6.54145">
        <ele>1073</ele>
        <time>2018-01-15T11:48:37Z</time>
      </trkpt>
      <trkpt lat="45.99867" lon="6.54139">
        <ele>1075</ele>
        <time>2018-01-15T11:48:50Z</time>
      </trkpt>
      <trkpt lat="45.99855" lon="6.54133">
        <ele>1075</ele>
        <time>2018-01-15T11:49:02Z</time>
      </trkpt>
      <trkpt lat="45.99839" lon="6.54123">
        <ele>1075</ele>
        <time>2018-01-15T11:49:13Z</time>
      </trkpt>
      <trkpt lat="45.99837" lon="6.54123">
        <ele>1075</ele>
        <time>2018-01-15T11:49:14Z</time>
      </trkpt>
      <trkpt lat="45.99834" lon="6.54123">
        <ele>1075</ele>
        <time>2018-01-15T11:49:15Z</time>
      </trkpt>
      <trkpt lat="45.99832" lon="6.54123">
        <ele>1082</ele>
        <time>2018-01-15T11:49:16Z</time>
      </trkpt>
      <trkpt lat="45.99831" lon="6.54123">
        <ele>1082</ele>
        <time>2018-01-15T11:49:17Z</time>
      </trkpt>
      <trkpt lat="45.99827" lon="6.54123">
        <ele>1082</ele>
        <time>2018-01-15T11:49:20Z</time>
      </trkpt>
      <trkpt lat="45.99826" lon="6.54123">
        <ele>1082</ele>
        <time>2018-01-15T11:49:21Z</time>
      </trkpt>
      <trkpt lat="45.99823" lon="6.5412">
        <ele>1082</ele>
        <time>2018-01-15T11:49:35Z</time>
      </trkpt>
      <trkpt lat="45.99822" lon="6.54119">
        <ele>1081</ele>
        <time>2018-01-15T11:49:37Z</time>
      </trkpt>
      <trkpt lat="45.9982" lon="6.54118">
        <ele>1081</ele>
        <time>2018-01-15T11:49:41Z</time>
      </trkpt>
      <trkpt lat="45.99819" lon="6.54118">
        <ele>1082</ele>
        <time>2018-01-15T11:49:42Z</time>
      </trkpt>
      <trkpt lat="45.99818" lon="6.54119">
        <ele>1082</ele>
        <time>2018-01-15T11:49:43Z</time>
      </trkpt>
      <trkpt lat="45.99816" lon="6.5412">
        <ele>1082</ele>
        <time>2018-01-15T11:49:44Z</time>
      </trkpt>
      <trkpt lat="45.99815" lon="6.54121">
        <ele>1082</ele>
        <time>2018-01-15T11:49:45Z</time>
      </trkpt>
      <trkpt lat="45.99807" lon="6.54123">
        <ele>1083</ele>
        <time>2018-01-15T11:49:49Z</time>
      </trkpt>
      <trkpt lat="45.99796" lon="6.54128">
        <ele>1084</ele>
        <time>2018-01-15T11:49:59Z</time>
      </trkpt>
      <trkpt lat="45.99794" lon="6.54128">
        <ele>1084</ele>
        <time>2018-01-15T11:50:00Z</time>
      </trkpt>
      <trkpt lat="45.99792" lon="6.54127">
        <ele>1084</ele>
        <time>2018-01-15T11:50:01Z</time>
      </trkpt>
      <trkpt lat="45.99789" lon="6.54128">
        <ele>1085</ele>
        <time>2018-01-15T11:50:04Z</time>
      </trkpt>
      <trkpt lat="45.99772" lon="6.54128">
        <ele>1086</ele>
        <time>2018-01-15T11:50:18Z</time>
      </trkpt>
      <trkpt lat="45.99759" lon="6.54128">
        <ele>1086</ele>
        <time>2018-01-15T11:50:26Z</time>
      </trkpt>
      <trkpt lat="45.9975" lon="6.54122">
        <ele>1085</ele>
        <time>2018-01-15T11:50:33Z</time>
      </trkpt>
      <trkpt lat="45.99748" lon="6.54123">
        <ele>1092</ele>
        <time>2018-01-15T11:50:34Z</time>
      </trkpt>
      <trkpt lat="45.99744" lon="6.54122">
        <ele>1092</ele>
        <time>2018-01-15T11:50:37Z</time>
      </trkpt>
      <trkpt lat="45.99742" lon="6.54123">
        <ele>1092</ele>
        <time>2018-01-15T11:50:38Z</time>
      </trkpt>
      <trkpt lat="45.9974" lon="6.54123">
        <ele>1092</ele>
        <time>2018-01-15T11:50:39Z</time>
      </trkpt>
      <trkpt lat="45.99731" lon="6.54131">
        <ele>1094</ele>
        <time>2018-01-15T11:50:48Z</time>
      </trkpt>
      <trkpt lat="45.99729" lon="6.54132">
        <ele>1094</ele>
        <time>2018-01-15T11:50:49Z</time>
      </trkpt>
      <trkpt lat="45.99727" lon="6.54135">
        <ele>1095</ele>
        <time>2018-01-15T11:50:50Z</time>
      </trkpt>
      <trkpt lat="45.99726" lon="6.54136">
        <ele>1095</ele>
        <time>2018-01-15T11:50:51Z</time>
      </trkpt>
      <trkpt lat="45.99724" lon="6.54137">
        <ele>1095</ele>
        <time>2018-01-15T11:50:52Z</time>
      </trkpt>
      <trkpt lat="45.99709" lon="6.54141">
        <ele>1096</ele>
        <time>2018-01-15T11:51:03Z</time>
      </trkpt>
      <trkpt lat="45.99708" lon="6.54142">
        <ele>1096</ele>
        <time>2018-01-15T11:51:04Z</time>
      </trkpt>
      <trkpt lat="45.99707" lon="6.54143">
        <ele>1097</ele>
        <time>2018-01-15T11:51:05Z</time>
      </trkpt>
      <trkpt lat="45.99704" lon="6.54146">
        <ele>1097</ele>
        <time>2018-01-15T11:51:08Z</time>
      </trkpt>
      <trkpt lat="45.99703" lon="6.54147">
        <ele>1097</ele>
        <time>2018-01-15T11:51:09Z</time>
      </trkpt>
      <trkpt lat="45.99699" lon="6.5415">
        <ele>1098</ele>
        <time>2018-01-15T11:51:14Z</time>
      </trkpt>
      <trkpt lat="45.99697" lon="6.54151">
        <ele>1098</ele>
        <time>2018-01-15T11:51:17Z</time>
      </trkpt>
      <trkpt lat="45.99668" lon="6.54142">
        <ele>1100</ele>
        <time>2018-01-15T11:51:40Z</time>
      </trkpt>
      <trkpt lat="45.99645" lon="6.54128">
        <ele>1108</ele>
        <time>2018-01-15T11:51:56Z</time>
      </trkpt>
      <trkpt lat="45.99644" lon="6.54127">
        <ele>1108</ele>
        <time>2018-01-15T11:51:57Z</time>
      </trkpt>
      <trkpt lat="45.99643" lon="6.54126">
        <ele>1107</ele>
        <time>2018-01-15T11:51:58Z</time>
      </trkpt>
      <trkpt lat="45.99641" lon="6.54124">
        <ele>1107</ele>
        <time>2018-01-15T11:52:00Z</time>
      </trkpt>
      <trkpt lat="45.9964" lon="6.54123">
        <ele>1107</ele>
        <time>2018-01-15T11:52:01Z</time>
      </trkpt>
      <trkpt lat="45.99639" lon="6.54122">
        <ele>1107</ele>
        <time>2018-01-15T11:52:02Z</time>
      </trkpt>
      <trkpt lat="45.99634" lon="6.54119">
        <ele>1108</ele>
        <time>2018-01-15T11:52:07Z</time>
      </trkpt>
      <trkpt lat="45.99632" lon="6.54118">
        <ele>1108</ele>
        <time>2018-01-15T11:52:08Z</time>
      </trkpt>
      <trkpt lat="45.99628" lon="6.54112">
        <ele>1107</ele>
        <time>2018-01-15T11:52:14Z</time>
      </trkpt>
      <trkpt lat="45.99614" lon="6.54098">
        <ele>1107</ele>
        <time>2018-01-15T11:52:28Z</time>
      </trkpt>
      <trkpt lat="45.99613" lon="6.54097">
        <ele>1108</ele>
        <time>2018-01-15T11:52:29Z</time>
      </trkpt>
      <trkpt lat="45.9961" lon="6.54093">
        <ele>1107</ele>
        <time>2018-01-15T11:52:35Z</time>
      </trkpt>
      <trkpt lat="45.99609" lon="6.54091">
        <ele>1107</ele>
        <time>2018-01-15T11:52:36Z</time>
      </trkpt>
      <trkpt lat="45.99608" lon="6.5409">
        <ele>1107</ele>
        <time>2018-01-15T11:52:37Z</time>
      </trkpt>
      <trkpt lat="45.99607" lon="6.54088">
        <ele>1107</ele>
        <time>2018-01-15T11:52:38Z</time>
      </trkpt>
      <trkpt lat="45.99603" lon="6.54087">
        <ele>1108</ele>
        <time>2018-01-15T11:52:41Z</time>
      </trkpt>
      <trkpt lat="45.99599" lon="6.54085">
        <ele>1108</ele>
        <time>2018-01-15T11:52:44Z</time>
      </trkpt>
      <trkpt lat="45.99583" lon="6.54083">
        <ele>1107</ele>
        <time>2018-01-15T11:52:55Z</time>
      </trkpt>
      <trkpt lat="45.99581" lon="6.54082">
        <ele>1107</ele>
        <time>2018-01-15T11:52:56Z</time>
      </trkpt>
      <trkpt lat="45.9958" lon="6.54082">
        <ele>1107</ele>
        <time>2018-01-15T11:52:57Z</time>
      </trkpt>
      <trkpt lat="45.99579" lon="6.54081">
        <ele>1107</ele>
        <time>2018-01-15T11:52:58Z</time>
      </trkpt>
      <trkpt lat="45.99578" lon="6.5408">
        <ele>1108</ele>
        <time>2018-01-15T11:52:59Z</time>
      </trkpt>
      <trkpt lat="45.99576" lon="6.54079">
        <ele>1108</ele>
        <time>2018-01-15T11:53:00Z</time>
      </trkpt>
      <trkpt lat="45.99574" lon="6.54079">
        <ele>1108</ele>
        <time>2018-01-15T11:53:01Z</time>
      </trkpt>
      <trkpt lat="45.99563" lon="6.54077">
        <ele>1109</ele>
        <time>2018-01-15T11:53:11Z</time>
      </trkpt>
      <trkpt lat="45.99562" lon="6.54077">
        <ele>1109</ele>
        <time>2018-01-15T11:53:12Z</time>
      </trkpt>
      <trkpt lat="45.99561" lon="6.54076">
        <ele>1109</ele>
        <time>2018-01-15T11:53:13Z</time>
      </trkpt>
      <trkpt lat="45.99559" lon="6.54076">
        <ele>1109</ele>
        <time>2018-01-15T11:53:14Z</time>
      </trkpt>
      <trkpt lat="45.99557" lon="6.54076">
        <ele>1109</ele>
        <time>2018-01-15T11:53:15Z</time>
      </trkpt>
      <trkpt lat="45.99541" lon="6.54078">
        <ele>1110</ele>
        <time>2018-01-15T11:53:31Z</time>
      </trkpt>
      <trkpt lat="45.99537" lon="6.54079">
        <ele>1110</ele>
        <time>2018-01-15T11:53:33Z</time>
      </trkpt>
      <trkpt lat="45.99536" lon="6.54079">
        <ele>1110</ele>
        <time>2018-01-15T11:53:34Z</time>
      </trkpt>
      <trkpt lat="45.99535" lon="6.54079">
        <ele>1110</ele>
        <time>2018-01-15T11:53:35Z</time>
      </trkpt>
      <trkpt lat="45.99533" lon="6.54079">
        <ele>1110</ele>
        <time>2018-01-15T11:53:36Z</time>
      </trkpt>
      <trkpt lat="45.99532" lon="6.5408">
        <ele>1110</ele>
        <time>2018-01-15T11:53:37Z</time>
      </trkpt>
      <trkpt lat="45.99531" lon="6.54081">
        <ele>1110</ele>
        <time>2018-01-15T11:53:38Z</time>
      </trkpt>
      <trkpt lat="45.9953" lon="6.54084">
        <ele>1118</ele>
        <time>2018-01-15T11:53:41Z</time>
      </trkpt>
      <trkpt lat="45.99527" lon="6.54086">
        <ele>1118</ele>
        <time>2018-01-15T11:53:44Z</time>
      </trkpt>
      <trkpt lat="45.99526" lon="6.54086">
        <ele>1118</ele>
        <time>2018-01-15T11:53:45Z</time>
      </trkpt>
      <trkpt lat="45.99524" lon="6.54086">
        <ele>1118</ele>
        <time>2018-01-15T11:53:46Z</time>
      </trkpt>
      <trkpt lat="45.99523" lon="6.54087">
        <ele>1118</ele>
        <time>2018-01-15T11:53:47Z</time>
      </trkpt>
      <trkpt lat="45.99522" lon="6.54087">
        <ele>1118</ele>
        <time>2018-01-15T11:53:48Z</time>
      </trkpt>
      <trkpt lat="45.99517" lon="6.54086">
        <ele>1117</ele>
        <time>2018-01-15T11:53:52Z</time>
      </trkpt>
      <trkpt lat="45.99515" lon="6.54087">
        <ele>1117</ele>
        <time>2018-01-15T11:53:54Z</time>
      </trkpt>
      <trkpt lat="45.99514" lon="6.5409">
        <ele>1117</ele>
        <time>2018-01-15T11:53:56Z</time>
      </trkpt>
      <trkpt lat="45.99513" lon="6.54091">
        <ele>1117</ele>
        <time>2018-01-15T11:53:57Z</time>
      </trkpt>
      <trkpt lat="45.9951" lon="6.54092">
        <ele>1117</ele>
        <time>2018-01-15T11:53:59Z</time>
      </trkpt>
      <trkpt lat="45.99509" lon="6.54092">
        <ele>1117</ele>
        <time>2018-01-15T11:54:00Z</time>
      </trkpt>
      <trkpt lat="45.99496" lon="6.54091">
        <ele>1119</ele>
        <time>2018-01-15T11:54:11Z</time>
      </trkpt>
      <trkpt lat="45.99495" lon="6.54091">
        <ele>1119</ele>
        <time>2018-01-15T11:54:12Z</time>
      </trkpt>
      <trkpt lat="45.9949" lon="6.54091">
        <ele>1121</ele>
        <time>2018-01-15T11:54:17Z</time>
      </trkpt>
      <trkpt lat="45.99485" lon="6.54088">
        <ele>1122</ele>
        <time>2018-01-15T11:54:22Z</time>
      </trkpt>
      <trkpt lat="45.99484" lon="6.54085">
        <ele>1123</ele>
        <time>2018-01-15T11:54:23Z</time>
      </trkpt>
      <trkpt lat="45.99477" lon="6.54072">
        <ele>1118</ele>
        <time>2018-01-15T11:54:34Z</time>
      </trkpt>
      <trkpt lat="45.99468" lon="6.54069">
        <ele>1119</ele>
        <time>2018-01-15T11:54:45Z</time>
      </trkpt>
      <trkpt lat="45.99455" lon="6.54065">
        <ele>1120</ele>
        <time>2018-01-15T11:54:57Z</time>
      </trkpt>
      <trkpt lat="45.99442" lon="6.54053">
        <ele>1121</ele>
        <time>2018-01-15T11:55:08Z</time>
      </trkpt>
      <trkpt lat="45.99441" lon="6.54053">
        <ele>1121</ele>
        <time>2018-01-15T11:55:09Z</time>
      </trkpt>
      <trkpt lat="45.9944" lon="6.54052">
        <ele>1121</ele>
        <time>2018-01-15T11:55:10Z</time>
      </trkpt>
      <trkpt lat="45.9944" lon="6.5405">
        <ele>1121</ele>
        <time>2018-01-15T11:55:12Z</time>
      </trkpt>
      <trkpt lat="45.9944" lon="6.54049">
        <ele>1121</ele>
        <time>2018-01-15T11:55:13Z</time>
      </trkpt>
      <trkpt lat="45.99439" lon="6.54045">
        <ele>1121</ele>
        <time>2018-01-15T11:55:18Z</time>
      </trkpt>
      <trkpt lat="45.99439" lon="6.54037">
        <ele>1122</ele>
        <time>2018-01-15T11:55:25Z</time>
      </trkpt>
      <trkpt lat="45.9944" lon="6.54036">
        <ele>1122</ele>
        <time>2018-01-15T11:55:26Z</time>
      </trkpt>
      <trkpt lat="45.99441" lon="6.54026">
        <ele>1122</ele>
        <time>2018-01-15T11:55:34Z</time>
      </trkpt>
      <trkpt lat="45.99438" lon="6.54022">
        <ele>1122</ele>
        <time>2018-01-15T11:55:37Z</time>
      </trkpt>
      <trkpt lat="45.99438" lon="6.54019">
        <ele>1123</ele>
        <time>2018-01-15T11:55:39Z</time>
      </trkpt>
      <trkpt lat="45.99438" lon="6.54017">
        <ele>1123</ele>
        <time>2018-01-15T11:55:40Z</time>
      </trkpt>
      <trkpt lat="45.99438" lon="6.54015">
        <ele>1123</ele>
        <time>2018-01-15T11:55:41Z</time>
      </trkpt>
      <trkpt lat="45.99439" lon="6.54013">
        <ele>1123</ele>
        <time>2018-01-15T11:55:42Z</time>
      </trkpt>
      <trkpt lat="45.99439" lon="6.5401">
        <ele>1123</ele>
        <time>2018-01-15T11:55:45Z</time>
      </trkpt>
      <trkpt lat="45.99436" lon="6.53997">
        <ele>1128</ele>
        <time>2018-01-15T11:55:57Z</time>
      </trkpt>
      <trkpt lat="45.99434" lon="6.53995">
        <ele>1128</ele>
        <time>2018-01-15T11:56:00Z</time>
      </trkpt>
      <trkpt lat="45.99432" lon="6.53995">
        <ele>1128</ele>
        <time>2018-01-15T11:56:01Z</time>
      </trkpt>
      <trkpt lat="45.99421" lon="6.53996">
        <ele>1128</ele>
        <time>2018-01-15T11:56:13Z</time>
      </trkpt>
      <trkpt lat="45.9941" lon="6.53998">
        <ele>1133</ele>
        <time>2018-01-15T11:56:25Z</time>
      </trkpt>
      <trkpt lat="45.99407" lon="6.53996">
        <ele>1135</ele>
        <time>2018-01-15T11:56:28Z</time>
      </trkpt>
      <trkpt lat="45.99405" lon="6.53996">
        <ele>1136</ele>
        <time>2018-01-15T11:56:29Z</time>
      </trkpt>
      <trkpt lat="45.994" lon="6.53992">
        <ele>1139</ele>
        <time>2018-01-15T11:56:36Z</time>
      </trkpt>
      <trkpt lat="45.994" lon="6.53991">
        <ele>1139</ele>
        <time>2018-01-15T11:56:37Z</time>
      </trkpt>
      <trkpt lat="45.99399" lon="6.53989">
        <ele>1140</ele>
        <time>2018-01-15T11:56:39Z</time>
      </trkpt>
      <trkpt lat="45.99398" lon="6.53986">
        <ele>1141</ele>
        <time>2018-01-15T11:56:41Z</time>
      </trkpt>
      <trkpt lat="45.99398" lon="6.53985">
        <ele>1141</ele>
        <time>2018-01-15T11:56:42Z</time>
      </trkpt>
      <trkpt lat="45.99397" lon="6.53982">
        <ele>1142</ele>
        <time>2018-01-15T11:56:44Z</time>
      </trkpt>
      <trkpt lat="45.99397" lon="6.53981">
        <ele>1142</ele>
        <time>2018-01-15T11:56:45Z</time>
      </trkpt>
      <trkpt lat="45.99396" lon="6.5398">
        <ele>1143</ele>
        <time>2018-01-15T11:56:46Z</time>
      </trkpt>
      <trkpt lat="45.99396" lon="6.53978">
        <ele>1143</ele>
        <time>2018-01-15T11:56:47Z</time>
      </trkpt>
      <trkpt lat="45.99395" lon="6.53977">
        <ele>1143</ele>
        <time>2018-01-15T11:56:48Z</time>
      </trkpt>
      <trkpt lat="45.99385" lon="6.53974">
        <ele>1146</ele>
        <time>2018-01-15T11:57:04Z</time>
      </trkpt>
      <trkpt lat="45.99372" lon="6.53967">
        <ele>1149</ele>
        <time>2018-01-15T11:57:19Z</time>
      </trkpt>
      <trkpt lat="45.99367" lon="6.53957">
        <ele>1150</ele>
        <time>2018-01-15T11:57:33Z</time>
      </trkpt>
      <trkpt lat="45.99361" lon="6.53954">
        <ele>1151</ele>
        <time>2018-01-15T11:57:40Z</time>
      </trkpt>
      <trkpt lat="45.9936" lon="6.53955">
        <ele>1151</ele>
        <time>2018-01-15T11:57:41Z</time>
      </trkpt>
      <trkpt lat="45.99357" lon="6.5396">
        <ele>1151</ele>
        <time>2018-01-15T11:57:49Z</time>
      </trkpt>
      <trkpt lat="45.99353" lon="6.53959">
        <ele>1152</ele>
        <time>2018-01-15T11:57:53Z</time>
      </trkpt>
      <trkpt lat="45.99353" lon="6.53959">
        <ele>1152</ele>
        <time>2018-01-15T11:57:54Z</time>
      </trkpt>
      <trkpt lat="45.99347" lon="6.53957">
        <ele>1153</ele>
        <time>2018-01-15T11:58:08Z</time>
      </trkpt>
      <trkpt lat="45.99347" lon="6.53958">
        <ele>1153</ele>
        <time>2018-01-15T11:58:09Z</time>
      </trkpt>
      <trkpt lat="45.99345" lon="6.53961">
        <ele>1153</ele>
        <time>2018-01-15T11:58:21Z</time>
      </trkpt>
      <trkpt lat="45.99343" lon="6.53961">
        <ele>1153</ele>
        <time>2018-01-15T11:58:23Z</time>
      </trkpt>
      <trkpt lat="45.99343" lon="6.53961">
        <ele>1153</ele>
        <time>2018-01-15T11:58:24Z</time>
      </trkpt>
      <trkpt lat="45.99341" lon="6.53961">
        <ele>1153</ele>
        <time>2018-01-15T11:58:37Z</time>
      </trkpt>
      <trkpt lat="45.99348" lon="6.53962">
        <ele>1152</ele>
        <time>2018-01-15T11:58:43Z</time>
      </trkpt>
      <trkpt lat="45.99346" lon="6.53964">
        <ele>1152</ele>
        <time>2018-01-15T11:58:49Z</time>
      </trkpt>
      <trkpt lat="45.99343" lon="6.53964">
        <ele>1152</ele>
        <time>2018-01-15T11:58:54Z</time>
      </trkpt>
      <trkpt lat="45.9934" lon="6.53969">
        <ele>1153</ele>
        <time>2018-01-15T11:59:03Z</time>
      </trkpt>
      <trkpt lat="45.99333" lon="6.53979">
        <ele>1167</ele>
        <time>2018-01-15T11:59:14Z</time>
      </trkpt>
      <trkpt lat="45.99331" lon="6.53983">
        <ele>1166</ele>
        <time>2018-01-15T11:59:20Z</time>
      </trkpt>
      <trkpt lat="45.99327" lon="6.5399">
        <ele>1164</ele>
        <time>2018-01-15T11:59:25Z</time>
      </trkpt>
      <trkpt lat="45.9931" lon="6.54008">
        <ele>1164</ele>
        <time>2018-01-15T11:59:43Z</time>
      </trkpt>
      <trkpt lat="45.99302" lon="6.54014">
        <ele>1166</ele>
        <time>2018-01-15T11:59:53Z</time>
      </trkpt>
      <trkpt lat="45.99289" lon="6.54025">
        <ele>1169</ele>
        <time>2018-01-15T12:00:08Z</time>
      </trkpt>
      <trkpt lat="45.99287" lon="6.54026">
        <ele>1169</ele>
        <time>2018-01-15T12:00:10Z</time>
      </trkpt>
      <trkpt lat="45.99286" lon="6.54027">
        <ele>1170</ele>
        <time>2018-01-15T12:00:11Z</time>
      </trkpt>
      <trkpt lat="45.99285" lon="6.54028">
        <ele>1170</ele>
        <time>2018-01-15T12:00:12Z</time>
      </trkpt>
      <trkpt lat="45.99283" lon="6.5403">
        <ele>1170</ele>
        <time>2018-01-15T12:00:13Z</time>
      </trkpt>
      <trkpt lat="45.99282" lon="6.5403">
        <ele>1170</ele>
        <time>2018-01-15T12:00:14Z</time>
      </trkpt>
      <trkpt lat="45.9928" lon="6.54033">
        <ele>1170</ele>
        <time>2018-01-15T12:00:16Z</time>
      </trkpt>
      <trkpt lat="45.99278" lon="6.54034">
        <ele>1171</ele>
        <time>2018-01-15T12:00:18Z</time>
      </trkpt>
      <trkpt lat="45.99276" lon="6.54036">
        <ele>1171</ele>
        <time>2018-01-15T12:00:20Z</time>
      </trkpt>
      <trkpt lat="45.99275" lon="6.54036">
        <ele>1171</ele>
        <time>2018-01-15T12:00:21Z</time>
      </trkpt>
      <trkpt lat="45.99274" lon="6.54037">
        <ele>1171</ele>
        <time>2018-01-15T12:00:22Z</time>
      </trkpt>
      <trkpt lat="45.99275" lon="6.54038">
        <ele>1171</ele>
        <time>2018-01-15T12:00:23Z</time>
      </trkpt>
      <trkpt lat="45.99274" lon="6.54039">
        <ele>1171</ele>
        <time>2018-01-15T12:00:24Z</time>
      </trkpt>
      <trkpt lat="45.99273" lon="6.5404">
        <ele>1171</ele>
        <time>2018-01-15T12:00:25Z</time>
      </trkpt>
      <trkpt lat="45.99271" lon="6.54041">
        <ele>1171</ele>
        <time>2018-01-15T12:00:26Z</time>
      </trkpt>
      <trkpt lat="45.9927" lon="6.54042">
        <ele>1171</ele>
        <time>2018-01-15T12:00:27Z</time>
      </trkpt>
      <trkpt lat="45.9927" lon="6.54043">
        <ele>1171</ele>
        <time>2018-01-15T12:00:28Z</time>
      </trkpt>
      <trkpt lat="45.99268" lon="6.54043">
        <ele>1171</ele>
        <time>2018-01-15T12:00:29Z</time>
      </trkpt>
      <trkpt lat="45.99267" lon="6.54044">
        <ele>1172</ele>
        <time>2018-01-15T12:00:30Z</time>
      </trkpt>
      <trkpt lat="45.99267" lon="6.54045">
        <ele>1171</ele>
        <time>2018-01-15T12:00:31Z</time>
      </trkpt>
      <trkpt lat="45.99265" lon="6.54046">
        <ele>1172</ele>
        <time>2018-01-15T12:00:32Z</time>
      </trkpt>
      <trkpt lat="45.99265" lon="6.54047">
        <ele>1172</ele>
        <time>2018-01-15T12:00:33Z</time>
      </trkpt>
      <trkpt lat="45.99264" lon="6.54047">
        <ele>1172</ele>
        <time>2018-01-15T12:00:34Z</time>
      </trkpt>
      <trkpt lat="45.99264" lon="6.54048">
        <ele>1172</ele>
        <time>2018-01-15T12:00:35Z</time>
      </trkpt>
      <trkpt lat="45.99263" lon="6.54049">
        <ele>1172</ele>
        <time>2018-01-15T12:00:36Z</time>
      </trkpt>
      <trkpt lat="45.99263" lon="6.5405">
        <ele>1172</ele>
        <time>2018-01-15T12:00:37Z</time>
      </trkpt>
      <trkpt lat="45.99262" lon="6.54051">
        <ele>1172</ele>
        <time>2018-01-15T12:00:39Z</time>
      </trkpt>
      <trkpt lat="45.99261" lon="6.54052">
        <ele>1172</ele>
        <time>2018-01-15T12:00:41Z</time>
      </trkpt>
      <trkpt lat="45.9926" lon="6.54053">
        <ele>1172</ele>
        <time>2018-01-15T12:00:43Z</time>
      </trkpt>
      <trkpt lat="45.99258" lon="6.54056">
        <ele>1172</ele>
        <time>2018-01-15T12:00:46Z</time>
      </trkpt>
      <trkpt lat="45.99256" lon="6.54057">
        <ele>1172</ele>
        <time>2018-01-15T12:00:47Z</time>
      </trkpt>
      <trkpt lat="45.99255" lon="6.54057">
        <ele>1172</ele>
        <time>2018-01-15T12:00:48Z</time>
      </trkpt>
      <trkpt lat="45.99253" lon="6.54059">
        <ele>1173</ele>
        <time>2018-01-15T12:00:50Z</time>
      </trkpt>
      <trkpt lat="45.99252" lon="6.5406">
        <ele>1173</ele>
        <time>2018-01-15T12:00:51Z</time>
      </trkpt>
      <trkpt lat="45.99251" lon="6.5406">
        <ele>1173</ele>
        <time>2018-01-15T12:00:52Z</time>
      </trkpt>
      <trkpt lat="45.99244" lon="6.54066">
        <ele>1188</ele>
        <time>2018-01-15T12:01:01Z</time>
      </trkpt>
      <trkpt lat="45.99243" lon="6.54069">
        <ele>1187</ele>
        <time>2018-01-15T12:01:06Z</time>
      </trkpt>
      <trkpt lat="45.99242" lon="6.54069">
        <ele>1188</ele>
        <time>2018-01-15T12:01:07Z</time>
      </trkpt>
      <trkpt lat="45.99241" lon="6.54069">
        <ele>1188</ele>
        <time>2018-01-15T12:01:08Z</time>
      </trkpt>
      <trkpt lat="45.99229" lon="6.54077">
        <ele>1191</ele>
        <time>2018-01-15T12:01:22Z</time>
      </trkpt>
      <trkpt lat="45.99225" lon="6.54089">
        <ele>1189</ele>
        <time>2018-01-15T12:01:30Z</time>
      </trkpt>
      <trkpt lat="45.99222" lon="6.54096">
        <ele>1191</ele>
        <time>2018-01-15T12:01:37Z</time>
      </trkpt>
      <trkpt lat="45.99221" lon="6.54098">
        <ele>1191</ele>
        <time>2018-01-15T12:01:39Z</time>
      </trkpt>
      <trkpt lat="45.9922" lon="6.54098">
        <ele>1191</ele>
        <time>2018-01-15T12:01:40Z</time>
      </trkpt>
      <trkpt lat="45.99216" lon="6.54101">
        <ele>1192</ele>
        <time>2018-01-15T12:01:48Z</time>
      </trkpt>
      <trkpt lat="45.99215" lon="6.541">
        <ele>1193</ele>
        <time>2018-01-15T12:01:49Z</time>
      </trkpt>
      <trkpt lat="45.99212" lon="6.54107">
        <ele>1194</ele>
        <time>2018-01-15T12:02:01Z</time>
      </trkpt>
      <trkpt lat="45.99212" lon="6.54109">
        <ele>1194</ele>
        <time>2018-01-15T12:02:02Z</time>
      </trkpt>
      <trkpt lat="45.99211" lon="6.54109">
        <ele>1194</ele>
        <time>2018-01-15T12:02:03Z</time>
      </trkpt>
      <trkpt lat="45.99208" lon="6.54114">
        <ele>1195</ele>
        <time>2018-01-15T12:02:10Z</time>
      </trkpt>
      <trkpt lat="45.99204" lon="6.54118">
        <ele>1195</ele>
        <time>2018-01-15T12:02:12Z</time>
      </trkpt>
      <trkpt lat="45.99202" lon="6.54119">
        <ele>1196</ele>
        <time>2018-01-15T12:02:13Z</time>
      </trkpt>
      <trkpt lat="45.99201" lon="6.5412">
        <ele>1196</ele>
        <time>2018-01-15T12:02:14Z</time>
      </trkpt>
      <trkpt lat="45.99198" lon="6.54123">
        <ele>1197</ele>
        <time>2018-01-15T12:02:19Z</time>
      </trkpt>
      <trkpt lat="45.99196" lon="6.54124">
        <ele>1197</ele>
        <time>2018-01-15T12:02:21Z</time>
      </trkpt>
      <trkpt lat="45.99194" lon="6.54125">
        <ele>1197</ele>
        <time>2018-01-15T12:02:22Z</time>
      </trkpt>
      <trkpt lat="45.99193" lon="6.54126">
        <ele>1197</ele>
        <time>2018-01-15T12:02:23Z</time>
      </trkpt>
      <trkpt lat="45.99192" lon="6.54126">
        <ele>1198</ele>
        <time>2018-01-15T12:02:24Z</time>
      </trkpt>
      <trkpt lat="45.99191" lon="6.54127">
        <ele>1198</ele>
        <time>2018-01-15T12:02:26Z</time>
      </trkpt>
      <trkpt lat="45.99189" lon="6.54129">
        <ele>1198</ele>
        <time>2018-01-15T12:02:30Z</time>
      </trkpt>
      <trkpt lat="45.99186" lon="6.54129">
        <ele>1199</ele>
        <time>2018-01-15T12:02:35Z</time>
      </trkpt>
      <trkpt lat="45.99183" lon="6.54128">
        <ele>1199</ele>
        <time>2018-01-15T12:02:37Z</time>
      </trkpt>
      <trkpt lat="45.99184" lon="6.54128">
        <ele>1199</ele>
        <time>2018-01-15T12:02:41Z</time>
      </trkpt>
      <trkpt lat="45.99184" lon="6.54129">
        <ele>1199</ele>
        <time>2018-01-15T12:02:45Z</time>
      </trkpt>
      <trkpt lat="45.99182" lon="6.54129">
        <ele>1199</ele>
        <time>2018-01-15T12:02:47Z</time>
      </trkpt>
      <trkpt lat="45.99178" lon="6.54132">
        <ele>1200</ele>
        <time>2018-01-15T12:02:52Z</time>
      </trkpt>
      <trkpt lat="45.99179" lon="6.54135">
        <ele>1200</ele>
        <time>2018-01-15T12:02:54Z</time>
      </trkpt>
      <trkpt lat="45.99178" lon="6.54138">
        <ele>1200</ele>
        <time>2018-01-15T12:02:56Z</time>
      </trkpt>
      <trkpt lat="45.99175" lon="6.54144">
        <ele>1201</ele>
        <time>2018-01-15T12:03:01Z</time>
      </trkpt>
      <trkpt lat="45.99175" lon="6.54145">
        <ele>1201</ele>
        <time>2018-01-15T12:03:02Z</time>
      </trkpt>
      <trkpt lat="45.99174" lon="6.5415">
        <ele>1203</ele>
        <time>2018-01-15T12:03:06Z</time>
      </trkpt>
      <trkpt lat="45.99173" lon="6.54151">
        <ele>1203</ele>
        <time>2018-01-15T12:03:07Z</time>
      </trkpt>
      <trkpt lat="45.99173" lon="6.54152">
        <ele>1203</ele>
        <time>2018-01-15T12:03:08Z</time>
      </trkpt>
      <trkpt lat="45.99172" lon="6.54153">
        <ele>1203</ele>
        <time>2018-01-15T12:03:09Z</time>
      </trkpt>
      <trkpt lat="45.99172" lon="6.54155">
        <ele>1204</ele>
        <time>2018-01-15T12:03:10Z</time>
      </trkpt>
      <trkpt lat="45.99171" lon="6.54157">
        <ele>1205</ele>
        <time>2018-01-15T12:03:11Z</time>
      </trkpt>
      <trkpt lat="45.99171" lon="6.54158">
        <ele>1205</ele>
        <time>2018-01-15T12:03:12Z</time>
      </trkpt>
      <trkpt lat="45.99171" lon="6.5416">
        <ele>1206</ele>
        <time>2018-01-15T12:03:13Z</time>
      </trkpt>
      <trkpt lat="45.99171" lon="6.54163">
        <ele>1207</ele>
        <time>2018-01-15T12:03:15Z</time>
      </trkpt>
      <trkpt lat="45.99171" lon="6.54164">
        <ele>1207</ele>
        <time>2018-01-15T12:03:16Z</time>
      </trkpt>
      <trkpt lat="45.99171" lon="6.54166">
        <ele>1207</ele>
        <time>2018-01-15T12:03:17Z</time>
      </trkpt>
      <trkpt lat="45.99171" lon="6.54167">
        <ele>1208</ele>
        <time>2018-01-15T12:03:18Z</time>
      </trkpt>
      <trkpt lat="45.9917" lon="6.54169">
        <ele>1208</ele>
        <time>2018-01-15T12:03:19Z</time>
      </trkpt>
      <trkpt lat="45.99167" lon="6.54185">
        <ele>1204</ele>
        <time>2018-01-15T12:03:31Z</time>
      </trkpt>
      <trkpt lat="45.99166" lon="6.54186">
        <ele>1226</ele>
        <time>2018-01-15T12:03:32Z</time>
      </trkpt>
      <trkpt lat="45.99163" lon="6.54189">
        <ele>1228</ele>
        <time>2018-01-15T12:03:36Z</time>
      </trkpt>
      <trkpt lat="45.99162" lon="6.54192">
        <ele>1229</ele>
        <time>2018-01-15T12:03:38Z</time>
      </trkpt>
      <trkpt lat="45.99162" lon="6.54193">
        <ele>1230</ele>
        <time>2018-01-15T12:03:39Z</time>
      </trkpt>
      <trkpt lat="45.99162" lon="6.54194">
        <ele>1230</ele>
        <time>2018-01-15T12:03:40Z</time>
      </trkpt>
      <trkpt lat="45.99158" lon="6.54202">
        <ele>1232</ele>
        <time>2018-01-15T12:03:47Z</time>
      </trkpt>
      <trkpt lat="45.99157" lon="6.54204">
        <ele>1232</ele>
        <time>2018-01-15T12:03:48Z</time>
      </trkpt>
      <trkpt lat="45.99157" lon="6.54206">
        <ele>1232</ele>
        <time>2018-01-15T12:03:49Z</time>
      </trkpt>
      <trkpt lat="45.99157" lon="6.54207">
        <ele>1232</ele>
        <time>2018-01-15T12:03:50Z</time>
      </trkpt>
      <trkpt lat="45.99157" lon="6.54209">
        <ele>1232</ele>
        <time>2018-01-15T12:03:51Z</time>
      </trkpt>
      <trkpt lat="45.99157" lon="6.54212">
        <ele>1232</ele>
        <time>2018-01-15T12:03:53Z</time>
      </trkpt>
      <trkpt lat="45.99156" lon="6.54214">
        <ele>1232</ele>
        <time>2018-01-15T12:03:54Z</time>
      </trkpt>
      <trkpt lat="45.99155" lon="6.54221">
        <ele>1231</ele>
        <time>2018-01-15T12:03:58Z</time>
      </trkpt>
      <trkpt lat="45.99152" lon="6.54227">
        <ele>1230</ele>
        <time>2018-01-15T12:04:03Z</time>
      </trkpt>
      <trkpt lat="45.99148" lon="6.54234">
        <ele>1230</ele>
        <time>2018-01-15T12:04:10Z</time>
      </trkpt>
      <trkpt lat="45.99148" lon="6.54235">
        <ele>1230</ele>
        <time>2018-01-15T12:04:11Z</time>
      </trkpt>
      <trkpt lat="45.99145" lon="6.54239">
        <ele>1231</ele>
        <time>2018-01-15T12:04:15Z</time>
      </trkpt>
      <trkpt lat="45.99143" lon="6.5424">
        <ele>1232</ele>
        <time>2018-01-15T12:04:16Z</time>
      </trkpt>
      <trkpt lat="45.99142" lon="6.5424">
        <ele>1232</ele>
        <time>2018-01-15T12:04:17Z</time>
      </trkpt>
      <trkpt lat="45.99141" lon="6.54242">
        <ele>1233</ele>
        <time>2018-01-15T12:04:18Z</time>
      </trkpt>
      <trkpt lat="45.99143" lon="6.54243">
        <ele>1232</ele>
        <time>2018-01-15T12:04:19Z</time>
      </trkpt>
      <trkpt lat="45.99141" lon="6.54245">
        <ele>1233</ele>
        <time>2018-01-15T12:04:21Z</time>
      </trkpt>
      <trkpt lat="45.9914" lon="6.54248">
        <ele>1233</ele>
        <time>2018-01-15T12:04:24Z</time>
      </trkpt>
      <trkpt lat="45.99139" lon="6.54249">
        <ele>1233</ele>
        <time>2018-01-15T12:04:25Z</time>
      </trkpt>
      <trkpt lat="45.99138" lon="6.54253">
        <ele>1230</ele>
        <time>2018-01-15T12:04:30Z</time>
      </trkpt>
      <trkpt lat="45.99137" lon="6.54257">
        <ele>1231</ele>
        <time>2018-01-15T12:04:34Z</time>
      </trkpt>
      <trkpt lat="45.99135" lon="6.54259">
        <ele>1232</ele>
        <time>2018-01-15T12:04:35Z</time>
      </trkpt>
      <trkpt lat="45.99134" lon="6.5426">
        <ele>1233</ele>
        <time>2018-01-15T12:04:36Z</time>
      </trkpt>
      <trkpt lat="45.99133" lon="6.54262">
        <ele>1234</ele>
        <time>2018-01-15T12:04:37Z</time>
      </trkpt>
      <trkpt lat="45.99131" lon="6.54268">
        <ele>1235</ele>
        <time>2018-01-15T12:04:42Z</time>
      </trkpt>
      <trkpt lat="45.99128" lon="6.54271">
        <ele>1236</ele>
        <time>2018-01-15T12:04:45Z</time>
      </trkpt>
      <trkpt lat="45.99128" lon="6.54272">
        <ele>1237</ele>
        <time>2018-01-15T12:04:46Z</time>
      </trkpt>
      <trkpt lat="45.99126" lon="6.54272">
        <ele>1237</ele>
        <time>2018-01-15T12:04:48Z</time>
      </trkpt>
      <trkpt lat="45.99125" lon="6.54273">
        <ele>1238</ele>
        <time>2018-01-15T12:04:49Z</time>
      </trkpt>
      <trkpt lat="45.99124" lon="6.54274">
        <ele>1238</ele>
        <time>2018-01-15T12:04:50Z</time>
      </trkpt>
      <trkpt lat="45.99122" lon="6.54274">
        <ele>1239</ele>
        <time>2018-01-15T12:04:51Z</time>
      </trkpt>
      <trkpt lat="45.99121" lon="6.54275">
        <ele>1239</ele>
        <time>2018-01-15T12:04:52Z</time>
      </trkpt>
      <trkpt lat="45.99121" lon="6.54277">
        <ele>1239</ele>
        <time>2018-01-15T12:04:53Z</time>
      </trkpt>
      <trkpt lat="45.99121" lon="6.54279">
        <ele>1239</ele>
        <time>2018-01-15T12:04:55Z</time>
      </trkpt>
      <trkpt lat="45.99124" lon="6.54281">
        <ele>1238</ele>
        <time>2018-01-15T12:04:56Z</time>
      </trkpt>
      <trkpt lat="45.99125" lon="6.54282">
        <ele>1237</ele>
        <time>2018-01-15T12:04:57Z</time>
      </trkpt>
      <trkpt lat="45.99127" lon="6.54287">
        <ele>1236</ele>
        <time>2018-01-15T12:05:02Z</time>
      </trkpt>
      <trkpt lat="45.99126" lon="6.5429">
        <ele>1237</ele>
        <time>2018-01-15T12:05:04Z</time>
      </trkpt>
      <trkpt lat="45.99123" lon="6.54293">
        <ele>1237</ele>
        <time>2018-01-15T12:05:07Z</time>
      </trkpt>
      <trkpt lat="45.99122" lon="6.54294">
        <ele>1238</ele>
        <time>2018-01-15T12:05:09Z</time>
      </trkpt>
      <trkpt lat="45.99119" lon="6.54304">
        <ele>1238</ele>
        <time>2018-01-15T12:05:17Z</time>
      </trkpt>
      <trkpt lat="45.99118" lon="6.54306">
        <ele>1238</ele>
        <time>2018-01-15T12:05:19Z</time>
      </trkpt>
      <trkpt lat="45.99118" lon="6.5431">
        <ele>1238</ele>
        <time>2018-01-15T12:05:22Z</time>
      </trkpt>
      <trkpt lat="45.99116" lon="6.54311">
        <ele>1238</ele>
        <time>2018-01-15T12:05:24Z</time>
      </trkpt>
      <trkpt lat="45.99114" lon="6.54312">
        <ele>1239</ele>
        <time>2018-01-15T12:05:26Z</time>
      </trkpt>
      <trkpt lat="45.99112" lon="6.54312">
        <ele>1239</ele>
        <time>2018-01-15T12:05:27Z</time>
      </trkpt>
      <trkpt lat="45.9911" lon="6.54313">
        <ele>1240</ele>
        <time>2018-01-15T12:05:30Z</time>
      </trkpt>
      <trkpt lat="45.99115" lon="6.54325">
        <ele>1238</ele>
        <time>2018-01-15T12:05:42Z</time>
      </trkpt>
      <trkpt lat="45.9912" lon="6.54333">
        <ele>1239</ele>
        <time>2018-01-15T12:05:52Z</time>
      </trkpt>
      <trkpt lat="45.99108" lon="6.54342">
        <ele>1242</ele>
        <time>2018-01-15T12:06:04Z</time>
      </trkpt>
      <trkpt lat="45.99103" lon="6.54347">
        <ele>1243</ele>
        <time>2018-01-15T12:06:09Z</time>
      </trkpt>
      <trkpt lat="45.9909" lon="6.54368">
        <ele>1244</ele>
        <time>2018-01-15T12:06:28Z</time>
      </trkpt>
      <trkpt lat="45.99084" lon="6.54373">
        <ele>1244</ele>
        <time>2018-01-15T12:06:37Z</time>
      </trkpt>
      <trkpt lat="45.99072" lon="6.54386">
        <ele>1261</ele>
        <time>2018-01-15T12:06:52Z</time>
      </trkpt>
      <trkpt lat="45.99059" lon="6.54387">
        <ele>1263</ele>
        <time>2018-01-15T12:07:03Z</time>
      </trkpt>
      <trkpt lat="45.99045" lon="6.5439">
        <ele>1266</ele>
        <time>2018-01-15T12:07:18Z</time>
      </trkpt>
      <trkpt lat="45.99038" lon="6.54396">
        <ele>1267</ele>
        <time>2018-01-15T12:07:29Z</time>
      </trkpt>
      <trkpt lat="45.99033" lon="6.544">
        <ele>1268</ele>
        <time>2018-01-15T12:07:35Z</time>
      </trkpt>
      <trkpt lat="45.9902" lon="6.54398">
        <ele>1270</ele>
        <time>2018-01-15T12:07:46Z</time>
      </trkpt>
      <trkpt lat="45.99002" lon="6.54398">
        <ele>1272</ele>
        <time>2018-01-15T12:08:00Z</time>
      </trkpt>
      <trkpt lat="45.98994" lon="6.54401">
        <ele>1285</ele>
        <time>2018-01-15T12:08:13Z</time>
      </trkpt>
      <trkpt lat="45.98984" lon="6.54409">
        <ele>1285</ele>
        <time>2018-01-15T12:08:24Z</time>
      </trkpt>
      <trkpt lat="45.98969" lon="6.54414">
        <ele>1289</ele>
        <time>2018-01-15T12:08:37Z</time>
      </trkpt>
      <trkpt lat="45.98964" lon="6.54416">
        <ele>1289</ele>
        <time>2018-01-15T12:08:49Z</time>
      </trkpt>
      <trkpt lat="45.98951" lon="6.54418">
        <ele>1289</ele>
        <time>2018-01-15T12:09:02Z</time>
      </trkpt>
      <trkpt lat="45.98937" lon="6.54423">
        <ele>1290</ele>
        <time>2018-01-15T12:09:14Z</time>
      </trkpt>
      <trkpt lat="45.98922" lon="6.54426">
        <ele>1291</ele>
        <time>2018-01-15T12:09:28Z</time>
      </trkpt>
      <trkpt lat="45.98911" lon="6.54427">
        <ele>1293</ele>
        <time>2018-01-15T12:09:43Z</time>
      </trkpt>
      <trkpt lat="45.98899" lon="6.54433">
        <ele>1294</ele>
        <time>2018-01-15T12:09:55Z</time>
      </trkpt>
      <trkpt lat="45.98884" lon="6.54437">
        <ele>1296</ele>
        <time>2018-01-15T12:10:09Z</time>
      </trkpt>
      <trkpt lat="45.98882" lon="6.54437">
        <ele>1296</ele>
        <time>2018-01-15T12:10:16Z</time>
      </trkpt>
      <trkpt lat="45.98879" lon="6.54435">
        <ele>1296</ele>
        <time>2018-01-15T12:10:21Z</time>
      </trkpt>
      <trkpt lat="45.98872" lon="6.54434">
        <ele>1296</ele>
        <time>2018-01-15T12:10:27Z</time>
      </trkpt>
      <trkpt lat="45.9884" lon="6.54434">
        <ele>1298</ele>
        <time>2018-01-15T12:10:51Z</time>
      </trkpt>
      <trkpt lat="45.98823" lon="6.54433">
        <ele>1301</ele>
        <time>2018-01-15T12:11:07Z</time>
      </trkpt>
      <trkpt lat="45.98806" lon="6.54427">
        <ele>1302</ele>
        <time>2018-01-15T12:11:23Z</time>
      </trkpt>
      <trkpt lat="45.98768" lon="6.54417">
        <ele>1308</ele>
        <time>2018-01-15T12:11:50Z</time>
      </trkpt>
      <trkpt lat="45.98767" lon="6.54417">
        <ele>1303</ele>
        <time>2018-01-15T12:11:51Z</time>
      </trkpt>
      <trkpt lat="45.98765" lon="6.54417">
        <ele>1303</ele>
        <time>2018-01-15T12:11:52Z</time>
      </trkpt>
      <trkpt lat="45.98764" lon="6.54417">
        <ele>1303</ele>
        <time>2018-01-15T12:11:53Z</time>
      </trkpt>
      <trkpt lat="45.98763" lon="6.54417">
        <ele>1303</ele>
        <time>2018-01-15T12:11:54Z</time>
      </trkpt>
      <trkpt lat="45.98753" lon="6.54412">
        <ele>1306</ele>
        <time>2018-01-15T12:12:01Z</time>
      </trkpt>
      <trkpt lat="45.98741" lon="6.54402">
        <ele>1311</ele>
        <time>2018-01-15T12:12:09Z</time>
      </trkpt>
      <trkpt lat="45.9874" lon="6.54402">
        <ele>1311</ele>
        <time>2018-01-15T12:12:10Z</time>
      </trkpt>
      <trkpt lat="45.9873" lon="6.54392">
        <ele>1314</ele>
        <time>2018-01-15T12:12:21Z</time>
      </trkpt>
      <trkpt lat="45.98726" lon="6.54388">
        <ele>1315</ele>
        <time>2018-01-15T12:12:28Z</time>
      </trkpt>
      <trkpt lat="45.98724" lon="6.54387">
        <ele>1315</ele>
        <time>2018-01-15T12:12:29Z</time>
      </trkpt>
      <trkpt lat="45.98711" lon="6.54386">
        <ele>1316</ele>
        <time>2018-01-15T12:12:40Z</time>
      </trkpt>
      <trkpt lat="45.98709" lon="6.54386">
        <ele>1316</ele>
        <time>2018-01-15T12:12:41Z</time>
      </trkpt>
      <trkpt lat="45.98708" lon="6.54385">
        <ele>1316</ele>
        <time>2018-01-15T12:12:42Z</time>
      </trkpt>
      <trkpt lat="45.98703" lon="6.54384">
        <ele>1316</ele>
        <time>2018-01-15T12:12:45Z</time>
      </trkpt>
      <trkpt lat="45.98698" lon="6.54382">
        <ele>1317</ele>
        <time>2018-01-15T12:12:49Z</time>
      </trkpt>
      <trkpt lat="45.98696" lon="6.54382">
        <ele>1317</ele>
        <time>2018-01-15T12:12:50Z</time>
      </trkpt>
      <trkpt lat="45.98695" lon="6.54381">
        <ele>1317</ele>
        <time>2018-01-15T12:12:51Z</time>
      </trkpt>
      <trkpt lat="45.98693" lon="6.5438">
        <ele>1317</ele>
        <time>2018-01-15T12:12:52Z</time>
      </trkpt>
      <trkpt lat="45.98692" lon="6.5438">
        <ele>1317</ele>
        <time>2018-01-15T12:12:53Z</time>
      </trkpt>
      <trkpt lat="45.98679" lon="6.54372">
        <ele>1318</ele>
        <time>2018-01-15T12:13:09Z</time>
      </trkpt>
      <trkpt lat="45.98677" lon="6.54372">
        <ele>1318</ele>
        <time>2018-01-15T12:13:11Z</time>
      </trkpt>
      <trkpt lat="45.98676" lon="6.54372">
        <ele>1318</ele>
        <time>2018-01-15T12:13:12Z</time>
      </trkpt>
      <trkpt lat="45.98672" lon="6.54371">
        <ele>1319</ele>
        <time>2018-01-15T12:13:13Z</time>
      </trkpt>
      <trkpt lat="45.98667" lon="6.54371">
        <ele>1319</ele>
        <time>2018-01-15T12:13:16Z</time>
      </trkpt>
      <trkpt lat="45.98657" lon="6.54373">
        <ele>1320</ele>
        <time>2018-01-15T12:13:23Z</time>
      </trkpt>
      <trkpt lat="45.98655" lon="6.54373">
        <ele>1320</ele>
        <time>2018-01-15T12:13:24Z</time>
      </trkpt>
      <trkpt lat="45.98654" lon="6.54373">
        <ele>1320</ele>
        <time>2018-01-15T12:13:25Z</time>
      </trkpt>
      <trkpt lat="45.98652" lon="6.54373">
        <ele>1320</ele>
        <time>2018-01-15T12:13:26Z</time>
      </trkpt>
      <trkpt lat="45.9865" lon="6.54373">
        <ele>1320</ele>
        <time>2018-01-15T12:13:27Z</time>
      </trkpt>
      <trkpt lat="45.9865" lon="6.54374">
        <ele>1320</ele>
        <time>2018-01-15T12:13:28Z</time>
      </trkpt>
      <trkpt lat="45.98643" lon="6.54376">
        <ele>1319</ele>
        <time>2018-01-15T12:13:33Z</time>
      </trkpt>
      <trkpt lat="45.98637" lon="6.54377">
        <ele>1319</ele>
        <time>2018-01-15T12:13:39Z</time>
      </trkpt>
      <trkpt lat="45.98636" lon="6.54377">
        <ele>1319</ele>
        <time>2018-01-15T12:13:40Z</time>
      </trkpt>
      <trkpt lat="45.98635" lon="6.54377">
        <ele>1319</ele>
        <time>2018-01-15T12:13:41Z</time>
      </trkpt>
      <trkpt lat="45.98632" lon="6.54379">
        <ele>1319</ele>
        <time>2018-01-15T12:13:45Z</time>
      </trkpt>
      <trkpt lat="45.98631" lon="6.5438">
        <ele>1319</ele>
        <time>2018-01-15T12:13:46Z</time>
      </trkpt>
      <trkpt lat="45.98625" lon="6.5438">
        <ele>1319</ele>
        <time>2018-01-15T12:13:50Z</time>
      </trkpt>
      <trkpt lat="45.98624" lon="6.54379">
        <ele>1319</ele>
        <time>2018-01-15T12:13:53Z</time>
      </trkpt>
      <trkpt lat="45.98621" lon="6.54379">
        <ele>1319</ele>
        <time>2018-01-15T12:13:56Z</time>
      </trkpt>
      <trkpt lat="45.9862" lon="6.54379">
        <ele>1319</ele>
        <time>2018-01-15T12:13:57Z</time>
      </trkpt>
      <trkpt lat="45.98618" lon="6.54379">
        <ele>1319</ele>
        <time>2018-01-15T12:14:00Z</time>
      </trkpt>
      <trkpt lat="45.98617" lon="6.5438">
        <ele>1319</ele>
        <time>2018-01-15T12:14:01Z</time>
      </trkpt>
      <trkpt lat="45.98617" lon="6.5438">
        <ele>1319</ele>
        <time>2018-01-15T12:14:02Z</time>
      </trkpt>
      <trkpt lat="45.98616" lon="6.5438">
        <ele>1319</ele>
        <time>2018-01-15T12:14:03Z</time>
      </trkpt>
      <trkpt lat="45.98615" lon="6.5438">
        <ele>1319</ele>
        <time>2018-01-15T12:14:04Z</time>
      </trkpt>
      <trkpt lat="45.98613" lon="6.54381">
        <ele>1319</ele>
        <time>2018-01-15T12:14:05Z</time>
      </trkpt>
      <trkpt lat="45.98612" lon="6.54381">
        <ele>1319</ele>
        <time>2018-01-15T12:14:06Z</time>
      </trkpt>
      <trkpt lat="45.98609" lon="6.54377">
        <ele>1319</ele>
        <time>2018-01-15T12:14:11Z</time>
      </trkpt>
      <trkpt lat="45.98608" lon="6.54377">
        <ele>1319</ele>
        <time>2018-01-15T12:14:12Z</time>
      </trkpt>
      <trkpt lat="45.98607" lon="6.54377">
        <ele>1319</ele>
        <time>2018-01-15T12:14:13Z</time>
      </trkpt>
      <trkpt lat="45.98606" lon="6.54376">
        <ele>1319</ele>
        <time>2018-01-15T12:14:14Z</time>
      </trkpt>
      <trkpt lat="45.98605" lon="6.54375">
        <ele>1319</ele>
        <time>2018-01-15T12:14:15Z</time>
      </trkpt>
      <trkpt lat="45.98604" lon="6.54375">
        <ele>1319</ele>
        <time>2018-01-15T12:14:16Z</time>
      </trkpt>
      <trkpt lat="45.98603" lon="6.54375">
        <ele>1320</ele>
        <time>2018-01-15T12:14:17Z</time>
      </trkpt>
      <trkpt lat="45.98601" lon="6.54374">
        <ele>1320</ele>
        <time>2018-01-15T12:14:18Z</time>
      </trkpt>
      <trkpt lat="45.986" lon="6.54373">
        <ele>1320</ele>
        <time>2018-01-15T12:14:19Z</time>
      </trkpt>
      <trkpt lat="45.986" lon="6.54373">
        <ele>1320</ele>
        <time>2018-01-15T12:14:20Z</time>
      </trkpt>
      <trkpt lat="45.98598" lon="6.54373">
        <ele>1320</ele>
        <time>2018-01-15T12:14:21Z</time>
      </trkpt>
      <trkpt lat="45.98597" lon="6.54372">
        <ele>1320</ele>
        <time>2018-01-15T12:14:22Z</time>
      </trkpt>
      <trkpt lat="45.98591" lon="6.54367">
        <ele>1321</ele>
        <time>2018-01-15T12:14:29Z</time>
      </trkpt>
      <trkpt lat="45.98587" lon="6.54365">
        <ele>1321</ele>
        <time>2018-01-15T12:14:32Z</time>
      </trkpt>
      <trkpt lat="45.98587" lon="6.54365">
        <ele>1321</ele>
        <time>2018-01-15T12:14:33Z</time>
      </trkpt>
      <trkpt lat="45.98565" lon="6.54355">
        <ele>1320</ele>
        <time>2018-01-15T12:14:50Z</time>
      </trkpt>
      <trkpt lat="45.98551" lon="6.54351">
        <ele>1319</ele>
        <time>2018-01-15T12:14:58Z</time>
      </trkpt>
      <trkpt lat="45.98539" lon="6.54348">
        <ele>1318</ele>
        <time>2018-01-15T12:15:05Z</time>
      </trkpt>
      <trkpt lat="45.98539" lon="6.54347">
        <ele>1318</ele>
        <time>2018-01-15T12:15:06Z</time>
      </trkpt>
      <trkpt lat="45.98537" lon="6.54347">
        <ele>1318</ele>
        <time>2018-01-15T12:15:07Z</time>
      </trkpt>
      <trkpt lat="45.98536" lon="6.54347">
        <ele>1318</ele>
        <time>2018-01-15T12:15:08Z</time>
      </trkpt>
      <trkpt lat="45.98534" lon="6.54346">
        <ele>1318</ele>
        <time>2018-01-15T12:15:09Z</time>
      </trkpt>
      <trkpt lat="45.98533" lon="6.54346">
        <ele>1318</ele>
        <time>2018-01-15T12:15:10Z</time>
      </trkpt>
      <trkpt lat="45.98522" lon="6.54345">
        <ele>1318</ele>
        <time>2018-01-15T12:15:20Z</time>
      </trkpt>
      <trkpt lat="45.98518" lon="6.54343">
        <ele>1317</ele>
        <time>2018-01-15T12:15:25Z</time>
      </trkpt>
      <trkpt lat="45.98516" lon="6.54341">
        <ele>1317</ele>
        <time>2018-01-15T12:15:28Z</time>
      </trkpt>
      <trkpt lat="45.98515" lon="6.5434">
        <ele>1317</ele>
        <time>2018-01-15T12:15:29Z</time>
      </trkpt>
      <trkpt lat="45.98514" lon="6.54339">
        <ele>1317</ele>
        <time>2018-01-15T12:15:30Z</time>
      </trkpt>
      <trkpt lat="45.98513" lon="6.54338">
        <ele>1317</ele>
        <time>2018-01-15T12:15:34Z</time>
      </trkpt>
      <trkpt lat="45.98511" lon="6.54336">
        <ele>1317</ele>
        <time>2018-01-15T12:15:49Z</time>
      </trkpt>
      <trkpt lat="45.98513" lon="6.54336">
        <ele>1317</ele>
        <time>2018-01-15T12:15:54Z</time>
      </trkpt>
      <trkpt lat="45.98511" lon="6.54337">
        <ele>1317</ele>
        <time>2018-01-15T12:16:00Z</time>
      </trkpt>
      <trkpt lat="45.98512" lon="6.54336">
        <ele>1317</ele>
        <time>2018-01-15T12:16:02Z</time>
      </trkpt>
      <trkpt lat="45.98514" lon="6.54339">
        <ele>1317</ele>
        <time>2018-01-15T12:16:18Z</time>
      </trkpt>
      <trkpt lat="45.98513" lon="6.54338">
        <ele>1317</ele>
        <time>2018-01-15T12:16:38Z</time>
      </trkpt>
      <trkpt lat="45.98524" lon="6.54333">
        <ele>1326</ele>
        <time>2018-01-15T12:16:47Z</time>
      </trkpt>
      <trkpt lat="45.98525" lon="6.54333">
        <ele>1327</ele>
        <time>2018-01-15T12:16:49Z</time>
      </trkpt>
      <trkpt lat="45.98527" lon="6.54336">
        <ele>1318</ele>
        <time>2018-01-15T12:16:55Z</time>
      </trkpt>
      <trkpt lat="45.98518" lon="6.54333">
        <ele>1325</ele>
        <time>2018-01-15T12:17:04Z</time>
      </trkpt>
      <trkpt lat="45.98516" lon="6.54333">
        <ele>1324</ele>
        <time>2018-01-15T12:17:13Z</time>
      </trkpt>
      <trkpt lat="45.98516" lon="6.54333">
        <ele>1324</ele>
        <time>2018-01-15T12:17:15Z</time>
      </trkpt>
      <trkpt lat="45.98519" lon="6.54331">
        <ele>1325</ele>
        <time>2018-01-15T12:17:23Z</time>
      </trkpt>
      <trkpt lat="45.98522" lon="6.5433">
        <ele>1326</ele>
        <time>2018-01-15T12:17:28Z</time>
      </trkpt>
      <trkpt lat="45.98522" lon="6.54333">
        <ele>1326</ele>
        <time>2018-01-15T12:17:57Z</time>
      </trkpt>
      <trkpt lat="45.98513" lon="6.54338">
        <ele>1317</ele>
        <time>2018-01-15T12:18:18Z</time>
      </trkpt>
      <trkpt lat="45.98515" lon="6.54339">
        <ele>1317</ele>
        <time>2018-01-15T12:18:41Z</time>
      </trkpt>
      <trkpt lat="45.98513" lon="6.5434">
        <ele>1317</ele>
        <time>2018-01-15T12:18:57Z</time>
      </trkpt>
      <trkpt lat="45.98519" lon="6.54336">
        <ele>1318</ele>
        <time>2018-01-15T12:19:27Z</time>
      </trkpt>
      <trkpt lat="45.98525" lon="6.54337">
        <ele>1318</ele>
        <time>2018-01-15T12:19:36Z</time>
      </trkpt>
      <trkpt lat="45.98531" lon="6.54333">
        <ele>1328</ele>
        <time>2018-01-15T12:19:49Z</time>
      </trkpt>
      <trkpt lat="45.98529" lon="6.54328">
        <ele>1328</ele>
        <time>2018-01-15T12:20:06Z</time>
      </trkpt>
      <trkpt lat="45.98526" lon="6.5433">
        <ele>1327</ele>
        <time>2018-01-15T12:20:09Z</time>
      </trkpt>
      <trkpt lat="45.98525" lon="6.54331">
        <ele>1327</ele>
        <time>2018-01-15T12:20:10Z</time>
      </trkpt>
      <trkpt lat="45.98521" lon="6.54331">
        <ele>1326</ele>
        <time>2018-01-15T12:20:29Z</time>
      </trkpt>
      <trkpt lat="45.98514" lon="6.54336">
        <ele>1317</ele>
        <time>2018-01-15T12:20:50Z</time>
      </trkpt>
      <trkpt lat="45.98514" lon="6.54337">
        <ele>1317</ele>
        <time>2018-01-15T12:20:56Z</time>
      </trkpt>
      <trkpt lat="45.98508" lon="6.54329">
        <ele>1322</ele>
        <time>2018-01-15T12:21:09Z</time>
      </trkpt>
      <trkpt lat="45.98507" lon="6.54328">
        <ele>1322</ele>
        <time>2018-01-15T12:21:10Z</time>
      </trkpt>
      <trkpt lat="45.98505" lon="6.54321">
        <ele>1324</ele>
        <time>2018-01-15T12:21:17Z</time>
      </trkpt>
      <trkpt lat="45.98505" lon="6.54321">
        <ele>1324</ele>
        <time>2018-01-15T12:21:25Z</time>
      </trkpt>
      <trkpt lat="45.98501" lon="6.54315">
        <ele>1326</ele>
        <time>2018-01-15T12:21:30Z</time>
      </trkpt>
      <trkpt lat="45.985" lon="6.54313">
        <ele>1322</ele>
        <time>2018-01-15T12:21:31Z</time>
      </trkpt>
      <trkpt lat="45.98486" lon="6.54299">
        <ele>1325</ele>
        <time>2018-01-15T12:21:37Z</time>
      </trkpt>
      <trkpt lat="45.98482" lon="6.54294">
        <ele>1325</ele>
        <time>2018-01-15T12:21:40Z</time>
      </trkpt>
      <trkpt lat="45.9848" lon="6.54293">
        <ele>1325</ele>
        <time>2018-01-15T12:21:42Z</time>
      </trkpt>
      <trkpt lat="45.98479" lon="6.54292">
        <ele>1326</ele>
        <time>2018-01-15T12:21:43Z</time>
      </trkpt>
      <trkpt lat="45.98477" lon="6.5429">
        <ele>1326</ele>
        <time>2018-01-15T12:21:44Z</time>
      </trkpt>
      <trkpt lat="45.98477" lon="6.54289">
        <ele>1326</ele>
        <time>2018-01-15T12:21:45Z</time>
      </trkpt>
      <trkpt lat="45.98476" lon="6.54288">
        <ele>1326</ele>
        <time>2018-01-15T12:21:46Z</time>
      </trkpt>
      <trkpt lat="45.98476" lon="6.54287">
        <ele>1326</ele>
        <time>2018-01-15T12:21:47Z</time>
      </trkpt>
      <trkpt lat="45.98474" lon="6.54285">
        <ele>1326</ele>
        <time>2018-01-15T12:21:48Z</time>
      </trkpt>
      <trkpt lat="45.98474" lon="6.54284">
        <ele>1327</ele>
        <time>2018-01-15T12:21:49Z</time>
      </trkpt>
      <trkpt lat="45.98473" lon="6.54283">
        <ele>1327</ele>
        <time>2018-01-15T12:21:50Z</time>
      </trkpt>
      <trkpt lat="45.98472" lon="6.5428">
        <ele>1327</ele>
        <time>2018-01-15T12:21:52Z</time>
      </trkpt>
      <trkpt lat="45.98471" lon="6.54279">
        <ele>1327</ele>
        <time>2018-01-15T12:21:53Z</time>
      </trkpt>
      <trkpt lat="45.9847" lon="6.54279">
        <ele>1327</ele>
        <time>2018-01-15T12:21:54Z</time>
      </trkpt>
      <trkpt lat="45.98466" lon="6.54275">
        <ele>1327</ele>
        <time>2018-01-15T12:21:59Z</time>
      </trkpt>
      <trkpt lat="45.98465" lon="6.54275">
        <ele>1327</ele>
        <time>2018-01-15T12:22:00Z</time>
      </trkpt>
      <trkpt lat="45.98464" lon="6.54274">
        <ele>1327</ele>
        <time>2018-01-15T12:22:01Z</time>
      </trkpt>
      <trkpt lat="45.98462" lon="6.54274">
        <ele>1327</ele>
        <time>2018-01-15T12:22:02Z</time>
      </trkpt>
      <trkpt lat="45.98461" lon="6.54274">
        <ele>1327</ele>
        <time>2018-01-15T12:22:03Z</time>
      </trkpt>
      <trkpt lat="45.98459" lon="6.54274">
        <ele>1327</ele>
        <time>2018-01-15T12:22:04Z</time>
      </trkpt>
      <trkpt lat="45.98457" lon="6.54274">
        <ele>1327</ele>
        <time>2018-01-15T12:22:05Z</time>
      </trkpt>
      <trkpt lat="45.98456" lon="6.54275">
        <ele>1327</ele>
        <time>2018-01-15T12:22:06Z</time>
      </trkpt>
      <trkpt lat="45.98444" lon="6.54277">
        <ele>1326</ele>
        <time>2018-01-15T12:22:14Z</time>
      </trkpt>
      <trkpt lat="45.98441" lon="6.54279">
        <ele>1326</ele>
        <time>2018-01-15T12:22:18Z</time>
      </trkpt>
      <trkpt lat="45.9844" lon="6.54279">
        <ele>1326</ele>
        <time>2018-01-15T12:22:20Z</time>
      </trkpt>
      <trkpt lat="45.98439" lon="6.54279">
        <ele>1326</ele>
        <time>2018-01-15T12:22:21Z</time>
      </trkpt>
      <trkpt lat="45.98437" lon="6.5428">
        <ele>1325</ele>
        <time>2018-01-15T12:22:22Z</time>
      </trkpt>
      <trkpt lat="45.98433" lon="6.54281">
        <ele>1325</ele>
        <time>2018-01-15T12:22:27Z</time>
      </trkpt>
      <trkpt lat="45.98432" lon="6.54281">
        <ele>1325</ele>
        <time>2018-01-15T12:22:28Z</time>
      </trkpt>
      <trkpt lat="45.98425" lon="6.54281">
        <ele>1325</ele>
        <time>2018-01-15T12:22:36Z</time>
      </trkpt>
      <trkpt lat="45.98391" lon="6.5428">
        <ele>1324</ele>
        <time>2018-01-15T12:23:03Z</time>
      </trkpt>
      <trkpt lat="45.98389" lon="6.5428">
        <ele>1324</ele>
        <time>2018-01-15T12:23:04Z</time>
      </trkpt>
      <trkpt lat="45.98388" lon="6.5428">
        <ele>1324</ele>
        <time>2018-01-15T12:23:05Z</time>
      </trkpt>
      <trkpt lat="45.98384" lon="6.54281">
        <ele>1324</ele>
        <time>2018-01-15T12:23:09Z</time>
      </trkpt>
      <trkpt lat="45.98383" lon="6.54281">
        <ele>1324</ele>
        <time>2018-01-15T12:23:10Z</time>
      </trkpt>
      <trkpt lat="45.98355" lon="6.54282">
        <ele>1325</ele>
        <time>2018-01-15T12:23:32Z</time>
      </trkpt>
      <trkpt lat="45.98332" lon="6.54277">
        <ele>1328</ele>
        <time>2018-01-15T12:23:47Z</time>
      </trkpt>
      <trkpt lat="45.98296" lon="6.54269">
        <ele>1328</ele>
        <time>2018-01-15T12:24:11Z</time>
      </trkpt>
      <trkpt lat="45.98295" lon="6.54269">
        <ele>1328</ele>
        <time>2018-01-15T12:24:12Z</time>
      </trkpt>
      <trkpt lat="45.98293" lon="6.54268">
        <ele>1328</ele>
        <time>2018-01-15T12:24:13Z</time>
      </trkpt>
      <trkpt lat="45.98256" lon="6.54255">
        <ele>1333</ele>
        <time>2018-01-15T12:24:41Z</time>
      </trkpt>
      <trkpt lat="45.98254" lon="6.54254">
        <ele>1333</ele>
        <time>2018-01-15T12:24:43Z</time>
      </trkpt>
      <trkpt lat="45.98253" lon="6.54253">
        <ele>1334</ele>
        <time>2018-01-15T12:24:44Z</time>
      </trkpt>
      <trkpt lat="45.98252" lon="6.54252">
        <ele>1334</ele>
        <time>2018-01-15T12:24:45Z</time>
      </trkpt>
      <trkpt lat="45.9825" lon="6.54251">
        <ele>1335</ele>
        <time>2018-01-15T12:24:46Z</time>
      </trkpt>
      <trkpt lat="45.98245" lon="6.54248">
        <ele>1337</ele>
        <time>2018-01-15T12:24:51Z</time>
      </trkpt>
      <trkpt lat="45.98199" lon="6.54232">
        <ele>1341</ele>
        <time>2018-01-15T12:25:19Z</time>
      </trkpt>
      <trkpt lat="45.98197" lon="6.54231">
        <ele>1341</ele>
        <time>2018-01-15T12:25:20Z</time>
      </trkpt>
      <trkpt lat="45.98196" lon="6.54231">
        <ele>1341</ele>
        <time>2018-01-15T12:25:21Z</time>
      </trkpt>
      <trkpt lat="45.98194" lon="6.5423">
        <ele>1341</ele>
        <time>2018-01-15T12:25:22Z</time>
      </trkpt>
      <trkpt lat="45.98193" lon="6.5423">
        <ele>1341</ele>
        <time>2018-01-15T12:25:23Z</time>
      </trkpt>
      <trkpt lat="45.98191" lon="6.5423">
        <ele>1341</ele>
        <time>2018-01-15T12:25:24Z</time>
      </trkpt>
      <trkpt lat="45.98179" lon="6.54223">
        <ele>1341</ele>
        <time>2018-01-15T12:25:35Z</time>
      </trkpt>
      <trkpt lat="45.98178" lon="6.54222">
        <ele>1341</ele>
        <time>2018-01-15T12:25:36Z</time>
      </trkpt>
      <trkpt lat="45.98171" lon="6.54217">
        <ele>1342</ele>
        <time>2018-01-15T12:25:42Z</time>
      </trkpt>
      <trkpt lat="45.9817" lon="6.54217">
        <ele>1342</ele>
        <time>2018-01-15T12:25:43Z</time>
      </trkpt>
      <trkpt lat="45.98144" lon="6.54202">
        <ele>1342</ele>
        <time>2018-01-15T12:26:06Z</time>
      </trkpt>
      <trkpt lat="45.98143" lon="6.542">
        <ele>1342</ele>
        <time>2018-01-15T12:26:07Z</time>
      </trkpt>
      <trkpt lat="45.98142" lon="6.54199">
        <ele>1342</ele>
        <time>2018-01-15T12:26:08Z</time>
      </trkpt>
      <trkpt lat="45.98141" lon="6.54198">
        <ele>1342</ele>
        <time>2018-01-15T12:26:09Z</time>
      </trkpt>
      <trkpt lat="45.9814" lon="6.54197">
        <ele>1342</ele>
        <time>2018-01-15T12:26:10Z</time>
      </trkpt>
      <trkpt lat="45.98139" lon="6.54196">
        <ele>1342</ele>
        <time>2018-01-15T12:26:11Z</time>
      </trkpt>
      <trkpt lat="45.98139" lon="6.54194">
        <ele>1343</ele>
        <time>2018-01-15T12:26:12Z</time>
      </trkpt>
      <trkpt lat="45.98138" lon="6.54192">
        <ele>1343</ele>
        <time>2018-01-15T12:26:14Z</time>
      </trkpt>
      <trkpt lat="45.98137" lon="6.54191">
        <ele>1343</ele>
        <time>2018-01-15T12:26:15Z</time>
      </trkpt>
      <trkpt lat="45.98136" lon="6.5419">
        <ele>1343</ele>
        <time>2018-01-15T12:26:17Z</time>
      </trkpt>
      <trkpt lat="45.98134" lon="6.54185">
        <ele>1343</ele>
        <time>2018-01-15T12:26:21Z</time>
      </trkpt>
      <trkpt lat="45.98134" lon="6.54184">
        <ele>1343</ele>
        <time>2018-01-15T12:26:22Z</time>
      </trkpt>
      <trkpt lat="45.98133" lon="6.54183">
        <ele>1343</ele>
        <time>2018-01-15T12:26:23Z</time>
      </trkpt>
      <trkpt lat="45.98132" lon="6.54182">
        <ele>1343</ele>
        <time>2018-01-15T12:26:24Z</time>
      </trkpt>
      <trkpt lat="45.98131" lon="6.54181">
        <ele>1343</ele>
        <time>2018-01-15T12:26:25Z</time>
      </trkpt>
      <trkpt lat="45.9813" lon="6.5418">
        <ele>1343</ele>
        <time>2018-01-15T12:26:26Z</time>
      </trkpt>
      <trkpt lat="45.98129" lon="6.54179">
        <ele>1343</ele>
        <time>2018-01-15T12:26:27Z</time>
      </trkpt>
      <trkpt lat="45.98128" lon="6.54177">
        <ele>1343</ele>
        <time>2018-01-15T12:26:29Z</time>
      </trkpt>
      <trkpt lat="45.98127" lon="6.54176">
        <ele>1343</ele>
        <time>2018-01-15T12:26:30Z</time>
      </trkpt>
      <trkpt lat="45.98119" lon="6.54172">
        <ele>1343</ele>
        <time>2018-01-15T12:26:36Z</time>
      </trkpt>
      <trkpt lat="45.98112" lon="6.54167">
        <ele>1343</ele>
        <time>2018-01-15T12:26:43Z</time>
      </trkpt>
      <trkpt lat="45.9811" lon="6.54164">
        <ele>1355</ele>
        <time>2018-01-15T12:26:47Z</time>
      </trkpt>
      <trkpt lat="45.98109" lon="6.54162">
        <ele>1355</ele>
        <time>2018-01-15T12:26:48Z</time>
      </trkpt>
      <trkpt lat="45.98107" lon="6.5416">
        <ele>1354</ele>
        <time>2018-01-15T12:26:50Z</time>
      </trkpt>
      <trkpt lat="45.98106" lon="6.5416">
        <ele>1354</ele>
        <time>2018-01-15T12:26:51Z</time>
      </trkpt>
      <trkpt lat="45.98105" lon="6.54158">
        <ele>1354</ele>
        <time>2018-01-15T12:26:52Z</time>
      </trkpt>
      <trkpt lat="45.98104" lon="6.54157">
        <ele>1354</ele>
        <time>2018-01-15T12:26:53Z</time>
      </trkpt>
      <trkpt lat="45.98103" lon="6.54156">
        <ele>1354</ele>
        <time>2018-01-15T12:26:54Z</time>
      </trkpt>
      <trkpt lat="45.98102" lon="6.54155">
        <ele>1354</ele>
        <time>2018-01-15T12:26:55Z</time>
      </trkpt>
      <trkpt lat="45.981" lon="6.54153">
        <ele>1354</ele>
        <time>2018-01-15T12:26:57Z</time>
      </trkpt>
      <trkpt lat="45.98099" lon="6.54151">
        <ele>1354</ele>
        <time>2018-01-15T12:26:58Z</time>
      </trkpt>
      <trkpt lat="45.98097" lon="6.5415">
        <ele>1355</ele>
        <time>2018-01-15T12:26:59Z</time>
      </trkpt>
      <trkpt lat="45.98097" lon="6.54148">
        <ele>1355</ele>
        <time>2018-01-15T12:27:00Z</time>
      </trkpt>
      <trkpt lat="45.98096" lon="6.54147">
        <ele>1355</ele>
        <time>2018-01-15T12:27:01Z</time>
      </trkpt>
      <trkpt lat="45.98088" lon="6.54139">
        <ele>1357</ele>
        <time>2018-01-15T12:27:09Z</time>
      </trkpt>
      <trkpt lat="45.98087" lon="6.54138">
        <ele>1357</ele>
        <time>2018-01-15T12:27:10Z</time>
      </trkpt>
      <trkpt lat="45.98081" lon="6.5413">
        <ele>1358</ele>
        <time>2018-01-15T12:27:16Z</time>
      </trkpt>
      <trkpt lat="45.98078" lon="6.54125">
        <ele>1359</ele>
        <time>2018-01-15T12:27:19Z</time>
      </trkpt>
      <trkpt lat="45.98077" lon="6.54123">
        <ele>1360</ele>
        <time>2018-01-15T12:27:20Z</time>
      </trkpt>
      <trkpt lat="45.98076" lon="6.54122">
        <ele>1360</ele>
        <time>2018-01-15T12:27:21Z</time>
      </trkpt>
      <trkpt lat="45.98075" lon="6.5412">
        <ele>1361</ele>
        <time>2018-01-15T12:27:22Z</time>
      </trkpt>
      <trkpt lat="45.98074" lon="6.54118">
        <ele>1361</ele>
        <time>2018-01-15T12:27:23Z</time>
      </trkpt>
      <trkpt lat="45.98074" lon="6.54116">
        <ele>1362</ele>
        <time>2018-01-15T12:27:24Z</time>
      </trkpt>
      <trkpt lat="45.98073" lon="6.54114">
        <ele>1362</ele>
        <time>2018-01-15T12:27:25Z</time>
      </trkpt>
      <trkpt lat="45.98073" lon="6.54113">
        <ele>1362</ele>
        <time>2018-01-15T12:27:26Z</time>
      </trkpt>
      <trkpt lat="45.98073" lon="6.54112">
        <ele>1363</ele>
        <time>2018-01-15T12:27:27Z</time>
      </trkpt>
      <trkpt lat="45.98073" lon="6.54111">
        <ele>1363</ele>
        <time>2018-01-15T12:27:28Z</time>
      </trkpt>
      <trkpt lat="45.98068" lon="6.54105">
        <ele>1364</ele>
        <time>2018-01-15T12:27:34Z</time>
      </trkpt>
      <trkpt lat="45.98067" lon="6.54104">
        <ele>1364</ele>
        <time>2018-01-15T12:27:35Z</time>
      </trkpt>
      <trkpt lat="45.98065" lon="6.54104">
        <ele>1364</ele>
        <time>2018-01-15T12:27:37Z</time>
      </trkpt>
      <trkpt lat="45.98064" lon="6.54103">
        <ele>1364</ele>
        <time>2018-01-15T12:27:38Z</time>
      </trkpt>
      <trkpt lat="45.98059" lon="6.54102">
        <ele>1364</ele>
        <time>2018-01-15T12:27:43Z</time>
      </trkpt>
      <trkpt lat="45.9805" lon="6.54102">
        <ele>1363</ele>
        <time>2018-01-15T12:27:55Z</time>
      </trkpt>
      <trkpt lat="45.98049" lon="6.54102">
        <ele>1363</ele>
        <time>2018-01-15T12:27:56Z</time>
      </trkpt>
      <trkpt lat="45.98047" lon="6.54105">
        <ele>1362</ele>
        <time>2018-01-15T12:27:59Z</time>
      </trkpt>
      <trkpt lat="45.98041" lon="6.54108">
        <ele>1362</ele>
        <time>2018-01-15T12:28:05Z</time>
      </trkpt>
      <trkpt lat="45.98033" lon="6.54111">
        <ele>1361</ele>
        <time>2018-01-15T12:28:13Z</time>
      </trkpt>
      <trkpt lat="45.98033" lon="6.54112">
        <ele>1361</ele>
        <time>2018-01-15T12:28:14Z</time>
      </trkpt>
      <trkpt lat="45.98032" lon="6.54112">
        <ele>1361</ele>
        <time>2018-01-15T12:28:15Z</time>
      </trkpt>
      <trkpt lat="45.98032" lon="6.54113">
        <ele>1361</ele>
        <time>2018-01-15T12:28:16Z</time>
      </trkpt>
      <trkpt lat="45.98031" lon="6.54115">
        <ele>1360</ele>
        <time>2018-01-15T12:28:17Z</time>
      </trkpt>
      <trkpt lat="45.9803" lon="6.54117">
        <ele>1360</ele>
        <time>2018-01-15T12:28:18Z</time>
      </trkpt>
      <trkpt lat="45.98029" lon="6.54119">
        <ele>1360</ele>
        <time>2018-01-15T12:28:19Z</time>
      </trkpt>
      <trkpt lat="45.98027" lon="6.54122">
        <ele>1359</ele>
        <time>2018-01-15T12:28:20Z</time>
      </trkpt>
      <trkpt lat="45.98025" lon="6.54124">
        <ele>1359</ele>
        <time>2018-01-15T12:28:21Z</time>
      </trkpt>
      <trkpt lat="45.98024" lon="6.54126">
        <ele>1359</ele>
        <time>2018-01-15T12:28:22Z</time>
      </trkpt>
      <trkpt lat="45.98017" lon="6.5413">
        <ele>1358</ele>
        <time>2018-01-15T12:28:29Z</time>
      </trkpt>
      <trkpt lat="45.98015" lon="6.54129">
        <ele>1358</ele>
        <time>2018-01-15T12:28:30Z</time>
      </trkpt>
      <trkpt lat="45.98004" lon="6.54126">
        <ele>1358</ele>
        <time>2018-01-15T12:28:36Z</time>
      </trkpt>
      <trkpt lat="45.98002" lon="6.54125">
        <ele>1359</ele>
        <time>2018-01-15T12:28:37Z</time>
      </trkpt>
      <trkpt lat="45.98001" lon="6.54124">
        <ele>1359</ele>
        <time>2018-01-15T12:28:38Z</time>
      </trkpt>
      <trkpt lat="45.97999" lon="6.54123">
        <ele>1361</ele>
        <time>2018-01-15T12:28:39Z</time>
      </trkpt>
      <trkpt lat="45.97998" lon="6.54123">
        <ele>1361</ele>
        <time>2018-01-15T12:28:40Z</time>
      </trkpt>
      <trkpt lat="45.97997" lon="6.54122">
        <ele>1361</ele>
        <time>2018-01-15T12:28:41Z</time>
      </trkpt>
      <trkpt lat="45.97996" lon="6.54122">
        <ele>1361</ele>
        <time>2018-01-15T12:28:42Z</time>
      </trkpt>
      <trkpt lat="45.97995" lon="6.54121">
        <ele>1361</ele>
        <time>2018-01-15T12:28:43Z</time>
      </trkpt>
      <trkpt lat="45.97994" lon="6.5412">
        <ele>1361</ele>
        <time>2018-01-15T12:28:44Z</time>
      </trkpt>
      <trkpt lat="45.97993" lon="6.54119">
        <ele>1362</ele>
        <time>2018-01-15T12:28:45Z</time>
      </trkpt>
      <trkpt lat="45.97988" lon="6.54109">
        <ele>1363</ele>
        <time>2018-01-15T12:28:54Z</time>
      </trkpt>
      <trkpt lat="45.97987" lon="6.54107">
        <ele>1363</ele>
        <time>2018-01-15T12:28:55Z</time>
      </trkpt>
      <trkpt lat="45.97986" lon="6.54105">
        <ele>1364</ele>
        <time>2018-01-15T12:28:57Z</time>
      </trkpt>
      <trkpt lat="45.97986" lon="6.54104">
        <ele>1364</ele>
        <time>2018-01-15T12:28:58Z</time>
      </trkpt>
      <trkpt lat="45.97986" lon="6.54101">
        <ele>1364</ele>
        <time>2018-01-15T12:29:00Z</time>
      </trkpt>
      <trkpt lat="45.97986" lon="6.54099">
        <ele>1365</ele>
        <time>2018-01-15T12:29:01Z</time>
      </trkpt>
      <trkpt lat="45.97986" lon="6.54098">
        <ele>1365</ele>
        <time>2018-01-15T12:29:02Z</time>
      </trkpt>
      <trkpt lat="45.97986" lon="6.54097">
        <ele>1365</ele>
        <time>2018-01-15T12:29:03Z</time>
      </trkpt>
      <trkpt lat="45.97989" lon="6.54095">
        <ele>1365</ele>
        <time>2018-01-15T12:29:08Z</time>
      </trkpt>
      <trkpt lat="45.97994" lon="6.54088">
        <ele>1367</ele>
        <time>2018-01-15T12:29:18Z</time>
      </trkpt>
      <trkpt lat="45.97994" lon="6.54086">
        <ele>1367</ele>
        <time>2018-01-15T12:29:37Z</time>
      </trkpt>
      <trkpt lat="45.97994" lon="6.54085">
        <ele>1367</ele>
        <time>2018-01-15T12:29:42Z</time>
      </trkpt>
      <trkpt lat="45.98" lon="6.54076">
        <ele>1374</ele>
        <time>2018-01-15T12:30:00Z</time>
      </trkpt>
      <trkpt lat="45.97997" lon="6.54065">
        <ele>1376</ele>
        <time>2018-01-15T12:30:15Z</time>
      </trkpt>
      <trkpt lat="45.97995" lon="6.54062">
        <ele>1377</ele>
        <time>2018-01-15T12:30:19Z</time>
      </trkpt>
      <trkpt lat="45.97992" lon="6.54055">
        <ele>1379</ele>
        <time>2018-01-15T12:30:32Z</time>
      </trkpt>
      <trkpt lat="45.9799" lon="6.54051">
        <ele>1380</ele>
        <time>2018-01-15T12:30:40Z</time>
      </trkpt>
      <trkpt lat="45.9799" lon="6.54044">
        <ele>1382</ele>
        <time>2018-01-15T12:30:51Z</time>
      </trkpt>
      <trkpt lat="45.97989" lon="6.54037">
        <ele>1383</ele>
        <time>2018-01-15T12:31:11Z</time>
      </trkpt>
      <trkpt lat="45.97988" lon="6.54037">
        <ele>1383</ele>
        <time>2018-01-15T12:31:14Z</time>
      </trkpt>
      <trkpt lat="45.97983" lon="6.54033">
        <ele>1384</ele>
        <time>2018-01-15T12:31:21Z</time>
      </trkpt>
      <trkpt lat="45.97982" lon="6.54033">
        <ele>1384</ele>
        <time>2018-01-15T12:31:22Z</time>
      </trkpt>
      <trkpt lat="45.97975" lon="6.54031">
        <ele>1384</ele>
        <time>2018-01-15T12:31:32Z</time>
      </trkpt>
      <trkpt lat="45.97975" lon="6.5403">
        <ele>1384</ele>
        <time>2018-01-15T12:31:35Z</time>
      </trkpt>
      <trkpt lat="45.97975" lon="6.5403">
        <ele>1384</ele>
        <time>2018-01-15T12:31:38Z</time>
      </trkpt>
      <trkpt lat="45.97976" lon="6.54027">
        <ele>1385</ele>
        <time>2018-01-15T12:31:43Z</time>
      </trkpt>
      <trkpt lat="45.97974" lon="6.54021">
        <ele>1386</ele>
        <time>2018-01-15T12:31:49Z</time>
      </trkpt>
      <trkpt lat="45.97973" lon="6.5402">
        <ele>1386</ele>
        <time>2018-01-15T12:31:50Z</time>
      </trkpt>
      <trkpt lat="45.97972" lon="6.54019">
        <ele>1386</ele>
        <time>2018-01-15T12:31:51Z</time>
      </trkpt>
      <trkpt lat="45.9796" lon="6.54018">
        <ele>1385</ele>
        <time>2018-01-15T12:32:01Z</time>
      </trkpt>
      <trkpt lat="45.97953" lon="6.54021">
        <ele>1384</ele>
        <time>2018-01-15T12:32:07Z</time>
      </trkpt>
      <trkpt lat="45.9794" lon="6.54037">
        <ele>1382</ele>
        <time>2018-01-15T12:32:24Z</time>
      </trkpt>
      <trkpt lat="45.97939" lon="6.54038">
        <ele>1382</ele>
        <time>2018-01-15T12:32:25Z</time>
      </trkpt>
      <trkpt lat="45.97937" lon="6.54038">
        <ele>1382</ele>
        <time>2018-01-15T12:32:26Z</time>
      </trkpt>
      <trkpt lat="45.97936" lon="6.54039">
        <ele>1381</ele>
        <time>2018-01-15T12:32:27Z</time>
      </trkpt>
      <trkpt lat="45.97935" lon="6.54039">
        <ele>1381</ele>
        <time>2018-01-15T12:32:28Z</time>
      </trkpt>
      <trkpt lat="45.97929" lon="6.5404">
        <ele>1381</ele>
        <time>2018-01-15T12:32:35Z</time>
      </trkpt>
      <trkpt lat="45.97927" lon="6.54039">
        <ele>1381</ele>
        <time>2018-01-15T12:32:45Z</time>
      </trkpt>
      <trkpt lat="45.97924" lon="6.54039">
        <ele>1381</ele>
        <time>2018-01-15T12:32:56Z</time>
      </trkpt>
      <trkpt lat="45.97923" lon="6.5404">
        <ele>1381</ele>
        <time>2018-01-15T12:32:59Z</time>
      </trkpt>
      <trkpt lat="45.97922" lon="6.54041">
        <ele>1381</ele>
        <time>2018-01-15T12:33:00Z</time>
      </trkpt>
      <trkpt lat="45.97905" lon="6.54042">
        <ele>1382</ele>
        <time>2018-01-15T12:33:12Z</time>
      </trkpt>
      <trkpt lat="45.97894" lon="6.54047">
        <ele>1382</ele>
        <time>2018-01-15T12:33:17Z</time>
      </trkpt>
      <trkpt lat="45.9788" lon="6.5405">
        <ele>1382</ele>
        <time>2018-01-15T12:33:21Z</time>
      </trkpt>
      <trkpt lat="45.97872" lon="6.5405">
        <ele>1382</ele>
        <time>2018-01-15T12:33:23Z</time>
      </trkpt>
      <trkpt lat="45.97867" lon="6.54051">
        <ele>1382</ele>
        <time>2018-01-15T12:33:25Z</time>
      </trkpt>
      <trkpt lat="45.97861" lon="6.54056">
        <ele>1382</ele>
        <time>2018-01-15T12:33:30Z</time>
      </trkpt>
      <trkpt lat="45.97855" lon="6.5407">
        <ele>1381</ele>
        <time>2018-01-15T12:33:35Z</time>
      </trkpt>
      <trkpt lat="45.97852" lon="6.54076">
        <ele>1381</ele>
        <time>2018-01-15T12:33:38Z</time>
      </trkpt>
      <trkpt lat="45.97854" lon="6.54075">
        <ele>1381</ele>
        <time>2018-01-15T12:33:48Z</time>
      </trkpt>
      <trkpt lat="45.97858" lon="6.54074">
        <ele>1381</ele>
        <time>2018-01-15T12:34:03Z</time>
      </trkpt>
      <trkpt lat="45.97859" lon="6.5407">
        <ele>1381</ele>
        <time>2018-01-15T12:34:09Z</time>
      </trkpt>
      <trkpt lat="45.97859" lon="6.5407">
        <ele>1381</ele>
        <time>2018-01-15T12:34:11Z</time>
      </trkpt>
      <trkpt lat="45.97858" lon="6.5407">
        <ele>1381</ele>
        <time>2018-01-15T12:34:15Z</time>
      </trkpt>
      <trkpt lat="45.97856" lon="6.5407">
        <ele>1381</ele>
        <time>2018-01-15T12:34:17Z</time>
      </trkpt>
      <trkpt lat="45.97854" lon="6.5407">
        <ele>1381</ele>
        <time>2018-01-15T12:34:22Z</time>
      </trkpt>
      <trkpt lat="45.97856" lon="6.54069">
        <ele>1381</ele>
        <time>2018-01-15T12:34:35Z</time>
      </trkpt>
      <trkpt lat="45.97856" lon="6.54072">
        <ele>1381</ele>
        <time>2018-01-15T12:34:37Z</time>
      </trkpt>
      <trkpt lat="45.97856" lon="6.54076">
        <ele>1381</ele>
        <time>2018-01-15T12:34:40Z</time>
      </trkpt>
      <trkpt lat="45.97856" lon="6.54077">
        <ele>1381</ele>
        <time>2018-01-15T12:34:41Z</time>
      </trkpt>
      <trkpt lat="45.97855" lon="6.54085">
        <ele>1375</ele>
        <time>2018-01-15T12:34:47Z</time>
      </trkpt>
      <trkpt lat="45.97858" lon="6.54086">
        <ele>1375</ele>
        <time>2018-01-15T12:34:50Z</time>
      </trkpt>
      <trkpt lat="45.97859" lon="6.54087">
        <ele>1374</ele>
        <time>2018-01-15T12:34:51Z</time>
      </trkpt>
      <trkpt lat="45.97858" lon="6.54091">
        <ele>1374</ele>
        <time>2018-01-15T12:34:55Z</time>
      </trkpt>
      <trkpt lat="45.97856" lon="6.54092">
        <ele>1375</ele>
        <time>2018-01-15T12:34:56Z</time>
      </trkpt>
      <trkpt lat="45.97855" lon="6.54092">
        <ele>1375</ele>
        <time>2018-01-15T12:34:57Z</time>
      </trkpt>
      <trkpt lat="45.97854" lon="6.54093">
        <ele>1375</ele>
        <time>2018-01-15T12:34:58Z</time>
      </trkpt>
      <trkpt lat="45.97853" lon="6.54094">
        <ele>1375</ele>
        <time>2018-01-15T12:34:59Z</time>
      </trkpt>
      <trkpt lat="45.97853" lon="6.54097">
        <ele>1375</ele>
        <time>2018-01-15T12:35:05Z</time>
      </trkpt>
      <trkpt lat="45.9785" lon="6.541">
        <ele>1375</ele>
        <time>2018-01-15T12:35:13Z</time>
      </trkpt>
      <trkpt lat="45.97849" lon="6.54101">
        <ele>1375</ele>
        <time>2018-01-15T12:35:16Z</time>
      </trkpt>
      <trkpt lat="45.97846" lon="6.54104">
        <ele>1375</ele>
        <time>2018-01-15T12:35:20Z</time>
      </trkpt>
      <trkpt lat="45.97845" lon="6.54104">
        <ele>1375</ele>
        <time>2018-01-15T12:35:21Z</time>
      </trkpt>
      <trkpt lat="45.97845" lon="6.54103">
        <ele>1375</ele>
        <time>2018-01-15T12:35:22Z</time>
      </trkpt>
      <trkpt lat="45.97844" lon="6.54102">
        <ele>1375</ele>
        <time>2018-01-15T12:35:23Z</time>
      </trkpt>
      <trkpt lat="45.97841" lon="6.54103">
        <ele>1375</ele>
        <time>2018-01-15T12:35:24Z</time>
      </trkpt>
      <trkpt lat="45.9784" lon="6.54102">
        <ele>1375</ele>
        <time>2018-01-15T12:35:25Z</time>
      </trkpt>
      <trkpt lat="45.9784" lon="6.541">
        <ele>1376</ele>
        <time>2018-01-15T12:35:26Z</time>
      </trkpt>
      <trkpt lat="45.97839" lon="6.541">
        <ele>1376</ele>
        <time>2018-01-15T12:35:27Z</time>
      </trkpt>
      <trkpt lat="45.97837" lon="6.54101">
        <ele>1376</ele>
        <time>2018-01-15T12:35:28Z</time>
      </trkpt>
      <trkpt lat="45.97836" lon="6.54101">
        <ele>1376</ele>
        <time>2018-01-15T12:35:29Z</time>
      </trkpt>
      <trkpt lat="45.97835" lon="6.54101">
        <ele>1376</ele>
        <time>2018-01-15T12:35:30Z</time>
      </trkpt>
      <trkpt lat="45.97833" lon="6.54104">
        <ele>1383</ele>
        <time>2018-01-15T12:35:31Z</time>
      </trkpt>
      <trkpt lat="45.97831" lon="6.54106">
        <ele>1384</ele>
        <time>2018-01-15T12:35:32Z</time>
      </trkpt>
      <trkpt lat="45.9783" lon="6.54107">
        <ele>1384</ele>
        <time>2018-01-15T12:35:33Z</time>
      </trkpt>
      <trkpt lat="45.97829" lon="6.54108">
        <ele>1384</ele>
        <time>2018-01-15T12:35:34Z</time>
      </trkpt>
      <trkpt lat="45.97829" lon="6.54109">
        <ele>1384</ele>
        <time>2018-01-15T12:35:35Z</time>
      </trkpt>
      <trkpt lat="45.97828" lon="6.5411">
        <ele>1384</ele>
        <time>2018-01-15T12:35:42Z</time>
      </trkpt>
      <trkpt lat="45.97829" lon="6.5411">
        <ele>1384</ele>
        <time>2018-01-15T12:35:43Z</time>
      </trkpt>
      <trkpt lat="45.97833" lon="6.54115">
        <ele>1384</ele>
        <time>2018-01-15T12:35:58Z</time>
      </trkpt>
      <trkpt lat="45.97833" lon="6.54116">
        <ele>1384</ele>
        <time>2018-01-15T12:35:59Z</time>
      </trkpt>
      <trkpt lat="45.97833" lon="6.54117">
        <ele>1374</ele>
        <time>2018-01-15T12:36:00Z</time>
      </trkpt>
      <trkpt lat="45.97833" lon="6.54118">
        <ele>1384</ele>
        <time>2018-01-15T12:36:01Z</time>
      </trkpt>
      <trkpt lat="45.97833" lon="6.5412">
        <ele>1384</ele>
        <time>2018-01-15T12:36:02Z</time>
      </trkpt>
      <trkpt lat="45.97833" lon="6.54122">
        <ele>1384</ele>
        <time>2018-01-15T12:36:03Z</time>
      </trkpt>
      <trkpt lat="45.97833" lon="6.54123">
        <ele>1384</ele>
        <time>2018-01-15T12:36:04Z</time>
      </trkpt>
      <trkpt lat="45.97833" lon="6.54125">
        <ele>1374</ele>
        <time>2018-01-15T12:36:05Z</time>
      </trkpt>
      <trkpt lat="45.97833" lon="6.54127">
        <ele>1384</ele>
        <time>2018-01-15T12:36:06Z</time>
      </trkpt>
      <trkpt lat="45.97833" lon="6.54129">
        <ele>1384</ele>
        <time>2018-01-15T12:36:07Z</time>
      </trkpt>
      <trkpt lat="45.97833" lon="6.54132">
        <ele>1384</ele>
        <time>2018-01-15T12:36:08Z</time>
      </trkpt>
      <trkpt lat="45.97834" lon="6.54139">
        <ele>1374</ele>
        <time>2018-01-15T12:36:11Z</time>
      </trkpt>
      <trkpt lat="45.97836" lon="6.54148">
        <ele>1374</ele>
        <time>2018-01-15T12:36:15Z</time>
      </trkpt>
      <trkpt lat="45.97836" lon="6.54149">
        <ele>1375</ele>
        <time>2018-01-15T12:36:16Z</time>
      </trkpt>
      <trkpt lat="45.97835" lon="6.54152">
        <ele>1375</ele>
        <time>2018-01-15T12:36:17Z</time>
      </trkpt>
      <trkpt lat="45.97834" lon="6.54154">
        <ele>1375</ele>
        <time>2018-01-15T12:36:18Z</time>
      </trkpt>
      <trkpt lat="45.97833" lon="6.54156">
        <ele>1381</ele>
        <time>2018-01-15T12:36:19Z</time>
      </trkpt>
      <trkpt lat="45.97832" lon="6.54158">
        <ele>1380</ele>
        <time>2018-01-15T12:36:20Z</time>
      </trkpt>
      <trkpt lat="45.97831" lon="6.54161">
        <ele>1380</ele>
        <time>2018-01-15T12:36:21Z</time>
      </trkpt>
      <trkpt lat="45.9783" lon="6.54163">
        <ele>1379</ele>
        <time>2018-01-15T12:36:22Z</time>
      </trkpt>
      <trkpt lat="45.97826" lon="6.54177">
        <ele>1383</ele>
        <time>2018-01-15T12:36:30Z</time>
      </trkpt>
      <trkpt lat="45.97827" lon="6.54179">
        <ele>1384</ele>
        <time>2018-01-15T12:36:31Z</time>
      </trkpt>
      <trkpt lat="45.97827" lon="6.54186">
        <ele>1386</ele>
        <time>2018-01-15T12:36:35Z</time>
      </trkpt>
      <trkpt lat="45.97823" lon="6.54196">
        <ele>1388</ele>
        <time>2018-01-15T12:36:40Z</time>
      </trkpt>
      <trkpt lat="45.97822" lon="6.54201">
        <ele>1388</ele>
        <time>2018-01-15T12:36:43Z</time>
      </trkpt>
      <trkpt lat="45.97822" lon="6.54203">
        <ele>1389</ele>
        <time>2018-01-15T12:36:44Z</time>
      </trkpt>
      <trkpt lat="45.97822" lon="6.54204">
        <ele>1389</ele>
        <time>2018-01-15T12:36:45Z</time>
      </trkpt>
      <trkpt lat="45.97821" lon="6.54205">
        <ele>1389</ele>
        <time>2018-01-15T12:36:46Z</time>
      </trkpt>
      <trkpt lat="45.9782" lon="6.54207">
        <ele>1389</ele>
        <time>2018-01-15T12:36:47Z</time>
      </trkpt>
      <trkpt lat="45.97817" lon="6.54214">
        <ele>1390</ele>
        <time>2018-01-15T12:36:51Z</time>
      </trkpt>
      <trkpt lat="45.97817" lon="6.54215">
        <ele>1390</ele>
        <time>2018-01-15T12:36:52Z</time>
      </trkpt>
      <trkpt lat="45.97816" lon="6.54217">
        <ele>1390</ele>
        <time>2018-01-15T12:36:53Z</time>
      </trkpt>
      <trkpt lat="45.97816" lon="6.54218">
        <ele>1390</ele>
        <time>2018-01-15T12:36:54Z</time>
      </trkpt>
      <trkpt lat="45.97815" lon="6.54221">
        <ele>1390</ele>
        <time>2018-01-15T12:36:55Z</time>
      </trkpt>
      <trkpt lat="45.97809" lon="6.54232">
        <ele>1390</ele>
        <time>2018-01-15T12:37:02Z</time>
      </trkpt>
      <trkpt lat="45.97809" lon="6.54234">
        <ele>1390</ele>
        <time>2018-01-15T12:37:03Z</time>
      </trkpt>
      <trkpt lat="45.97809" lon="6.54235">
        <ele>1390</ele>
        <time>2018-01-15T12:37:04Z</time>
      </trkpt>
      <trkpt lat="45.97809" lon="6.54237">
        <ele>1390</ele>
        <time>2018-01-15T12:37:05Z</time>
      </trkpt>
      <trkpt lat="45.9781" lon="6.5424">
        <ele>1390</ele>
        <time>2018-01-15T12:37:09Z</time>
      </trkpt>
      <trkpt lat="45.97809" lon="6.54242">
        <ele>1390</ele>
        <time>2018-01-15T12:37:10Z</time>
      </trkpt>
      <trkpt lat="45.9781" lon="6.54243">
        <ele>1390</ele>
        <time>2018-01-15T12:37:11Z</time>
      </trkpt>
      <trkpt lat="45.9781" lon="6.54245">
        <ele>1390</ele>
        <time>2018-01-15T12:37:12Z</time>
      </trkpt>
      <trkpt lat="45.97811" lon="6.54246">
        <ele>1390</ele>
        <time>2018-01-15T12:37:13Z</time>
      </trkpt>
      <trkpt lat="45.97811" lon="6.54248">
        <ele>1389</ele>
        <time>2018-01-15T12:37:14Z</time>
      </trkpt>
      <trkpt lat="45.97812" lon="6.54249">
        <ele>1389</ele>
        <time>2018-01-15T12:37:15Z</time>
      </trkpt>
      <trkpt lat="45.97812" lon="6.54252">
        <ele>1392</ele>
        <time>2018-01-15T12:37:17Z</time>
      </trkpt>
      <trkpt lat="45.97812" lon="6.54254">
        <ele>1393</ele>
        <time>2018-01-15T12:37:18Z</time>
      </trkpt>
      <trkpt lat="45.97812" lon="6.54255">
        <ele>1393</ele>
        <time>2018-01-15T12:37:19Z</time>
      </trkpt>
      <trkpt lat="45.97811" lon="6.54257">
        <ele>1393</ele>
        <time>2018-01-15T12:37:20Z</time>
      </trkpt>
      <trkpt lat="45.97811" lon="6.54259">
        <ele>1393</ele>
        <time>2018-01-15T12:37:21Z</time>
      </trkpt>
      <trkpt lat="45.97812" lon="6.5426">
        <ele>1393</ele>
        <time>2018-01-15T12:37:23Z</time>
      </trkpt>
      <trkpt lat="45.97812" lon="6.54262">
        <ele>1393</ele>
        <time>2018-01-15T12:37:24Z</time>
      </trkpt>
      <trkpt lat="45.97806" lon="6.54282">
        <ele>1397</ele>
        <time>2018-01-15T12:37:36Z</time>
      </trkpt>
      <trkpt lat="45.97805" lon="6.54293">
        <ele>1397</ele>
        <time>2018-01-15T12:37:43Z</time>
      </trkpt>
      <trkpt lat="45.97805" lon="6.54295">
        <ele>1398</ele>
        <time>2018-01-15T12:37:44Z</time>
      </trkpt>
      <trkpt lat="45.97805" lon="6.54296">
        <ele>1398</ele>
        <time>2018-01-15T12:37:45Z</time>
      </trkpt>
      <trkpt lat="45.97806" lon="6.54301">
        <ele>1398</ele>
        <time>2018-01-15T12:37:48Z</time>
      </trkpt>
      <trkpt lat="45.97806" lon="6.54303">
        <ele>1398</ele>
        <time>2018-01-15T12:37:49Z</time>
      </trkpt>
      <trkpt lat="45.97808" lon="6.54312">
        <ele>1397</ele>
        <time>2018-01-15T12:37:55Z</time>
      </trkpt>
      <trkpt lat="45.97808" lon="6.54313">
        <ele>1397</ele>
        <time>2018-01-15T12:37:56Z</time>
      </trkpt>
      <trkpt lat="45.9781" lon="6.54315">
        <ele>1397</ele>
        <time>2018-01-15T12:37:57Z</time>
      </trkpt>
      <trkpt lat="45.9781" lon="6.54319">
        <ele>1397</ele>
        <time>2018-01-15T12:37:59Z</time>
      </trkpt>
      <trkpt lat="45.9781" lon="6.54321">
        <ele>1397</ele>
        <time>2018-01-15T12:38:00Z</time>
      </trkpt>
      <trkpt lat="45.9781" lon="6.54322">
        <ele>1397</ele>
        <time>2018-01-15T12:38:01Z</time>
      </trkpt>
      <trkpt lat="45.9781" lon="6.54325">
        <ele>1397</ele>
        <time>2018-01-15T12:38:02Z</time>
      </trkpt>
      <trkpt lat="45.97811" lon="6.54327">
        <ele>1397</ele>
        <time>2018-01-15T12:38:03Z</time>
      </trkpt>
      <trkpt lat="45.97812" lon="6.5433">
        <ele>1396</ele>
        <time>2018-01-15T12:38:04Z</time>
      </trkpt>
      <trkpt lat="45.9781" lon="6.54332">
        <ele>1397</ele>
        <time>2018-01-15T12:38:05Z</time>
      </trkpt>
      <trkpt lat="45.9781" lon="6.54333">
        <ele>1397</ele>
        <time>2018-01-15T12:38:06Z</time>
      </trkpt>
      <trkpt lat="45.97811" lon="6.54335">
        <ele>1402</ele>
        <time>2018-01-15T12:38:07Z</time>
      </trkpt>
      <trkpt lat="45.97813" lon="6.54337">
        <ele>1402</ele>
        <time>2018-01-15T12:38:08Z</time>
      </trkpt>
      <trkpt lat="45.97813" lon="6.54338">
        <ele>1402</ele>
        <time>2018-01-15T12:38:09Z</time>
      </trkpt>
      <trkpt lat="45.97814" lon="6.5434">
        <ele>1402</ele>
        <time>2018-01-15T12:38:10Z</time>
      </trkpt>
      <trkpt lat="45.97814" lon="6.54342">
        <ele>1402</ele>
        <time>2018-01-15T12:38:11Z</time>
      </trkpt>
      <trkpt lat="45.97814" lon="6.54344">
        <ele>1402</ele>
        <time>2018-01-15T12:38:12Z</time>
      </trkpt>
      <trkpt lat="45.97816" lon="6.54346">
        <ele>1402</ele>
        <time>2018-01-15T12:38:13Z</time>
      </trkpt>
      <trkpt lat="45.97816" lon="6.54348">
        <ele>1403</ele>
        <time>2018-01-15T12:38:15Z</time>
      </trkpt>
      <trkpt lat="45.97816" lon="6.54349">
        <ele>1403</ele>
        <time>2018-01-15T12:38:16Z</time>
      </trkpt>
      <trkpt lat="45.97818" lon="6.54351">
        <ele>1403</ele>
        <time>2018-01-15T12:38:18Z</time>
      </trkpt>
      <trkpt lat="45.9782" lon="6.54353">
        <ele>1403</ele>
        <time>2018-01-15T12:38:21Z</time>
      </trkpt>
      <trkpt lat="45.97821" lon="6.54354">
        <ele>1403</ele>
        <time>2018-01-15T12:38:22Z</time>
      </trkpt>
      <trkpt lat="45.97825" lon="6.54365">
        <ele>1405</ele>
        <time>2018-01-15T12:38:30Z</time>
      </trkpt>
      <trkpt lat="45.97825" lon="6.54367">
        <ele>1405</ele>
        <time>2018-01-15T12:38:31Z</time>
      </trkpt>
      <trkpt lat="45.97825" lon="6.54368">
        <ele>1406</ele>
        <time>2018-01-15T12:38:32Z</time>
      </trkpt>
      <trkpt lat="45.97826" lon="6.54369">
        <ele>1406</ele>
        <time>2018-01-15T12:38:33Z</time>
      </trkpt>
      <trkpt lat="45.97826" lon="6.54371">
        <ele>1406</ele>
        <time>2018-01-15T12:38:34Z</time>
      </trkpt>
      <trkpt lat="45.97831" lon="6.54394">
        <ele>1408</ele>
        <time>2018-01-15T12:38:47Z</time>
      </trkpt>
      <trkpt lat="45.97832" lon="6.54396">
        <ele>1408</ele>
        <time>2018-01-15T12:38:48Z</time>
      </trkpt>
      <trkpt lat="45.97832" lon="6.54398">
        <ele>1408</ele>
        <time>2018-01-15T12:38:49Z</time>
      </trkpt>
      <trkpt lat="45.97833" lon="6.544">
        <ele>1408</ele>
        <time>2018-01-15T12:38:50Z</time>
      </trkpt>
      <trkpt lat="45.97834" lon="6.54402">
        <ele>1398</ele>
        <time>2018-01-15T12:38:51Z</time>
      </trkpt>
      <trkpt lat="45.97835" lon="6.54404">
        <ele>1399</ele>
        <time>2018-01-15T12:38:52Z</time>
      </trkpt>
      <trkpt lat="45.97835" lon="6.54406">
        <ele>1399</ele>
        <time>2018-01-15T12:38:53Z</time>
      </trkpt>
      <trkpt lat="45.97836" lon="6.54407">
        <ele>1400</ele>
        <time>2018-01-15T12:38:54Z</time>
      </trkpt>
      <trkpt lat="45.97837" lon="6.54409">
        <ele>1401</ele>
        <time>2018-01-15T12:38:55Z</time>
      </trkpt>
      <trkpt lat="45.97839" lon="6.5441">
        <ele>1401</ele>
        <time>2018-01-15T12:38:56Z</time>
      </trkpt>
      <trkpt lat="45.97839" lon="6.54411">
        <ele>1401</ele>
        <time>2018-01-15T12:38:57Z</time>
      </trkpt>
      <trkpt lat="45.97839" lon="6.54412">
        <ele>1401</ele>
        <time>2018-01-15T12:38:58Z</time>
      </trkpt>
      <trkpt lat="45.97842" lon="6.54418">
        <ele>1406</ele>
        <time>2018-01-15T12:39:03Z</time>
      </trkpt>
      <trkpt lat="45.97843" lon="6.5442">
        <ele>1406</ele>
        <time>2018-01-15T12:39:04Z</time>
      </trkpt>
      <trkpt lat="45.97843" lon="6.54421">
        <ele>1406</ele>
        <time>2018-01-15T12:39:05Z</time>
      </trkpt>
      <trkpt lat="45.97843" lon="6.54423">
        <ele>1407</ele>
        <time>2018-01-15T12:39:07Z</time>
      </trkpt>
      <trkpt lat="45.97844" lon="6.54425">
        <ele>1407</ele>
        <time>2018-01-15T12:39:08Z</time>
      </trkpt>
      <trkpt lat="45.97847" lon="6.54434">
        <ele>1407</ele>
        <time>2018-01-15T12:39:14Z</time>
      </trkpt>
      <trkpt lat="45.97848" lon="6.54436">
        <ele>1407</ele>
        <time>2018-01-15T12:39:15Z</time>
      </trkpt>
      <trkpt lat="45.9785" lon="6.54437">
        <ele>1407</ele>
        <time>2018-01-15T12:39:17Z</time>
      </trkpt>
      <trkpt lat="45.97851" lon="6.54438">
        <ele>1408</ele>
        <time>2018-01-15T12:39:18Z</time>
      </trkpt>
      <trkpt lat="45.97853" lon="6.5444">
        <ele>1408</ele>
        <time>2018-01-15T12:39:19Z</time>
      </trkpt>
      <trkpt lat="45.97854" lon="6.54441">
        <ele>1408</ele>
        <time>2018-01-15T12:39:20Z</time>
      </trkpt>
      <trkpt lat="45.97855" lon="6.54441">
        <ele>1408</ele>
        <time>2018-01-15T12:39:21Z</time>
      </trkpt>
      <trkpt lat="45.97855" lon="6.54443">
        <ele>1408</ele>
        <time>2018-01-15T12:39:22Z</time>
      </trkpt>
      <trkpt lat="45.97856" lon="6.54451">
        <ele>1409</ele>
        <time>2018-01-15T12:39:29Z</time>
      </trkpt>
      <trkpt lat="45.97857" lon="6.54452">
        <ele>1409</ele>
        <time>2018-01-15T12:39:30Z</time>
      </trkpt>
      <trkpt lat="45.97858" lon="6.54453">
        <ele>1409</ele>
        <time>2018-01-15T12:39:31Z</time>
      </trkpt>
      <trkpt lat="45.97859" lon="6.54454">
        <ele>1409</ele>
        <time>2018-01-15T12:39:32Z</time>
      </trkpt>
      <trkpt lat="45.9786" lon="6.54455">
        <ele>1409</ele>
        <time>2018-01-15T12:39:33Z</time>
      </trkpt>
      <trkpt lat="45.9786" lon="6.54457">
        <ele>1409</ele>
        <time>2018-01-15T12:39:34Z</time>
      </trkpt>
      <trkpt lat="45.97861" lon="6.54458">
        <ele>1409</ele>
        <time>2018-01-15T12:39:35Z</time>
      </trkpt>
      <trkpt lat="45.97862" lon="6.5446">
        <ele>1409</ele>
        <time>2018-01-15T12:39:36Z</time>
      </trkpt>
      <trkpt lat="45.97863" lon="6.54461">
        <ele>1410</ele>
        <time>2018-01-15T12:39:37Z</time>
      </trkpt>
      <trkpt lat="45.97863" lon="6.54463">
        <ele>1410</ele>
        <time>2018-01-15T12:39:38Z</time>
      </trkpt>
      <trkpt lat="45.97864" lon="6.54465">
        <ele>1410</ele>
        <time>2018-01-15T12:39:39Z</time>
      </trkpt>
      <trkpt lat="45.97865" lon="6.54466">
        <ele>1410</ele>
        <time>2018-01-15T12:39:40Z</time>
      </trkpt>
      <trkpt lat="45.97866" lon="6.54467">
        <ele>1410</ele>
        <time>2018-01-15T12:39:41Z</time>
      </trkpt>
      <trkpt lat="45.97866" lon="6.54469">
        <ele>1410</ele>
        <time>2018-01-15T12:39:42Z</time>
      </trkpt>
      <trkpt lat="45.97867" lon="6.5447">
        <ele>1410</ele>
        <time>2018-01-15T12:39:43Z</time>
      </trkpt>
      <trkpt lat="45.97868" lon="6.54471">
        <ele>1410</ele>
        <time>2018-01-15T12:39:44Z</time>
      </trkpt>
      <trkpt lat="45.97868" lon="6.54473">
        <ele>1411</ele>
        <time>2018-01-15T12:39:45Z</time>
      </trkpt>
      <trkpt lat="45.97868" lon="6.54474">
        <ele>1411</ele>
        <time>2018-01-15T12:39:46Z</time>
      </trkpt>
      <trkpt lat="45.97869" lon="6.54475">
        <ele>1411</ele>
        <time>2018-01-15T12:39:47Z</time>
      </trkpt>
      <trkpt lat="45.9787" lon="6.54476">
        <ele>1411</ele>
        <time>2018-01-15T12:39:48Z</time>
      </trkpt>
      <trkpt lat="45.97873" lon="6.5448">
        <ele>1411</ele>
        <time>2018-01-15T12:39:53Z</time>
      </trkpt>
      <trkpt lat="45.97873" lon="6.54481">
        <ele>1411</ele>
        <time>2018-01-15T12:39:54Z</time>
      </trkpt>
      <trkpt lat="45.97874" lon="6.54482">
        <ele>1411</ele>
        <time>2018-01-15T12:39:55Z</time>
      </trkpt>
      <trkpt lat="45.97869" lon="6.54491">
        <ele>1413</ele>
        <time>2018-01-15T12:40:15Z</time>
      </trkpt>
      <trkpt lat="45.97862" lon="6.54493">
        <ele>1414</ele>
        <time>2018-01-15T12:40:23Z</time>
      </trkpt>
      <trkpt lat="45.97852" lon="6.54496">
        <ele>1417</ele>
        <time>2018-01-15T12:40:35Z</time>
      </trkpt>
      <trkpt lat="45.97852" lon="6.54497">
        <ele>1417</ele>
        <time>2018-01-15T12:40:36Z</time>
      </trkpt>
      <trkpt lat="45.97854" lon="6.54502">
        <ele>1430</ele>
        <time>2018-01-15T12:40:41Z</time>
      </trkpt>
      <trkpt lat="45.97855" lon="6.54503">
        <ele>1430</ele>
        <time>2018-01-15T12:40:43Z</time>
      </trkpt>
      <trkpt lat="45.97857" lon="6.54503">
        <ele>1430</ele>
        <time>2018-01-15T12:40:44Z</time>
      </trkpt>
      <trkpt lat="45.97858" lon="6.54505">
        <ele>1431</ele>
        <time>2018-01-15T12:40:46Z</time>
      </trkpt>
      <trkpt lat="45.97859" lon="6.54507">
        <ele>1431</ele>
        <time>2018-01-15T12:40:48Z</time>
      </trkpt>
      <trkpt lat="45.97869" lon="6.54518">
        <ele>1432</ele>
        <time>2018-01-15T12:41:03Z</time>
      </trkpt>
      <trkpt lat="45.97887" lon="6.54536">
        <ele>1433</ele>
        <time>2018-01-15T12:41:25Z</time>
      </trkpt>
      <trkpt lat="45.97899" lon="6.54541">
        <ele>1433</ele>
        <time>2018-01-15T12:41:36Z</time>
      </trkpt>
      <trkpt lat="45.97911" lon="6.54549">
        <ele>1435</ele>
        <time>2018-01-15T12:41:51Z</time>
      </trkpt>
      <trkpt lat="45.97913" lon="6.54553">
        <ele>1436</ele>
        <time>2018-01-15T12:41:55Z</time>
      </trkpt>
      <trkpt lat="45.97912" lon="6.54565">
        <ele>1438</ele>
        <time>2018-01-15T12:42:05Z</time>
      </trkpt>
      <trkpt lat="45.97914" lon="6.54571">
        <ele>1440</ele>
        <time>2018-01-15T12:42:13Z</time>
      </trkpt>
      <trkpt lat="45.97917" lon="6.54573">
        <ele>1434</ele>
        <time>2018-01-15T12:42:18Z</time>
      </trkpt>
      <trkpt lat="45.97916" lon="6.54585">
        <ele>1445</ele>
        <time>2018-01-15T12:42:30Z</time>
      </trkpt>
      <trkpt lat="45.97911" lon="6.54588">
        <ele>1450</ele>
        <time>2018-01-15T12:42:37Z</time>
      </trkpt>
      <trkpt lat="45.97918" lon="6.54594">
        <ele>1447</ele>
        <time>2018-01-15T12:42:51Z</time>
      </trkpt>
      <trkpt lat="45.97918" lon="6.54595">
        <ele>1447</ele>
        <time>2018-01-15T12:42:52Z</time>
      </trkpt>
      <trkpt lat="45.97916" lon="6.54601">
        <ele>1458</ele>
        <time>2018-01-15T12:43:02Z</time>
      </trkpt>
      <trkpt lat="45.97913" lon="6.54604">
        <ele>1459</ele>
        <time>2018-01-15T12:43:06Z</time>
      </trkpt>
      <trkpt lat="45.97918" lon="6.54611">
        <ele>1452</ele>
        <time>2018-01-15T12:43:22Z</time>
      </trkpt>
      <trkpt lat="45.9792" lon="6.54612">
        <ele>1452</ele>
        <time>2018-01-15T12:43:24Z</time>
      </trkpt>
      <trkpt lat="45.97919" lon="6.54621">
        <ele>1455</ele>
        <time>2018-01-15T12:43:42Z</time>
      </trkpt>
      <trkpt lat="45.9792" lon="6.54626">
        <ele>1457</ele>
        <time>2018-01-15T12:43:54Z</time>
      </trkpt>
      <trkpt lat="45.97916" lon="6.54631">
        <ele>1470</ele>
        <time>2018-01-15T12:44:10Z</time>
      </trkpt>
      <trkpt lat="45.97916" lon="6.54632">
        <ele>1470</ele>
        <time>2018-01-15T12:44:11Z</time>
      </trkpt>
      <trkpt lat="45.97909" lon="6.54636">
        <ele>1472</ele>
        <time>2018-01-15T12:44:26Z</time>
      </trkpt>
      <trkpt lat="45.97909" lon="6.5464">
        <ele>1473</ele>
        <time>2018-01-15T12:44:37Z</time>
      </trkpt>
      <trkpt lat="45.9791" lon="6.54642">
        <ele>1474</ele>
        <time>2018-01-15T12:44:39Z</time>
      </trkpt>
      <trkpt lat="45.97915" lon="6.54652">
        <ele>1476</ele>
        <time>2018-01-15T12:44:53Z</time>
      </trkpt>
      <trkpt lat="45.97923" lon="6.54662">
        <ele>1474</ele>
        <time>2018-01-15T12:45:08Z</time>
      </trkpt>
      <trkpt lat="45.97916" lon="6.54666">
        <ele>1481</ele>
        <time>2018-01-15T12:45:31Z</time>
      </trkpt>
      <trkpt lat="45.97908" lon="6.54667">
        <ele>1490</ele>
        <time>2018-01-15T12:45:47Z</time>
      </trkpt>
      <trkpt lat="45.97901" lon="6.54672">
        <ele>1496</ele>
        <time>2018-01-15T12:46:07Z</time>
      </trkpt>
      <trkpt lat="45.97899" lon="6.54674">
        <ele>1498</ele>
        <time>2018-01-15T12:46:19Z</time>
      </trkpt>
      <trkpt lat="45.97898" lon="6.54678">
        <ele>1499</ele>
        <time>2018-01-15T12:46:30Z</time>
      </trkpt>
      <trkpt lat="45.97894" lon="6.54683">
        <ele>1503</ele>
        <time>2018-01-15T12:46:57Z</time>
      </trkpt>
      <trkpt lat="45.97895" lon="6.54685">
        <ele>1503</ele>
        <time>2018-01-15T12:47:14Z</time>
      </trkpt>
      <trkpt lat="45.97902" lon="6.5469">
        <ele>1503</ele>
        <time>2018-01-15T12:47:28Z</time>
      </trkpt>
      <trkpt lat="45.97909" lon="6.54696">
        <ele>1504</ele>
        <time>2018-01-15T12:47:44Z</time>
      </trkpt>
      <trkpt lat="45.97919" lon="6.54705">
        <ele>1497</ele>
        <time>2018-01-15T12:48:00Z</time>
      </trkpt>
      <trkpt lat="45.97919" lon="6.54706">
        <ele>1497</ele>
        <time>2018-01-15T12:48:01Z</time>
      </trkpt>
      <trkpt lat="45.97928" lon="6.54711">
        <ele>1499</ele>
        <time>2018-01-15T12:48:10Z</time>
      </trkpt>
      <trkpt lat="45.97933" lon="6.54713">
        <ele>1499</ele>
        <time>2018-01-15T12:48:17Z</time>
      </trkpt>
      <trkpt lat="45.97935" lon="6.54713">
        <ele>1499</ele>
        <time>2018-01-15T12:48:19Z</time>
      </trkpt>
      <trkpt lat="45.97947" lon="6.54713">
        <ele>1499</ele>
        <time>2018-01-15T12:48:36Z</time>
      </trkpt>
      <trkpt lat="45.97944" lon="6.54722">
        <ele>1501</ele>
        <time>2018-01-15T12:48:55Z</time>
      </trkpt>
      <trkpt lat="45.97943" lon="6.54724">
        <ele>1502</ele>
        <time>2018-01-15T12:48:57Z</time>
      </trkpt>
      <trkpt lat="45.97935" lon="6.54737">
        <ele>1507</ele>
        <time>2018-01-15T12:49:14Z</time>
      </trkpt>
      <trkpt lat="45.97931" lon="6.54737">
        <ele>1508</ele>
        <time>2018-01-15T12:49:18Z</time>
      </trkpt>
      <trkpt lat="45.97929" lon="6.54745">
        <ele>1511</ele>
        <time>2018-01-15T12:49:39Z</time>
      </trkpt>
      <trkpt lat="45.97929" lon="6.54748">
        <ele>1512</ele>
        <time>2018-01-15T12:49:49Z</time>
      </trkpt>
      <trkpt lat="45.97937" lon="6.54751">
        <ele>1528</ele>
        <time>2018-01-15T12:49:58Z</time>
      </trkpt>
      <trkpt lat="45.97949" lon="6.54749">
        <ele>1506</ele>
        <time>2018-01-15T12:50:13Z</time>
      </trkpt>
      <trkpt lat="45.97961" lon="6.5475">
        <ele>1528</ele>
        <time>2018-01-15T12:50:30Z</time>
      </trkpt>
      <trkpt lat="45.97968" lon="6.54753">
        <ele>1528</ele>
        <time>2018-01-15T12:50:42Z</time>
      </trkpt>
      <trkpt lat="45.97972" lon="6.54756">
        <ele>1527</ele>
        <time>2018-01-15T12:50:49Z</time>
      </trkpt>
      <trkpt lat="45.97976" lon="6.54756">
        <ele>1527</ele>
        <time>2018-01-15T12:50:53Z</time>
      </trkpt>
      <trkpt lat="45.97979" lon="6.54765">
        <ele>1528</ele>
        <time>2018-01-15T12:51:13Z</time>
      </trkpt>
      <trkpt lat="45.97973" lon="6.54769">
        <ele>1529</ele>
        <time>2018-01-15T12:51:19Z</time>
      </trkpt>
      <trkpt lat="45.97972" lon="6.54769">
        <ele>1529</ele>
        <time>2018-01-15T12:51:20Z</time>
      </trkpt>
      <trkpt lat="45.97971" lon="6.54769">
        <ele>1530</ele>
        <time>2018-01-15T12:51:21Z</time>
      </trkpt>
      <trkpt lat="45.97971" lon="6.54769">
        <ele>1530</ele>
        <time>2018-01-15T12:51:22Z</time>
      </trkpt>
      <trkpt lat="45.97961" lon="6.54783">
        <ele>1533</ele>
        <time>2018-01-15T12:51:39Z</time>
      </trkpt>
      <trkpt lat="45.9795" lon="6.54796">
        <ele>1536</ele>
        <time>2018-01-15T12:51:56Z</time>
      </trkpt>
      <trkpt lat="45.97952" lon="6.54801">
        <ele>1537</ele>
        <time>2018-01-15T12:52:17Z</time>
      </trkpt>
      <trkpt lat="45.9796" lon="6.54807">
        <ele>1538</ele>
        <time>2018-01-15T12:52:32Z</time>
      </trkpt>
      <trkpt lat="45.97961" lon="6.54808">
        <ele>1538</ele>
        <time>2018-01-15T12:52:33Z</time>
      </trkpt>
      <trkpt lat="45.97966" lon="6.54813">
        <ele>1539</ele>
        <time>2018-01-15T12:52:43Z</time>
      </trkpt>
      <trkpt lat="45.9797" lon="6.54815">
        <ele>1539</ele>
        <time>2018-01-15T12:52:50Z</time>
      </trkpt>
      <trkpt lat="45.97969" lon="6.54819">
        <ele>1539</ele>
        <time>2018-01-15T12:52:57Z</time>
      </trkpt>
      <trkpt lat="45.97968" lon="6.54824">
        <ele>1540</ele>
        <time>2018-01-15T12:53:04Z</time>
      </trkpt>
      <trkpt lat="45.9796" lon="6.54833">
        <ele>1541</ele>
        <time>2018-01-15T12:53:18Z</time>
      </trkpt>
      <trkpt lat="45.97956" lon="6.54838">
        <ele>1561</ele>
        <time>2018-01-15T12:53:24Z</time>
      </trkpt>
      <trkpt lat="45.97956" lon="6.54839">
        <ele>1561</ele>
        <time>2018-01-15T12:53:25Z</time>
      </trkpt>
      <trkpt lat="45.97949" lon="6.54846">
        <ele>1562</ele>
        <time>2018-01-15T12:53:38Z</time>
      </trkpt>
      <trkpt lat="45.97956" lon="6.54851">
        <ele>1562</ele>
        <time>2018-01-15T12:53:52Z</time>
      </trkpt>
      <trkpt lat="45.97957" lon="6.54851">
        <ele>1562</ele>
        <time>2018-01-15T12:53:53Z</time>
      </trkpt>
      <trkpt lat="45.97968" lon="6.54854">
        <ele>1561</ele>
        <time>2018-01-15T12:54:10Z</time>
      </trkpt>
      <trkpt lat="45.97971" lon="6.5486">
        <ele>1562</ele>
        <time>2018-01-15T12:54:26Z</time>
      </trkpt>
      <trkpt lat="45.97964" lon="6.54869">
        <ele>1564</ele>
        <time>2018-01-15T12:54:39Z</time>
      </trkpt>
      <trkpt lat="45.97961" lon="6.54878">
        <ele>1566</ele>
        <time>2018-01-15T12:54:53Z</time>
      </trkpt>
      <trkpt lat="45.97968" lon="6.54885">
        <ele>1566</ele>
        <time>2018-01-15T12:55:05Z</time>
      </trkpt>
      <trkpt lat="45.97966" lon="6.54899">
        <ele>1568</ele>
        <time>2018-01-15T12:55:21Z</time>
      </trkpt>
      <trkpt lat="45.97964" lon="6.54911">
        <ele>1570</ele>
        <time>2018-01-15T12:55:43Z</time>
      </trkpt>
      <trkpt lat="45.97964" lon="6.54911">
        <ele>1570</ele>
        <time>2018-01-15T12:55:48Z</time>
      </trkpt>
      <trkpt lat="45.97964" lon="6.54911">
        <ele>1570</ele>
        <time>2018-01-15T12:55:50Z</time>
      </trkpt>
      <trkpt lat="45.97963" lon="6.54911">
        <ele>1570</ele>
        <time>2018-01-15T12:55:53Z</time>
      </trkpt>
      <trkpt lat="45.97963" lon="6.54911">
        <ele>1570</ele>
        <time>2018-01-15T12:55:57Z</time>
      </trkpt>
      <trkpt lat="45.97963" lon="6.54911">
        <ele>1570</ele>
        <time>2018-01-15T12:56:00Z</time>
      </trkpt>
      <trkpt lat="45.97963" lon="6.54912">
        <ele>1570</ele>
        <time>2018-01-15T12:56:03Z</time>
      </trkpt>
      <trkpt lat="45.97963" lon="6.54912">
        <ele>1570</ele>
        <time>2018-01-15T12:56:05Z</time>
      </trkpt>
      <trkpt lat="45.97964" lon="6.54911">
        <ele>1570</ele>
        <time>2018-01-15T12:56:16Z</time>
      </trkpt>
      <trkpt lat="45.97962" lon="6.54911">
        <ele>1570</ele>
        <time>2018-01-15T12:56:19Z</time>
      </trkpt>
      <trkpt lat="45.97963" lon="6.54911">
        <ele>1570</ele>
        <time>2018-01-15T12:56:36Z</time>
      </trkpt>
      <trkpt lat="45.97961" lon="6.54913">
        <ele>1570</ele>
        <time>2018-01-15T12:56:50Z</time>
      </trkpt>
      <trkpt lat="45.97961" lon="6.54913">
        <ele>1570</ele>
        <time>2018-01-15T12:56:52Z</time>
      </trkpt>
      <trkpt lat="45.97961" lon="6.54913">
        <ele>1570</ele>
        <time>2018-01-15T12:56:53Z</time>
      </trkpt>
      <trkpt lat="45.97961" lon="6.54912">
        <ele>1570</ele>
        <time>2018-01-15T12:57:03Z</time>
      </trkpt>
      <trkpt lat="45.97963" lon="6.54911">
        <ele>1570</ele>
        <time>2018-01-15T12:58:08Z</time>
      </trkpt>
      <trkpt lat="45.97962" lon="6.54911">
        <ele>1570</ele>
        <time>2018-01-15T12:58:36Z</time>
      </trkpt>
      <trkpt lat="45.97962" lon="6.54911">
        <ele>1570</ele>
        <time>2018-01-15T12:58:42Z</time>
      </trkpt>
      <trkpt lat="45.97962" lon="6.54911">
        <ele>1570</ele>
        <time>2018-01-15T12:58:45Z</time>
      </trkpt>
      <trkpt lat="45.97961" lon="6.54915">
        <ele>1570</ele>
        <time>2018-01-15T12:58:48Z</time>
      </trkpt>
      <trkpt lat="45.97957" lon="6.54932">
        <ele>1589</ele>
        <time>2018-01-15T12:59:01Z</time>
      </trkpt>
      <trkpt lat="45.97955" lon="6.54936">
        <ele>1589</ele>
        <time>2018-01-15T12:59:05Z</time>
      </trkpt>
      <trkpt lat="45.97955" lon="6.54939">
        <ele>1590</ele>
        <time>2018-01-15T12:59:07Z</time>
      </trkpt>
      <trkpt lat="45.97956" lon="6.54943">
        <ele>1590</ele>
        <time>2018-01-15T12:59:10Z</time>
      </trkpt>
      <trkpt lat="45.97956" lon="6.54945">
        <ele>1591</ele>
        <time>2018-01-15T12:59:12Z</time>
      </trkpt>
      <trkpt lat="45.97957" lon="6.54948">
        <ele>1591</ele>
        <time>2018-01-15T12:59:15Z</time>
      </trkpt>
      <trkpt lat="45.97957" lon="6.5495">
        <ele>1591</ele>
        <time>2018-01-15T12:59:17Z</time>
      </trkpt>
      <trkpt lat="45.97958" lon="6.54953">
        <ele>1592</ele>
        <time>2018-01-15T12:59:20Z</time>
      </trkpt>
      <trkpt lat="45.97957" lon="6.54957">
        <ele>1592</ele>
        <time>2018-01-15T12:59:24Z</time>
      </trkpt>
      <trkpt lat="45.97956" lon="6.54962">
        <ele>1593</ele>
        <time>2018-01-15T12:59:29Z</time>
      </trkpt>
      <trkpt lat="45.97955" lon="6.54963">
        <ele>1594</ele>
        <time>2018-01-15T12:59:30Z</time>
      </trkpt>
      <trkpt lat="45.97955" lon="6.5497">
        <ele>1595</ele>
        <time>2018-01-15T12:59:38Z</time>
      </trkpt>
      <trkpt lat="45.97957" lon="6.54975">
        <ele>1595</ele>
        <time>2018-01-15T12:59:43Z</time>
      </trkpt>
      <trkpt lat="45.97957" lon="6.54977">
        <ele>1595</ele>
        <time>2018-01-15T12:59:45Z</time>
      </trkpt>
      <trkpt lat="45.97959" lon="6.54987">
        <ele>1596</ele>
        <time>2018-01-15T12:59:57Z</time>
      </trkpt>
      <trkpt lat="45.9796" lon="6.5499">
        <ele>1597</ele>
        <time>2018-01-15T13:00:00Z</time>
      </trkpt>
      <trkpt lat="45.97959" lon="6.55002">
        <ele>1614</ele>
        <time>2018-01-15T13:00:13Z</time>
      </trkpt>
      <trkpt lat="45.97959" lon="6.55014">
        <ele>1615</ele>
        <time>2018-01-15T13:00:27Z</time>
      </trkpt>
      <trkpt lat="45.97957" lon="6.55027">
        <ele>1617</ele>
        <time>2018-01-15T13:00:40Z</time>
      </trkpt>
      <trkpt lat="45.97958" lon="6.55028">
        <ele>1617</ele>
        <time>2018-01-15T13:00:41Z</time>
      </trkpt>
      <trkpt lat="45.97949" lon="6.55033">
        <ele>1619</ele>
        <time>2018-01-15T13:00:55Z</time>
      </trkpt>
      <trkpt lat="45.97946" lon="6.55034">
        <ele>1620</ele>
        <time>2018-01-15T13:00:58Z</time>
      </trkpt>
      <trkpt lat="45.97945" lon="6.55034">
        <ele>1620</ele>
        <time>2018-01-15T13:00:59Z</time>
      </trkpt>
      <trkpt lat="45.97939" lon="6.55036">
        <ele>1621</ele>
        <time>2018-01-15T13:01:09Z</time>
      </trkpt>
      <trkpt lat="45.97935" lon="6.55035">
        <ele>1621</ele>
        <time>2018-01-15T13:01:15Z</time>
      </trkpt>
      <trkpt lat="45.97926" lon="6.55034">
        <ele>1621</ele>
        <time>2018-01-15T13:01:30Z</time>
      </trkpt>
      <trkpt lat="45.97925" lon="6.55043">
        <ele>1624</ele>
        <time>2018-01-15T13:01:40Z</time>
      </trkpt>
      <trkpt lat="45.97925" lon="6.55047">
        <ele>1625</ele>
        <time>2018-01-15T13:01:44Z</time>
      </trkpt>
      <trkpt lat="45.97928" lon="6.55052">
        <ele>1626</ele>
        <time>2018-01-15T13:01:53Z</time>
      </trkpt>
      <trkpt lat="45.97933" lon="6.55064">
        <ele>1630</ele>
        <time>2018-01-15T13:02:07Z</time>
      </trkpt>
      <trkpt lat="45.97933" lon="6.55066">
        <ele>1630</ele>
        <time>2018-01-15T13:02:08Z</time>
      </trkpt>
      <trkpt lat="45.97934" lon="6.55073">
        <ele>1632</ele>
        <time>2018-01-15T13:02:16Z</time>
      </trkpt>
      <trkpt lat="45.97938" lon="6.55086">
        <ele>1647</ele>
        <time>2018-01-15T13:02:33Z</time>
      </trkpt>
      <trkpt lat="45.97939" lon="6.55096">
        <ele>1647</ele>
        <time>2018-01-15T13:02:47Z</time>
      </trkpt>
      <trkpt lat="45.97941" lon="6.551">
        <ele>1647</ele>
        <time>2018-01-15T13:02:52Z</time>
      </trkpt>
      <trkpt lat="45.97944" lon="6.55111">
        <ele>1648</ele>
        <time>2018-01-15T13:03:07Z</time>
      </trkpt>
      <trkpt lat="45.97951" lon="6.55119">
        <ele>1648</ele>
        <time>2018-01-15T13:03:23Z</time>
      </trkpt>
      <trkpt lat="45.97959" lon="6.55128">
        <ele>1648</ele>
        <time>2018-01-15T13:03:40Z</time>
      </trkpt>
      <trkpt lat="45.97961" lon="6.55132">
        <ele>1648</ele>
        <time>2018-01-15T13:03:49Z</time>
      </trkpt>
      <trkpt lat="45.9797" lon="6.55145">
        <ele>1649</ele>
        <time>2018-01-15T13:04:06Z</time>
      </trkpt>
      <trkpt lat="45.9798" lon="6.55149">
        <ele>1647</ele>
        <time>2018-01-15T13:04:16Z</time>
      </trkpt>
      <trkpt lat="45.97989" lon="6.5516">
        <ele>1646</ele>
        <time>2018-01-15T13:04:34Z</time>
      </trkpt>
      <trkpt lat="45.97991" lon="6.55166">
        <ele>1646</ele>
        <time>2018-01-15T13:04:41Z</time>
      </trkpt>
      <trkpt lat="45.97992" lon="6.55167">
        <ele>1646</ele>
        <time>2018-01-15T13:04:42Z</time>
      </trkpt>
      <trkpt lat="45.97993" lon="6.55168">
        <ele>1653</ele>
        <time>2018-01-15T13:04:43Z</time>
      </trkpt>
      <trkpt lat="45.97995" lon="6.55175">
        <ele>1655</ele>
        <time>2018-01-15T13:04:50Z</time>
      </trkpt>
      <trkpt lat="45.97996" lon="6.55177">
        <ele>1657</ele>
        <time>2018-01-15T13:04:52Z</time>
      </trkpt>
      <trkpt lat="45.97996" lon="6.5519">
        <ele>1664</ele>
        <time>2018-01-15T13:05:09Z</time>
      </trkpt>
      <trkpt lat="45.9799" lon="6.55199">
        <ele>1669</ele>
        <time>2018-01-15T13:05:31Z</time>
      </trkpt>
      <trkpt lat="45.97981" lon="6.55199">
        <ele>1671</ele>
        <time>2018-01-15T13:05:47Z</time>
      </trkpt>
      <trkpt lat="45.97983" lon="6.55199">
        <ele>1670</ele>
        <time>2018-01-15T13:05:59Z</time>
      </trkpt>
      <trkpt lat="45.97974" lon="6.55198">
        <ele>1672</ele>
        <time>2018-01-15T13:06:17Z</time>
      </trkpt>
      <trkpt lat="45.97972" lon="6.55198">
        <ele>1672</ele>
        <time>2018-01-15T13:06:18Z</time>
      </trkpt>
      <trkpt lat="45.97962" lon="6.55201">
        <ele>1675</ele>
        <time>2018-01-15T13:06:32Z</time>
      </trkpt>
      <trkpt lat="45.97962" lon="6.55204">
        <ele>1676</ele>
        <time>2018-01-15T13:06:36Z</time>
      </trkpt>
      <trkpt lat="45.9796" lon="6.55204">
        <ele>1676</ele>
        <time>2018-01-15T13:06:44Z</time>
      </trkpt>
      <trkpt lat="45.9796" lon="6.55205">
        <ele>1676</ele>
        <time>2018-01-15T13:06:50Z</time>
      </trkpt>
      <trkpt lat="45.97961" lon="6.55212">
        <ele>1677</ele>
        <time>2018-01-15T13:07:04Z</time>
      </trkpt>
      <trkpt lat="45.9796" lon="6.55211">
        <ele>1677</ele>
        <time>2018-01-15T13:07:05Z</time>
      </trkpt>
      <trkpt lat="45.97959" lon="6.55211">
        <ele>1677</ele>
        <time>2018-01-15T13:07:06Z</time>
      </trkpt>
      <trkpt lat="45.97949" lon="6.55196">
        <ele>1677</ele>
        <time>2018-01-15T13:07:23Z</time>
      </trkpt>
      <trkpt lat="45.97948" lon="6.5519">
        <ele>1676</ele>
        <time>2018-01-15T13:07:37Z</time>
      </trkpt>
      <trkpt lat="45.97949" lon="6.55176">
        <ele>1675</ele>
        <time>2018-01-15T13:07:58Z</time>
      </trkpt>
      <trkpt lat="45.97945" lon="6.55174">
        <ele>1676</ele>
        <time>2018-01-15T13:08:07Z</time>
      </trkpt>
      <trkpt lat="45.97943" lon="6.55177">
        <ele>1676</ele>
        <time>2018-01-15T13:08:25Z</time>
      </trkpt>
      <trkpt lat="45.97944" lon="6.55189">
        <ele>1677</ele>
        <time>2018-01-15T13:08:48Z</time>
      </trkpt>
      <trkpt lat="45.97943" lon="6.55184">
        <ele>1677</ele>
        <time>2018-01-15T13:09:00Z</time>
      </trkpt>
      <trkpt lat="45.97937" lon="6.55177">
        <ele>1677</ele>
        <time>2018-01-15T13:09:27Z</time>
      </trkpt>
      <trkpt lat="45.97933" lon="6.55172">
        <ele>1678</ele>
        <time>2018-01-15T13:09:52Z</time>
      </trkpt>
      <trkpt lat="45.97932" lon="6.55171">
        <ele>1678</ele>
        <time>2018-01-15T13:09:59Z</time>
      </trkpt>
      <trkpt lat="45.97937" lon="6.55185">
        <ele>1678</ele>
        <time>2018-01-15T13:10:30Z</time>
      </trkpt>
      <trkpt lat="45.97935" lon="6.55186">
        <ele>1678</ele>
        <time>2018-01-15T13:10:42Z</time>
      </trkpt>
      <trkpt lat="45.97928" lon="6.55185">
        <ele>1679</ele>
        <time>2018-01-15T13:11:12Z</time>
      </trkpt>
      <trkpt lat="45.97923" lon="6.55185">
        <ele>1679</ele>
        <time>2018-01-15T13:11:20Z</time>
      </trkpt>
      <trkpt lat="45.97922" lon="6.55186">
        <ele>1680</ele>
        <time>2018-01-15T13:11:22Z</time>
      </trkpt>
      <trkpt lat="45.97921" lon="6.55187">
        <ele>1680</ele>
        <time>2018-01-15T13:11:24Z</time>
      </trkpt>
      <trkpt lat="45.97925" lon="6.55199">
        <ele>1681</ele>
        <time>2018-01-15T13:11:39Z</time>
      </trkpt>
      <trkpt lat="45.97927" lon="6.55204">
        <ele>1682</ele>
        <time>2018-01-15T13:11:45Z</time>
      </trkpt>
      <trkpt lat="45.97929" lon="6.5521">
        <ele>1683</ele>
        <time>2018-01-15T13:11:53Z</time>
      </trkpt>
      <trkpt lat="45.97931" lon="6.55216">
        <ele>1684</ele>
        <time>2018-01-15T13:12:01Z</time>
      </trkpt>
      <trkpt lat="45.9793" lon="6.55217">
        <ele>1685</ele>
        <time>2018-01-15T13:12:02Z</time>
      </trkpt>
      <trkpt lat="45.9793" lon="6.55218">
        <ele>1685</ele>
        <time>2018-01-15T13:12:03Z</time>
      </trkpt>
      <trkpt lat="45.97925" lon="6.55219">
        <ele>1686</ele>
        <time>2018-01-15T13:12:13Z</time>
      </trkpt>
      <trkpt lat="45.97916" lon="6.55219">
        <ele>1711</ele>
        <time>2018-01-15T13:12:30Z</time>
      </trkpt>
      <trkpt lat="45.97912" lon="6.55223">
        <ele>1712</ele>
        <time>2018-01-15T13:12:54Z</time>
      </trkpt>
      <trkpt lat="45.97917" lon="6.55234">
        <ele>1694</ele>
        <time>2018-01-15T13:13:08Z</time>
      </trkpt>
      <trkpt lat="45.97922" lon="6.55246">
        <ele>1702</ele>
        <time>2018-01-15T13:13:22Z</time>
      </trkpt>
      <trkpt lat="45.97923" lon="6.55254">
        <ele>1708</ele>
        <time>2018-01-15T13:13:30Z</time>
      </trkpt>
      <trkpt lat="45.97925" lon="6.55265">
        <ele>1708</ele>
        <time>2018-01-15T13:13:41Z</time>
      </trkpt>
      <trkpt lat="45.97926" lon="6.55267">
        <ele>1708</ele>
        <time>2018-01-15T13:13:43Z</time>
      </trkpt>
      <trkpt lat="45.97933" lon="6.55284">
        <ele>1710</ele>
        <time>2018-01-15T13:14:03Z</time>
      </trkpt>
      <trkpt lat="45.97933" lon="6.55286">
        <ele>1710</ele>
        <time>2018-01-15T13:14:05Z</time>
      </trkpt>
      <trkpt lat="45.97935" lon="6.55292">
        <ele>1711</ele>
        <time>2018-01-15T13:14:12Z</time>
      </trkpt>
      <trkpt lat="45.97932" lon="6.55296">
        <ele>1712</ele>
        <time>2018-01-15T13:14:16Z</time>
      </trkpt>
      <trkpt lat="45.97924" lon="6.55298">
        <ele>1714</ele>
        <time>2018-01-15T13:14:27Z</time>
      </trkpt>
      <trkpt lat="45.97923" lon="6.55298">
        <ele>1715</ele>
        <time>2018-01-15T13:14:29Z</time>
      </trkpt>
      <trkpt lat="45.97921" lon="6.55298">
        <ele>1715</ele>
        <time>2018-01-15T13:14:31Z</time>
      </trkpt>
      <trkpt lat="45.97911" lon="6.55294">
        <ele>1741</ele>
        <time>2018-01-15T13:14:47Z</time>
      </trkpt>
      <trkpt lat="45.97907" lon="6.55295">
        <ele>1741</ele>
        <time>2018-01-15T13:14:52Z</time>
      </trkpt>
      <trkpt lat="45.979" lon="6.55293">
        <ele>1742</ele>
        <time>2018-01-15T13:15:06Z</time>
      </trkpt>
      <trkpt lat="45.97894" lon="6.55288">
        <ele>1742</ele>
        <time>2018-01-15T13:15:19Z</time>
      </trkpt>
      <trkpt lat="45.97885" lon="6.55281">
        <ele>1743</ele>
        <time>2018-01-15T13:15:38Z</time>
      </trkpt>
      <trkpt lat="45.97884" lon="6.55287">
        <ele>1744</ele>
        <time>2018-01-15T13:15:51Z</time>
      </trkpt>
      <trkpt lat="45.97886" lon="6.55304">
        <ele>1747</ele>
        <time>2018-01-15T13:16:11Z</time>
      </trkpt>
      <trkpt lat="45.97888" lon="6.55318">
        <ele>1748</ele>
        <time>2018-01-15T13:16:35Z</time>
      </trkpt>
      <trkpt lat="45.97879" lon="6.55311">
        <ele>1750</ele>
        <time>2018-01-15T13:16:56Z</time>
      </trkpt>
      <trkpt lat="45.97869" lon="6.553">
        <ele>1751</ele>
        <time>2018-01-15T13:17:19Z</time>
      </trkpt>
      <trkpt lat="45.97865" lon="6.5529">
        <ele>1750</ele>
        <time>2018-01-15T13:17:37Z</time>
      </trkpt>
      <trkpt lat="45.97864" lon="6.55288">
        <ele>1750</ele>
        <time>2018-01-15T13:17:39Z</time>
      </trkpt>
      <trkpt lat="45.97856" lon="6.55278">
        <ele>1750</ele>
        <time>2018-01-15T13:17:56Z</time>
      </trkpt>
      <trkpt lat="45.97848" lon="6.55275">
        <ele>1751</ele>
        <time>2018-01-15T13:18:11Z</time>
      </trkpt>
      <trkpt lat="45.97839" lon="6.55276">
        <ele>1752</ele>
        <time>2018-01-15T13:18:30Z</time>
      </trkpt>
      <trkpt lat="45.97832" lon="6.55275">
        <ele>1778</ele>
        <time>2018-01-15T13:18:42Z</time>
      </trkpt>
      <trkpt lat="45.97822" lon="6.55275">
        <ele>1780</ele>
        <time>2018-01-15T13:19:01Z</time>
      </trkpt>
      <trkpt lat="45.97824" lon="6.55281">
        <ele>1782</ele>
        <time>2018-01-15T13:19:09Z</time>
      </trkpt>
      <trkpt lat="45.97828" lon="6.55292">
        <ele>1785</ele>
        <time>2018-01-15T13:19:22Z</time>
      </trkpt>
      <trkpt lat="45.97831" lon="6.55298">
        <ele>1786</ele>
        <time>2018-01-15T13:19:28Z</time>
      </trkpt>
      <trkpt lat="45.97834" lon="6.55302">
        <ele>1760</ele>
        <time>2018-01-15T13:19:34Z</time>
      </trkpt>
      <trkpt lat="45.97837" lon="6.55312">
        <ele>1765</ele>
        <time>2018-01-15T13:19:49Z</time>
      </trkpt>
      <trkpt lat="45.97841" lon="6.55318">
        <ele>1767</ele>
        <time>2018-01-15T13:20:00Z</time>
      </trkpt>
      <trkpt lat="45.97836" lon="6.55322">
        <ele>1772</ele>
        <time>2018-01-15T13:20:17Z</time>
      </trkpt>
      <trkpt lat="45.97836" lon="6.55326">
        <ele>1775</ele>
        <time>2018-01-15T13:20:23Z</time>
      </trkpt>
      <trkpt lat="45.9784" lon="6.55334">
        <ele>1783</ele>
        <time>2018-01-15T13:20:40Z</time>
      </trkpt>
      <trkpt lat="45.97846" lon="6.55346">
        <ele>1781</ele>
        <time>2018-01-15T13:20:58Z</time>
      </trkpt>
      <trkpt lat="45.97848" lon="6.55358">
        <ele>1780</ele>
        <time>2018-01-15T13:21:12Z</time>
      </trkpt>
      <trkpt lat="45.9784" lon="6.55364">
        <ele>1782</ele>
        <time>2018-01-15T13:21:30Z</time>
      </trkpt>
      <trkpt lat="45.97838" lon="6.55365">
        <ele>1782</ele>
        <time>2018-01-15T13:21:33Z</time>
      </trkpt>
      <trkpt lat="45.97837" lon="6.55374">
        <ele>1783</ele>
        <time>2018-01-15T13:21:52Z</time>
      </trkpt>
      <trkpt lat="45.97841" lon="6.55385">
        <ele>1786</ele>
        <time>2018-01-15T13:22:05Z</time>
      </trkpt>
      <trkpt lat="45.97846" lon="6.55398">
        <ele>1789</ele>
        <time>2018-01-15T13:22:23Z</time>
      </trkpt>
      <trkpt lat="45.97845" lon="6.55404">
        <ele>1792</ele>
        <time>2018-01-15T13:22:31Z</time>
      </trkpt>
      <trkpt lat="45.97835" lon="6.55412">
        <ele>1802</ele>
        <time>2018-01-15T13:22:49Z</time>
      </trkpt>
      <trkpt lat="45.97826" lon="6.55412">
        <ele>1811</ele>
        <time>2018-01-15T13:23:05Z</time>
      </trkpt>
      <trkpt lat="45.97824" lon="6.55416">
        <ele>1811</ele>
        <time>2018-01-15T13:23:10Z</time>
      </trkpt>
      <trkpt lat="45.97821" lon="6.55426">
        <ele>1821</ele>
        <time>2018-01-15T13:23:22Z</time>
      </trkpt>
      <trkpt lat="45.97818" lon="6.55434">
        <ele>1825</ele>
        <time>2018-01-15T13:23:34Z</time>
      </trkpt>
      <trkpt lat="45.97816" lon="6.55438">
        <ele>1827</ele>
        <time>2018-01-15T13:23:39Z</time>
      </trkpt>
      <trkpt lat="45.97812" lon="6.55446">
        <ele>1830</ele>
        <time>2018-01-15T13:23:51Z</time>
      </trkpt>
      <trkpt lat="45.97809" lon="6.55446">
        <ele>1831</ele>
        <time>2018-01-15T13:23:55Z</time>
      </trkpt>
      <trkpt lat="45.97805" lon="6.55444">
        <ele>1831</ele>
        <time>2018-01-15T13:24:01Z</time>
      </trkpt>
      <trkpt lat="45.97797" lon="6.5544">
        <ele>1833</ele>
        <time>2018-01-15T13:24:15Z</time>
      </trkpt>
      <trkpt lat="45.97788" lon="6.55433">
        <ele>1835</ele>
        <time>2018-01-15T13:24:31Z</time>
      </trkpt>
      <trkpt lat="45.97781" lon="6.55422">
        <ele>1837</ele>
        <time>2018-01-15T13:24:46Z</time>
      </trkpt>
      <trkpt lat="45.97777" lon="6.55417">
        <ele>1838</ele>
        <time>2018-01-15T13:24:54Z</time>
      </trkpt>
      <trkpt lat="45.97769" lon="6.55412">
        <ele>1831</ele>
        <time>2018-01-15T13:25:09Z</time>
      </trkpt>
      <trkpt lat="45.97768" lon="6.55417">
        <ele>1841</ele>
        <time>2018-01-15T13:25:16Z</time>
      </trkpt>
      <trkpt lat="45.97769" lon="6.55423">
        <ele>1840</ele>
        <time>2018-01-15T13:25:22Z</time>
      </trkpt>
      <trkpt lat="45.97769" lon="6.55428">
        <ele>1840</ele>
        <time>2018-01-15T13:25:27Z</time>
      </trkpt>
      <trkpt lat="45.97768" lon="6.5543">
        <ele>1840</ele>
        <time>2018-01-15T13:25:29Z</time>
      </trkpt>
      <trkpt lat="45.97768" lon="6.55437">
        <ele>1840</ele>
        <time>2018-01-15T13:25:37Z</time>
      </trkpt>
      <trkpt lat="45.97765" lon="6.55446">
        <ele>1841</ele>
        <time>2018-01-15T13:25:48Z</time>
      </trkpt>
      <trkpt lat="45.97764" lon="6.55448">
        <ele>1841</ele>
        <time>2018-01-15T13:25:50Z</time>
      </trkpt>
      <trkpt lat="45.97761" lon="6.55457">
        <ele>1843</ele>
        <time>2018-01-15T13:25:59Z</time>
      </trkpt>
      <trkpt lat="45.97759" lon="6.55466">
        <ele>1845</ele>
        <time>2018-01-15T13:26:09Z</time>
      </trkpt>
      <trkpt lat="45.97754" lon="6.55478">
        <ele>1849</ele>
        <time>2018-01-15T13:26:24Z</time>
      </trkpt>
      <trkpt lat="45.97748" lon="6.55469">
        <ele>1871</ele>
        <time>2018-01-15T13:26:37Z</time>
      </trkpt>
      <trkpt lat="45.9774" lon="6.55462">
        <ele>1872</ele>
        <time>2018-01-15T13:26:51Z</time>
      </trkpt>
      <trkpt lat="45.97737" lon="6.5546">
        <ele>1872</ele>
        <time>2018-01-15T13:26:57Z</time>
      </trkpt>
      <trkpt lat="45.97735" lon="6.55463">
        <ele>1873</ele>
        <time>2018-01-15T13:27:07Z</time>
      </trkpt>
      <trkpt lat="45.97737" lon="6.55479">
        <ele>1873</ele>
        <time>2018-01-15T13:27:25Z</time>
      </trkpt>
      <trkpt lat="45.97735" lon="6.55489">
        <ele>1873</ele>
        <time>2018-01-15T13:27:38Z</time>
      </trkpt>
      <trkpt lat="45.97729" lon="6.55485">
        <ele>1875</ele>
        <time>2018-01-15T13:27:52Z</time>
      </trkpt>
      <trkpt lat="45.97726" lon="6.55484">
        <ele>1875</ele>
        <time>2018-01-15T13:27:56Z</time>
      </trkpt>
      <trkpt lat="45.97723" lon="6.55489">
        <ele>1876</ele>
        <time>2018-01-15T13:28:09Z</time>
      </trkpt>
      <trkpt lat="45.97723" lon="6.55493">
        <ele>1876</ele>
        <time>2018-01-15T13:28:13Z</time>
      </trkpt>
      <trkpt lat="45.97722" lon="6.55496">
        <ele>1877</ele>
        <time>2018-01-15T13:28:24Z</time>
      </trkpt>
      <trkpt lat="45.97714" lon="6.55488">
        <ele>1879</ele>
        <time>2018-01-15T13:28:44Z</time>
      </trkpt>
      <trkpt lat="45.97709" lon="6.55475">
        <ele>1880</ele>
        <time>2018-01-15T13:29:08Z</time>
      </trkpt>
      <trkpt lat="45.97704" lon="6.55464">
        <ele>1880</ele>
        <time>2018-01-15T13:29:25Z</time>
      </trkpt>
      <trkpt lat="45.97697" lon="6.5546">
        <ele>1881</ele>
        <time>2018-01-15T13:29:41Z</time>
      </trkpt>
      <trkpt lat="45.97692" lon="6.55465">
        <ele>1883</ele>
        <time>2018-01-15T13:29:53Z</time>
      </trkpt>
      <trkpt lat="45.97691" lon="6.55475">
        <ele>1886</ele>
        <time>2018-01-15T13:30:05Z</time>
      </trkpt>
      <trkpt lat="45.9769" lon="6.5549">
        <ele>1889</ele>
        <time>2018-01-15T13:30:22Z</time>
      </trkpt>
      <trkpt lat="45.9769" lon="6.55499">
        <ele>1891</ele>
        <time>2018-01-15T13:30:32Z</time>
      </trkpt>
      <trkpt lat="45.97689" lon="6.55511">
        <ele>1902</ele>
        <time>2018-01-15T13:30:46Z</time>
      </trkpt>
      <trkpt lat="45.97689" lon="6.55513">
        <ele>1902</ele>
        <time>2018-01-15T13:30:48Z</time>
      </trkpt>
      <trkpt lat="45.97689" lon="6.55519">
        <ele>1902</ele>
        <time>2018-01-15T13:30:54Z</time>
      </trkpt>
      <trkpt lat="45.9769" lon="6.55525">
        <ele>1902</ele>
        <time>2018-01-15T13:31:00Z</time>
      </trkpt>
      <trkpt lat="45.9769" lon="6.55535">
        <ele>1903</ele>
        <time>2018-01-15T13:31:14Z</time>
      </trkpt>
      <trkpt lat="45.9769" lon="6.5554">
        <ele>1904</ele>
        <time>2018-01-15T13:31:19Z</time>
      </trkpt>
      <trkpt lat="45.97691" lon="6.55544">
        <ele>1905</ele>
        <time>2018-01-15T13:31:23Z</time>
      </trkpt>
      <trkpt lat="45.97692" lon="6.55548">
        <ele>1905</ele>
        <time>2018-01-15T13:31:28Z</time>
      </trkpt>
      <trkpt lat="45.97693" lon="6.5555">
        <ele>1905</ele>
        <time>2018-01-15T13:31:30Z</time>
      </trkpt>
      <trkpt lat="45.97694" lon="6.55553">
        <ele>1906</ele>
        <time>2018-01-15T13:31:34Z</time>
      </trkpt>
      <trkpt lat="45.97698" lon="6.55566">
        <ele>1907</ele>
        <time>2018-01-15T13:31:50Z</time>
      </trkpt>
      <trkpt lat="45.977" lon="6.55575">
        <ele>1907</ele>
        <time>2018-01-15T13:31:59Z</time>
      </trkpt>
      <trkpt lat="45.97703" lon="6.55585">
        <ele>1923</ele>
        <time>2018-01-15T13:32:13Z</time>
      </trkpt>
      <trkpt lat="45.97706" lon="6.55597">
        <ele>1924</ele>
        <time>2018-01-15T13:32:28Z</time>
      </trkpt>
      <trkpt lat="45.97704" lon="6.55598">
        <ele>1924</ele>
        <time>2018-01-15T13:32:30Z</time>
      </trkpt>
      <trkpt lat="45.97694" lon="6.55598">
        <ele>1927</ele>
        <time>2018-01-15T13:32:46Z</time>
      </trkpt>
      <trkpt lat="45.97685" lon="6.556">
        <ele>1929</ele>
        <time>2018-01-15T13:33:00Z</time>
      </trkpt>
      <trkpt lat="45.97676" lon="6.55602">
        <ele>1931</ele>
        <time>2018-01-15T13:33:16Z</time>
      </trkpt>
      <trkpt lat="45.97676" lon="6.55608">
        <ele>1931</ele>
        <time>2018-01-15T13:33:31Z</time>
      </trkpt>
      <trkpt lat="45.9768" lon="6.55622">
        <ele>1933</ele>
        <time>2018-01-15T13:33:48Z</time>
      </trkpt>
      <trkpt lat="45.97684" lon="6.55632">
        <ele>1935</ele>
        <time>2018-01-15T13:34:02Z</time>
      </trkpt>
      <trkpt lat="45.97684" lon="6.55639">
        <ele>1937</ele>
        <time>2018-01-15T13:34:20Z</time>
      </trkpt>
      <trkpt lat="45.97683" lon="6.55639">
        <ele>1937</ele>
        <time>2018-01-15T13:34:21Z</time>
      </trkpt>
      <trkpt lat="45.97671" lon="6.55637">
        <ele>1939</ele>
        <time>2018-01-15T13:34:40Z</time>
      </trkpt>
      <trkpt lat="45.97663" lon="6.55634">
        <ele>1967</ele>
        <time>2018-01-15T13:34:54Z</time>
      </trkpt>
      <trkpt lat="45.97656" lon="6.55629">
        <ele>1967</ele>
        <time>2018-01-15T13:35:08Z</time>
      </trkpt>
      <trkpt lat="45.97646" lon="6.55627">
        <ele>1969</ele>
        <time>2018-01-15T13:35:23Z</time>
      </trkpt>
      <trkpt lat="45.97638" lon="6.55627">
        <ele>1971</ele>
        <time>2018-01-15T13:35:36Z</time>
      </trkpt>
      <trkpt lat="45.97631" lon="6.55624">
        <ele>1973</ele>
        <time>2018-01-15T13:35:51Z</time>
      </trkpt>
      <trkpt lat="45.97631" lon="6.55635">
        <ele>1974</ele>
        <time>2018-01-15T13:36:06Z</time>
      </trkpt>
      <trkpt lat="45.97636" lon="6.55648">
        <ele>1974</ele>
        <time>2018-01-15T13:36:23Z</time>
      </trkpt>
      <trkpt lat="45.97639" lon="6.55658">
        <ele>1973</ele>
        <time>2018-01-15T13:36:37Z</time>
      </trkpt>
      <trkpt lat="45.97635" lon="6.55663">
        <ele>1975</ele>
        <time>2018-01-15T13:36:53Z</time>
      </trkpt>
      <trkpt lat="45.97628" lon="6.5566">
        <ele>1978</ele>
        <time>2018-01-15T13:37:06Z</time>
      </trkpt>
      <trkpt lat="45.97621" lon="6.55657">
        <ele>1980</ele>
        <time>2018-01-15T13:37:21Z</time>
      </trkpt>
      <trkpt lat="45.97619" lon="6.55662">
        <ele>1982</ele>
        <time>2018-01-15T13:37:39Z</time>
      </trkpt>
      <trkpt lat="45.9762" lon="6.55674">
        <ele>1997</ele>
        <time>2018-01-15T13:37:55Z</time>
      </trkpt>
      <trkpt lat="45.97624" lon="6.55684">
        <ele>1997</ele>
        <time>2018-01-15T13:38:07Z</time>
      </trkpt>
      <trkpt lat="45.9763" lon="6.55698">
        <ele>1997</ele>
        <time>2018-01-15T13:38:27Z</time>
      </trkpt>
      <trkpt lat="45.97639" lon="6.55709">
        <ele>1996</ele>
        <time>2018-01-15T13:38:46Z</time>
      </trkpt>
      <trkpt lat="45.97644" lon="6.55718">
        <ele>1996</ele>
        <time>2018-01-15T13:39:01Z</time>
      </trkpt>
      <trkpt lat="45.9765" lon="6.55726">
        <ele>1996</ele>
        <time>2018-01-15T13:39:16Z</time>
      </trkpt>
      <trkpt lat="45.97654" lon="6.55736">
        <ele>1995</ele>
        <time>2018-01-15T13:39:33Z</time>
      </trkpt>
      <trkpt lat="45.97646" lon="6.55739">
        <ele>1997</ele>
        <time>2018-01-15T13:39:50Z</time>
      </trkpt>
      <trkpt lat="45.97638" lon="6.55743">
        <ele>2000</ele>
        <time>2018-01-15T13:40:01Z</time>
      </trkpt>
      <trkpt lat="45.97637" lon="6.55743">
        <ele>2000</ele>
        <time>2018-01-15T13:40:02Z</time>
      </trkpt>
      <trkpt lat="45.97636" lon="6.55743">
        <ele>2000</ele>
        <time>2018-01-15T13:40:03Z</time>
      </trkpt>
      <trkpt lat="45.97628" lon="6.55745">
        <ele>2003</ele>
        <time>2018-01-15T13:40:13Z</time>
      </trkpt>
      <trkpt lat="45.97618" lon="6.55745">
        <ele>2007</ele>
        <time>2018-01-15T13:40:31Z</time>
      </trkpt>
      <trkpt lat="45.97613" lon="6.55744">
        <ele>2009</ele>
        <time>2018-01-15T13:40:42Z</time>
      </trkpt>
      <trkpt lat="45.97606" lon="6.55743">
        <ele>2013</ele>
        <time>2018-01-15T13:40:56Z</time>
      </trkpt>
      <trkpt lat="45.97597" lon="6.55743">
        <ele>2018</ele>
        <time>2018-01-15T13:41:12Z</time>
      </trkpt>
      <trkpt lat="45.97587" lon="6.55744">
        <ele>2025</ele>
        <time>2018-01-15T13:41:27Z</time>
      </trkpt>
      <trkpt lat="45.97584" lon="6.55744">
        <ele>2027</ele>
        <time>2018-01-15T13:41:37Z</time>
      </trkpt>
      <trkpt lat="45.97587" lon="6.55759">
        <ele>2030</ele>
        <time>2018-01-15T13:41:56Z</time>
      </trkpt>
      <trkpt lat="45.9759" lon="6.5577">
        <ele>2028</ele>
        <time>2018-01-15T13:42:09Z</time>
      </trkpt>
      <trkpt lat="45.9759" lon="6.55775">
        <ele>2028</ele>
        <time>2018-01-15T13:42:15Z</time>
      </trkpt>
      <trkpt lat="45.9759" lon="6.55777">
        <ele>2028</ele>
        <time>2018-01-15T13:42:17Z</time>
      </trkpt>
      <trkpt lat="45.9759" lon="6.55778">
        <ele>2028</ele>
        <time>2018-01-15T13:42:18Z</time>
      </trkpt>
      <trkpt lat="45.97577" lon="6.55774">
        <ele>2057</ele>
        <time>2018-01-15T13:42:41Z</time>
      </trkpt>
      <trkpt lat="45.97573" lon="6.55772">
        <ele>2057</ele>
        <time>2018-01-15T13:42:49Z</time>
      </trkpt>
      <trkpt lat="45.97568" lon="6.5577">
        <ele>2058</ele>
        <time>2018-01-15T13:43:03Z</time>
      </trkpt>
      <trkpt lat="45.97569" lon="6.55777">
        <ele>2060</ele>
        <time>2018-01-15T13:43:15Z</time>
      </trkpt>
      <trkpt lat="45.97574" lon="6.55792">
        <ele>2063</ele>
        <time>2018-01-15T13:43:33Z</time>
      </trkpt>
      <trkpt lat="45.97572" lon="6.55809">
        <ele>2063</ele>
        <time>2018-01-15T13:43:51Z</time>
      </trkpt>
      <trkpt lat="45.97572" lon="6.55812">
        <ele>2063</ele>
        <time>2018-01-15T13:43:53Z</time>
      </trkpt>
      <trkpt lat="45.97573" lon="6.55817">
        <ele>2062</ele>
        <time>2018-01-15T13:43:59Z</time>
      </trkpt>
      <trkpt lat="45.97573" lon="6.55826">
        <ele>2059</ele>
        <time>2018-01-15T13:44:08Z</time>
      </trkpt>
      <trkpt lat="45.97573" lon="6.55831">
        <ele>2058</ele>
        <time>2018-01-15T13:44:12Z</time>
      </trkpt>
      <trkpt lat="45.97574" lon="6.55833">
        <ele>2058</ele>
        <time>2018-01-15T13:44:14Z</time>
      </trkpt>
      <trkpt lat="45.97575" lon="6.55835">
        <ele>2063</ele>
        <time>2018-01-15T13:44:16Z</time>
      </trkpt>
      <trkpt lat="45.97575" lon="6.55837">
        <ele>2063</ele>
        <time>2018-01-15T13:44:18Z</time>
      </trkpt>
      <trkpt lat="45.97577" lon="6.55849">
        <ele>2070</ele>
        <time>2018-01-15T13:44:32Z</time>
      </trkpt>
      <trkpt lat="45.9758" lon="6.55854">
        <ele>2072</ele>
        <time>2018-01-15T13:44:39Z</time>
      </trkpt>
      <trkpt lat="45.97587" lon="6.55866">
        <ele>2047</ele>
        <time>2018-01-15T13:44:56Z</time>
      </trkpt>
      <trkpt lat="45.97591" lon="6.55878">
        <ele>2048</ele>
        <time>2018-01-15T13:45:18Z</time>
      </trkpt>
      <trkpt lat="45.97587" lon="6.55881">
        <ele>2049</ele>
        <time>2018-01-15T13:45:33Z</time>
      </trkpt>
      <trkpt lat="45.97586" lon="6.55882">
        <ele>2049</ele>
        <time>2018-01-15T13:45:42Z</time>
      </trkpt>
      <trkpt lat="45.97585" lon="6.55882">
        <ele>2049</ele>
        <time>2018-01-15T13:45:46Z</time>
      </trkpt>
      <trkpt lat="45.97585" lon="6.55883">
        <ele>2050</ele>
        <time>2018-01-15T13:45:50Z</time>
      </trkpt>
      <trkpt lat="45.97584" lon="6.55883">
        <ele>2050</ele>
        <time>2018-01-15T13:45:53Z</time>
      </trkpt>
      <trkpt lat="45.97585" lon="6.55883">
        <ele>2050</ele>
        <time>2018-01-15T13:45:56Z</time>
      </trkpt>
      <trkpt lat="45.97584" lon="6.55882">
        <ele>2049</ele>
        <time>2018-01-15T13:46:11Z</time>
      </trkpt>
      <trkpt lat="45.97584" lon="6.55882">
        <ele>2049</ele>
        <time>2018-01-15T13:46:13Z</time>
      </trkpt>
      <trkpt lat="45.97587" lon="6.5588">
        <ele>2049</ele>
        <time>2018-01-15T13:46:34Z</time>
      </trkpt>
      <trkpt lat="45.97587" lon="6.5588">
        <ele>2049</ele>
        <time>2018-01-15T13:46:42Z</time>
      </trkpt>
      <trkpt lat="45.97583" lon="6.55879">
        <ele>2049</ele>
        <time>2018-01-15T13:46:52Z</time>
      </trkpt>
      <trkpt lat="45.97582" lon="6.55878">
        <ele>2080</ele>
        <time>2018-01-15T13:46:53Z</time>
      </trkpt>
      <trkpt lat="45.9757" lon="6.55872">
        <ele>2082</ele>
        <time>2018-01-15T13:47:06Z</time>
      </trkpt>
      <trkpt lat="45.97567" lon="6.55869">
        <ele>2082</ele>
        <time>2018-01-15T13:47:10Z</time>
      </trkpt>
      <trkpt lat="45.97566" lon="6.55868">
        <ele>2082</ele>
        <time>2018-01-15T13:47:13Z</time>
      </trkpt>
      <trkpt lat="45.97564" lon="6.55866">
        <ele>2082</ele>
        <time>2018-01-15T13:47:16Z</time>
      </trkpt>
      <trkpt lat="45.97561" lon="6.55863">
        <ele>2082</ele>
        <time>2018-01-15T13:47:21Z</time>
      </trkpt>
      <trkpt lat="45.97557" lon="6.55858">
        <ele>2083</ele>
        <time>2018-01-15T13:47:32Z</time>
      </trkpt>
      <trkpt lat="45.97554" lon="6.55854">
        <ele>2083</ele>
        <time>2018-01-15T13:47:38Z</time>
      </trkpt>
      <trkpt lat="45.97552" lon="6.55853">
        <ele>2085</ele>
        <time>2018-01-15T13:47:42Z</time>
      </trkpt>
      <trkpt lat="45.97545" lon="6.55847">
        <ele>2087</ele>
        <time>2018-01-15T13:47:53Z</time>
      </trkpt>
      <trkpt lat="45.97543" lon="6.55846">
        <ele>2088</ele>
        <time>2018-01-15T13:47:55Z</time>
      </trkpt>
      <trkpt lat="45.97539" lon="6.55843">
        <ele>2090</ele>
        <time>2018-01-15T13:48:01Z</time>
      </trkpt>
      <trkpt lat="45.97539" lon="6.55841">
        <ele>2090</ele>
        <time>2018-01-15T13:48:03Z</time>
      </trkpt>
      <trkpt lat="45.97533" lon="6.55831">
        <ele>2081</ele>
        <time>2018-01-15T13:48:16Z</time>
      </trkpt>
      <trkpt lat="45.97532" lon="6.55828">
        <ele>2082</ele>
        <time>2018-01-15T13:48:20Z</time>
      </trkpt>
      <trkpt lat="45.9753" lon="6.55825">
        <ele>2082</ele>
        <time>2018-01-15T13:48:30Z</time>
      </trkpt>
      <trkpt lat="45.97529" lon="6.55815">
        <ele>2081</ele>
        <time>2018-01-15T13:48:49Z</time>
      </trkpt>
      <trkpt lat="45.97526" lon="6.55804">
        <ele>2080</ele>
        <time>2018-01-15T13:49:25Z</time>
      </trkpt>
      <trkpt lat="45.97524" lon="6.55798">
        <ele>2080</ele>
        <time>2018-01-15T13:49:46Z</time>
      </trkpt>
      <trkpt lat="45.97522" lon="6.55793">
        <ele>2079</ele>
        <time>2018-01-15T13:49:56Z</time>
      </trkpt>
      <trkpt lat="45.97522" lon="6.55793">
        <ele>2079</ele>
        <time>2018-01-15T13:49:57Z</time>
      </trkpt>
      <trkpt lat="45.97521" lon="6.55791">
        <ele>2079</ele>
        <time>2018-01-15T13:50:01Z</time>
      </trkpt>
      <trkpt lat="45.97517" lon="6.55782">
        <ele>2080</ele>
        <time>2018-01-15T13:50:16Z</time>
      </trkpt>
      <trkpt lat="45.97516" lon="6.5578">
        <ele>2080</ele>
        <time>2018-01-15T13:50:19Z</time>
      </trkpt>
      <trkpt lat="45.97515" lon="6.55779">
        <ele>2080</ele>
        <time>2018-01-15T13:50:21Z</time>
      </trkpt>
      <trkpt lat="45.97498" lon="6.5575">
        <ele>2094</ele>
        <time>2018-01-15T13:50:54Z</time>
      </trkpt>
      <trkpt lat="45.97497" lon="6.55747">
        <ele>2094</ele>
        <time>2018-01-15T13:50:56Z</time>
      </trkpt>
      <trkpt lat="45.97497" lon="6.55737">
        <ele>2096</ele>
        <time>2018-01-15T13:51:08Z</time>
      </trkpt>
      <trkpt lat="45.97499" lon="6.55732">
        <ele>2096</ele>
        <time>2018-01-15T13:51:15Z</time>
      </trkpt>
      <trkpt lat="45.97501" lon="6.55735">
        <ele>2075</ele>
        <time>2018-01-15T13:51:16Z</time>
      </trkpt>
      <trkpt lat="45.97504" lon="6.55741">
        <ele>2080</ele>
        <time>2018-01-15T13:51:18Z</time>
      </trkpt>
      <trkpt lat="45.97504" lon="6.55742">
        <ele>2081</ele>
        <time>2018-01-15T13:51:19Z</time>
      </trkpt>
      <trkpt lat="45.97504" lon="6.55742">
        <ele>2081</ele>
        <time>2018-01-15T13:51:20Z</time>
      </trkpt>
      <trkpt lat="45.97504" lon="6.55743">
        <ele>2082</ele>
        <time>2018-01-15T13:51:22Z</time>
      </trkpt>
      <trkpt lat="45.97504" lon="6.55744">
        <ele>2082</ele>
        <time>2018-01-15T13:51:23Z</time>
      </trkpt>
      <trkpt lat="45.97503" lon="6.55744">
        <ele>2083</ele>
        <time>2018-01-15T13:51:34Z</time>
      </trkpt>
      <trkpt lat="45.97502" lon="6.55742">
        <ele>2082</ele>
        <time>2018-01-15T13:51:38Z</time>
      </trkpt>
      <trkpt lat="45.97501" lon="6.55739">
        <ele>2079</ele>
        <time>2018-01-15T13:51:43Z</time>
      </trkpt>
      <trkpt lat="45.975" lon="6.55736">
        <ele>2076</ele>
        <time>2018-01-15T13:51:57Z</time>
      </trkpt>
      <trkpt lat="45.97501" lon="6.55729">
        <ele>2071</ele>
        <time>2018-01-15T13:52:11Z</time>
      </trkpt>
      <trkpt lat="45.97502" lon="6.55721">
        <ele>2067</ele>
        <time>2018-01-15T13:52:38Z</time>
      </trkpt>
      <trkpt lat="45.97503" lon="6.55721">
        <ele>2066</ele>
        <time>2018-01-15T13:52:39Z</time>
      </trkpt>
      <trkpt lat="45.97504" lon="6.55722">
        <ele>2067</ele>
        <time>2018-01-15T13:52:40Z</time>
      </trkpt>
      <trkpt lat="45.97507" lon="6.55724">
        <ele>2067</ele>
        <time>2018-01-15T13:52:41Z</time>
      </trkpt>
      <trkpt lat="45.97509" lon="6.55726">
        <ele>2067</ele>
        <time>2018-01-15T13:52:42Z</time>
      </trkpt>
      <trkpt lat="45.97511" lon="6.55726">
        <ele>2067</ele>
        <time>2018-01-15T13:52:43Z</time>
      </trkpt>
      <trkpt lat="45.97512" lon="6.55727">
        <ele>2067</ele>
        <time>2018-01-15T13:52:44Z</time>
      </trkpt>
      <trkpt lat="45.97513" lon="6.55728">
        <ele>2067</ele>
        <time>2018-01-15T13:52:46Z</time>
      </trkpt>
      <trkpt lat="45.97513" lon="6.5573">
        <ele>2068</ele>
        <time>2018-01-15T13:52:48Z</time>
      </trkpt>
      <trkpt lat="45.97513" lon="6.55731">
        <ele>2068</ele>
        <time>2018-01-15T13:52:51Z</time>
      </trkpt>
      <trkpt lat="45.97515" lon="6.5573">
        <ele>2067</ele>
        <time>2018-01-15T13:52:57Z</time>
      </trkpt>
      <trkpt lat="45.97515" lon="6.55732">
        <ele>2068</ele>
        <time>2018-01-15T13:53:02Z</time>
      </trkpt>
      <trkpt lat="45.97513" lon="6.55734">
        <ele>2070</ele>
        <time>2018-01-15T13:53:08Z</time>
      </trkpt>
      <trkpt lat="45.97513" lon="6.55734">
        <ele>2070</ele>
        <time>2018-01-15T13:53:14Z</time>
      </trkpt>
      <trkpt lat="45.97511" lon="6.55735">
        <ele>2071</ele>
        <time>2018-01-15T13:53:22Z</time>
      </trkpt>
      <trkpt lat="45.9751" lon="6.55739">
        <ele>2075</ele>
        <time>2018-01-15T13:53:27Z</time>
      </trkpt>
      <trkpt lat="45.97507" lon="6.55747">
        <ele>2082</ele>
        <time>2018-01-15T13:53:35Z</time>
      </trkpt>
      <trkpt lat="45.97501" lon="6.55753">
        <ele>2090</ele>
        <time>2018-01-15T13:54:00Z</time>
      </trkpt>
      <trkpt lat="45.97499" lon="6.55749">
        <ele>2093</ele>
        <time>2018-01-15T13:54:12Z</time>
      </trkpt>
      <trkpt lat="45.975" lon="6.5575">
        <ele>2094</ele>
        <time>2018-01-15T13:54:34Z</time>
      </trkpt>
      <trkpt lat="45.975" lon="6.55751">
        <ele>2094</ele>
        <time>2018-01-15T13:54:35Z</time>
      </trkpt>
      <trkpt lat="45.97497" lon="6.55755">
        <ele>2101</ele>
        <time>2018-01-15T13:54:46Z</time>
      </trkpt>
      <trkpt lat="45.97496" lon="6.55752">
        <ele>2099</ele>
        <time>2018-01-15T13:55:12Z</time>
      </trkpt>
      <trkpt lat="45.97496" lon="6.55752">
        <ele>2100</ele>
        <time>2018-01-15T13:55:21Z</time>
      </trkpt>
      <trkpt lat="45.97496" lon="6.55753">
        <ele>2100</ele>
        <time>2018-01-15T13:55:26Z</time>
      </trkpt>
      <trkpt lat="45.97496" lon="6.55753">
        <ele>2100</ele>
        <time>2018-01-15T13:55:29Z</time>
      </trkpt>
      <trkpt lat="45.97498" lon="6.55754">
        <ele>2100</ele>
        <time>2018-01-15T13:55:42Z</time>
      </trkpt>
      <trkpt lat="45.975" lon="6.55756">
        <ele>2101</ele>
        <time>2018-01-15T13:55:43Z</time>
      </trkpt>
      <trkpt lat="45.97502" lon="6.55758">
        <ele>2088</ele>
        <time>2018-01-15T13:55:44Z</time>
      </trkpt>
      <trkpt lat="45.97509" lon="6.55764">
        <ele>2084</ele>
        <time>2018-01-15T13:55:47Z</time>
      </trkpt>
      <trkpt lat="45.97513" lon="6.55769">
        <ele>2082</ele>
        <time>2018-01-15T13:55:50Z</time>
      </trkpt>
      <trkpt lat="45.97523" lon="6.55785">
        <ele>2078</ele>
        <time>2018-01-15T13:56:05Z</time>
      </trkpt>
      <trkpt lat="45.97523" lon="6.55788">
        <ele>2078</ele>
        <time>2018-01-15T13:56:12Z</time>
      </trkpt>
      <trkpt lat="45.97524" lon="6.55791">
        <ele>2079</ele>
        <time>2018-01-15T13:56:15Z</time>
      </trkpt>
      <trkpt lat="45.97524" lon="6.55792">
        <ele>2079</ele>
        <time>2018-01-15T13:56:16Z</time>
      </trkpt>
      <trkpt lat="45.97528" lon="6.55804">
        <ele>2079</ele>
        <time>2018-01-15T13:56:28Z</time>
      </trkpt>
      <trkpt lat="45.97533" lon="6.55815">
        <ele>2079</ele>
        <time>2018-01-15T13:56:34Z</time>
      </trkpt>
      <trkpt lat="45.97537" lon="6.55823">
        <ele>2078</ele>
        <time>2018-01-15T13:56:36Z</time>
      </trkpt>
      <trkpt lat="45.97544" lon="6.55833">
        <ele>2074</ele>
        <time>2018-01-15T13:56:38Z</time>
      </trkpt>
      <trkpt lat="45.97549" lon="6.55838">
        <ele>2084</ele>
        <time>2018-01-15T13:56:39Z</time>
      </trkpt>
      <trkpt lat="45.97553" lon="6.55843">
        <ele>2082</ele>
        <time>2018-01-15T13:56:40Z</time>
      </trkpt>
      <trkpt lat="45.97557" lon="6.55846">
        <ele>2080</ele>
        <time>2018-01-15T13:56:41Z</time>
      </trkpt>
      <trkpt lat="45.9756" lon="6.5585">
        <ele>2079</ele>
        <time>2018-01-15T13:56:42Z</time>
      </trkpt>
      <trkpt lat="45.97563" lon="6.55853">
        <ele>2078</ele>
        <time>2018-01-15T13:56:43Z</time>
      </trkpt>
      <trkpt lat="45.97566" lon="6.55856">
        <ele>2078</ele>
        <time>2018-01-15T13:56:44Z</time>
      </trkpt>
      <trkpt lat="45.97568" lon="6.55858">
        <ele>2078</ele>
        <time>2018-01-15T13:56:45Z</time>
      </trkpt>
      <trkpt lat="45.97579" lon="6.55874">
        <ele>2080</ele>
        <time>2018-01-15T13:57:01Z</time>
      </trkpt>
      <trkpt lat="45.97583" lon="6.55887">
        <ele>2081</ele>
        <time>2018-01-15T13:57:11Z</time>
      </trkpt>
      <trkpt lat="45.97585" lon="6.55895">
        <ele>2053</ele>
        <time>2018-01-15T13:57:18Z</time>
      </trkpt>
      <trkpt lat="45.97586" lon="6.55897">
        <ele>2054</ele>
        <time>2018-01-15T13:57:19Z</time>
      </trkpt>
      <trkpt lat="45.97591" lon="6.55919">
        <ele>2067</ele>
        <time>2018-01-15T13:57:41Z</time>
      </trkpt>
      <trkpt lat="45.97592" lon="6.55927">
        <ele>2066</ele>
        <time>2018-01-15T13:57:48Z</time>
      </trkpt>
      <trkpt lat="45.97593" lon="6.55945">
        <ele>2066</ele>
        <time>2018-01-15T13:58:03Z</time>
      </trkpt>
      <trkpt lat="45.97595" lon="6.55963">
        <ele>2068</ele>
        <time>2018-01-15T13:58:18Z</time>
      </trkpt>
      <trkpt lat="45.97598" lon="6.55974">
        <ele>2070</ele>
        <time>2018-01-15T13:58:27Z</time>
      </trkpt>
      <trkpt lat="45.97602" lon="6.56003">
        <ele>2084</ele>
        <time>2018-01-15T13:58:50Z</time>
      </trkpt>
      <trkpt lat="45.97603" lon="6.56019">
        <ele>2083</ele>
        <time>2018-01-15T13:59:03Z</time>
      </trkpt>
      <trkpt lat="45.97603" lon="6.56021">
        <ele>2083</ele>
        <time>2018-01-15T13:59:05Z</time>
      </trkpt>
      <trkpt lat="45.97604" lon="6.56024">
        <ele>2083</ele>
        <time>2018-01-15T13:59:08Z</time>
      </trkpt>
      <trkpt lat="45.97606" lon="6.56034">
        <ele>2083</ele>
        <time>2018-01-15T13:59:19Z</time>
      </trkpt>
      <trkpt lat="45.97607" lon="6.56039">
        <ele>2083</ele>
        <time>2018-01-15T13:59:24Z</time>
      </trkpt>
      <trkpt lat="45.97612" lon="6.56056">
        <ele>2084</ele>
        <time>2018-01-15T13:59:42Z</time>
      </trkpt>
      <trkpt lat="45.97614" lon="6.56064">
        <ele>2085</ele>
        <time>2018-01-15T13:59:51Z</time>
      </trkpt>
      <trkpt lat="45.97614" lon="6.56067">
        <ele>2085</ele>
        <time>2018-01-15T13:59:55Z</time>
      </trkpt>
      <trkpt lat="45.97614" lon="6.56069">
        <ele>2085</ele>
        <time>2018-01-15T13:59:57Z</time>
      </trkpt>
      <trkpt lat="45.97612" lon="6.56075">
        <ele>2087</ele>
        <time>2018-01-15T14:00:02Z</time>
      </trkpt>
      <trkpt lat="45.97611" lon="6.56076">
        <ele>2087</ele>
        <time>2018-01-15T14:00:03Z</time>
      </trkpt>
      <trkpt lat="45.97611" lon="6.56077">
        <ele>2087</ele>
        <time>2018-01-15T14:00:04Z</time>
      </trkpt>
      <trkpt lat="45.9761" lon="6.56078">
        <ele>2087</ele>
        <time>2018-01-15T14:00:05Z</time>
      </trkpt>
      <trkpt lat="45.97609" lon="6.56079">
        <ele>2088</ele>
        <time>2018-01-15T14:00:06Z</time>
      </trkpt>
      <trkpt lat="45.97603" lon="6.56099">
        <ele>2098</ele>
        <time>2018-01-15T14:00:18Z</time>
      </trkpt>
      <trkpt lat="45.97604" lon="6.56105">
        <ele>2098</ele>
        <time>2018-01-15T14:00:22Z</time>
      </trkpt>
      <trkpt lat="45.976" lon="6.56124">
        <ele>2099</ele>
        <time>2018-01-15T14:00:32Z</time>
      </trkpt>
      <trkpt lat="45.97603" lon="6.56142">
        <ele>2101</ele>
        <time>2018-01-15T14:00:37Z</time>
      </trkpt>
      <trkpt lat="45.97604" lon="6.56144">
        <ele>2101</ele>
        <time>2018-01-15T14:00:38Z</time>
      </trkpt>
      <trkpt lat="45.97607" lon="6.5615">
        <ele>2101</ele>
        <time>2018-01-15T14:00:48Z</time>
      </trkpt>
      <trkpt lat="45.97609" lon="6.56151">
        <ele>2101</ele>
        <time>2018-01-15T14:00:51Z</time>
      </trkpt>
      <trkpt lat="45.9761" lon="6.56152">
        <ele>2101</ele>
        <time>2018-01-15T14:00:53Z</time>
      </trkpt>
      <trkpt lat="45.97611" lon="6.56153">
        <ele>2101</ele>
        <time>2018-01-15T14:00:55Z</time>
      </trkpt>
      <trkpt lat="45.97613" lon="6.56156">
        <ele>2101</ele>
        <time>2018-01-15T14:01:00Z</time>
      </trkpt>
      <trkpt lat="45.97616" lon="6.56164">
        <ele>2101</ele>
        <time>2018-01-15T14:01:09Z</time>
      </trkpt>
      <trkpt lat="45.97618" lon="6.56168">
        <ele>2108</ele>
        <time>2018-01-15T14:01:15Z</time>
      </trkpt>
      <trkpt lat="45.9762" lon="6.56174">
        <ele>2108</ele>
        <time>2018-01-15T14:01:24Z</time>
      </trkpt>
      <trkpt lat="45.97622" lon="6.56178">
        <ele>2108</ele>
        <time>2018-01-15T14:01:32Z</time>
      </trkpt>
      <trkpt lat="45.97624" lon="6.5618">
        <ele>2108</ele>
        <time>2018-01-15T14:01:44Z</time>
      </trkpt>
      <trkpt lat="45.97627" lon="6.56186">
        <ele>2108</ele>
        <time>2018-01-15T14:01:49Z</time>
      </trkpt>
      <trkpt lat="45.97626" lon="6.56192">
        <ele>2108</ele>
        <time>2018-01-15T14:01:56Z</time>
      </trkpt>
      <trkpt lat="45.97625" lon="6.56203">
        <ele>2109</ele>
        <time>2018-01-15T14:02:08Z</time>
      </trkpt>
      <trkpt lat="45.97623" lon="6.56206">
        <ele>2109</ele>
        <time>2018-01-15T14:02:13Z</time>
      </trkpt>
      <trkpt lat="45.97623" lon="6.56215">
        <ele>2110</ele>
        <time>2018-01-15T14:02:22Z</time>
      </trkpt>
      <trkpt lat="45.97623" lon="6.56222">
        <ele>2110</ele>
        <time>2018-01-15T14:02:29Z</time>
      </trkpt>
      <trkpt lat="45.97623" lon="6.56231">
        <ele>2110</ele>
        <time>2018-01-15T14:02:41Z</time>
      </trkpt>
      <trkpt lat="45.97623" lon="6.56243">
        <ele>2111</ele>
        <time>2018-01-15T14:02:53Z</time>
      </trkpt>
      <trkpt lat="45.97622" lon="6.56257">
        <ele>2128</ele>
        <time>2018-01-15T14:03:07Z</time>
      </trkpt>
      <trkpt lat="45.97621" lon="6.5626">
        <ele>2129</ele>
        <time>2018-01-15T14:03:11Z</time>
      </trkpt>
      <trkpt lat="45.97622" lon="6.56263">
        <ele>2129</ele>
        <time>2018-01-15T14:03:13Z</time>
      </trkpt>
      <trkpt lat="45.97621" lon="6.56275">
        <ele>2132</ele>
        <time>2018-01-15T14:03:26Z</time>
      </trkpt>
      <trkpt lat="45.97618" lon="6.56294">
        <ele>2138</ele>
        <time>2018-01-15T14:03:47Z</time>
      </trkpt>
      <trkpt lat="45.97615" lon="6.56303">
        <ele>2141</ele>
        <time>2018-01-15T14:03:59Z</time>
      </trkpt>
      <trkpt lat="45.97614" lon="6.56308">
        <ele>2142</ele>
        <time>2018-01-15T14:04:05Z</time>
      </trkpt>
      <trkpt lat="45.97611" lon="6.56314">
        <ele>2145</ele>
        <time>2018-01-15T14:04:15Z</time>
      </trkpt>
      <trkpt lat="45.9761" lon="6.56321">
        <ele>2148</ele>
        <time>2018-01-15T14:04:27Z</time>
      </trkpt>
      <trkpt lat="45.97606" lon="6.56327">
        <ele>2151</ele>
        <time>2018-01-15T14:04:38Z</time>
      </trkpt>
      <trkpt lat="45.97601" lon="6.56332">
        <ele>2155</ele>
        <time>2018-01-15T14:04:51Z</time>
      </trkpt>
      <trkpt lat="45.97602" lon="6.56336">
        <ele>2185</ele>
        <time>2018-01-15T14:04:57Z</time>
      </trkpt>
      <trkpt lat="45.97602" lon="6.56342">
        <ele>2186</ele>
        <time>2018-01-15T14:05:07Z</time>
      </trkpt>
      <trkpt lat="45.97602" lon="6.56343">
        <ele>2187</ele>
        <time>2018-01-15T14:05:08Z</time>
      </trkpt>
      <trkpt lat="45.97588" lon="6.56351">
        <ele>2188</ele>
        <time>2018-01-15T14:05:35Z</time>
      </trkpt>
      <trkpt lat="45.97585" lon="6.56354">
        <ele>2190</ele>
        <time>2018-01-15T14:05:41Z</time>
      </trkpt>
      <trkpt lat="45.97586" lon="6.56355">
        <ele>2191</ele>
        <time>2018-01-15T14:05:44Z</time>
      </trkpt>
      <trkpt lat="45.97576" lon="6.56354">
        <ele>2212</ele>
        <time>2018-01-15T14:05:51Z</time>
      </trkpt>
      <trkpt lat="45.97577" lon="6.56355">
        <ele>2212</ele>
        <time>2018-01-15T14:05:52Z</time>
      </trkpt>
      <trkpt lat="45.97576" lon="6.56356">
        <ele>2214</ele>
        <time>2018-01-15T14:05:55Z</time>
      </trkpt>
      <trkpt lat="45.97578" lon="6.56365">
        <ele>2222</ele>
        <time>2018-01-15T14:06:11Z</time>
      </trkpt>
      <trkpt lat="45.97576" lon="6.56365">
        <ele>2222</ele>
        <time>2018-01-15T14:06:12Z</time>
      </trkpt>
      <trkpt lat="45.97577" lon="6.56368">
        <ele>2224</ele>
        <time>2018-01-15T14:06:14Z</time>
      </trkpt>
      <trkpt lat="45.97578" lon="6.56369">
        <ele>2224</ele>
        <time>2018-01-15T14:06:15Z</time>
      </trkpt>
      <trkpt lat="45.97583" lon="6.56389">
        <ele>2236</ele>
        <time>2018-01-15T14:06:38Z</time>
      </trkpt>
      <trkpt lat="45.97583" lon="6.56391">
        <ele>2237</ele>
        <time>2018-01-15T14:06:40Z</time>
      </trkpt>
      <trkpt lat="45.97583" lon="6.56393">
        <ele>2238</ele>
        <time>2018-01-15T14:06:43Z</time>
      </trkpt>
      <trkpt lat="45.97583" lon="6.56399">
        <ele>2241</ele>
        <time>2018-01-15T14:06:50Z</time>
      </trkpt>
      <trkpt lat="45.97582" lon="6.56402">
        <ele>2243</ele>
        <time>2018-01-15T14:06:54Z</time>
      </trkpt>
      <trkpt lat="45.97577" lon="6.56412">
        <ele>2247</ele>
        <time>2018-01-15T14:07:11Z</time>
      </trkpt>
      <trkpt lat="45.97568" lon="6.56434">
        <ele>2256</ele>
        <time>2018-01-15T14:07:40Z</time>
      </trkpt>
      <trkpt lat="45.97563" lon="6.56444">
        <ele>2257</ele>
        <time>2018-01-15T14:07:56Z</time>
      </trkpt>
      <trkpt lat="45.97557" lon="6.56453">
        <ele>2258</ele>
        <time>2018-01-15T14:08:09Z</time>
      </trkpt>
      <trkpt lat="45.9755" lon="6.56453">
        <ele>2258</ele>
        <time>2018-01-15T14:08:21Z</time>
      </trkpt>
      <trkpt lat="45.97549" lon="6.56453">
        <ele>2258</ele>
        <time>2018-01-15T14:08:22Z</time>
      </trkpt>
      <trkpt lat="45.97548" lon="6.56452">
        <ele>2258</ele>
        <time>2018-01-15T14:08:23Z</time>
      </trkpt>
      <trkpt lat="45.97541" lon="6.5645">
        <ele>2258</ele>
        <time>2018-01-15T14:08:34Z</time>
      </trkpt>
      <trkpt lat="45.9754" lon="6.5645">
        <ele>2258</ele>
        <time>2018-01-15T14:08:35Z</time>
      </trkpt>
      <trkpt lat="45.97527" lon="6.56446">
        <ele>2258</ele>
        <time>2018-01-15T14:08:54Z</time>
      </trkpt>
      <trkpt lat="45.97519" lon="6.56442">
        <ele>2259</ele>
        <time>2018-01-15T14:09:09Z</time>
      </trkpt>
      <trkpt lat="45.97516" lon="6.56441">
        <ele>2259</ele>
        <time>2018-01-15T14:09:13Z</time>
      </trkpt>
      <trkpt lat="45.97514" lon="6.5644">
        <ele>2259</ele>
        <time>2018-01-15T14:09:15Z</time>
      </trkpt>
      <trkpt lat="45.97513" lon="6.5644">
        <ele>2259</ele>
        <time>2018-01-15T14:09:16Z</time>
      </trkpt>
      <trkpt lat="45.97511" lon="6.56439">
        <ele>2259</ele>
        <time>2018-01-15T14:09:17Z</time>
      </trkpt>
      <trkpt lat="45.9751" lon="6.56439">
        <ele>2259</ele>
        <time>2018-01-15T14:09:18Z</time>
      </trkpt>
      <trkpt lat="45.97509" lon="6.56438">
        <ele>2259</ele>
        <time>2018-01-15T14:09:19Z</time>
      </trkpt>
      <trkpt lat="45.97503" lon="6.56436">
        <ele>2260</ele>
        <time>2018-01-15T14:09:35Z</time>
      </trkpt>
      <trkpt lat="45.97495" lon="6.56429">
        <ele>2263</ele>
        <time>2018-01-15T14:09:48Z</time>
      </trkpt>
      <trkpt lat="45.97492" lon="6.56425">
        <ele>2263</ele>
        <time>2018-01-15T14:09:54Z</time>
      </trkpt>
      <trkpt lat="45.97487" lon="6.56422">
        <ele>2263</ele>
        <time>2018-01-15T14:10:01Z</time>
      </trkpt>
      <trkpt lat="45.97485" lon="6.5642">
        <ele>2264</ele>
        <time>2018-01-15T14:10:07Z</time>
      </trkpt>
      <trkpt lat="45.9748" lon="6.56438">
        <ele>2263</ele>
        <time>2018-01-15T14:10:40Z</time>
      </trkpt>
      <trkpt lat="45.97477" lon="6.56452">
        <ele>2262</ele>
        <time>2018-01-15T14:11:00Z</time>
      </trkpt>
      <trkpt lat="45.97474" lon="6.5646">
        <ele>2262</ele>
        <time>2018-01-15T14:11:11Z</time>
      </trkpt>
      <trkpt lat="45.97474" lon="6.56469">
        <ele>2261</ele>
        <time>2018-01-15T14:11:26Z</time>
      </trkpt>
      <trkpt lat="45.97471" lon="6.56485">
        <ele>2260</ele>
        <time>2018-01-15T14:11:45Z</time>
      </trkpt>
      <trkpt lat="45.97471" lon="6.5649">
        <ele>2259</ele>
        <time>2018-01-15T14:11:51Z</time>
      </trkpt>
      <trkpt lat="45.97472" lon="6.56503">
        <ele>2262</ele>
        <time>2018-01-15T14:12:08Z</time>
      </trkpt>
      <trkpt lat="45.97472" lon="6.56508">
        <ele>2263</ele>
        <time>2018-01-15T14:12:14Z</time>
      </trkpt>
      <trkpt lat="45.9746" lon="6.56505">
        <ele>2265</ele>
        <time>2018-01-15T14:12:42Z</time>
      </trkpt>
      <trkpt lat="45.97457" lon="6.56504">
        <ele>2265</ele>
        <time>2018-01-15T14:12:46Z</time>
      </trkpt>
      <trkpt lat="45.97452" lon="6.56502">
        <ele>2266</ele>
        <time>2018-01-15T14:12:55Z</time>
      </trkpt>
      <trkpt lat="45.97449" lon="6.56501">
        <ele>2267</ele>
        <time>2018-01-15T14:13:01Z</time>
      </trkpt>
      <trkpt lat="45.97445" lon="6.56499">
        <ele>2264</ele>
        <time>2018-01-15T14:13:09Z</time>
      </trkpt>
      <trkpt lat="45.97441" lon="6.56496">
        <ele>2264</ele>
        <time>2018-01-15T14:13:17Z</time>
      </trkpt>
      <trkpt lat="45.97437" lon="6.56495">
        <ele>2265</ele>
        <time>2018-01-15T14:13:24Z</time>
      </trkpt>
      <trkpt lat="45.97435" lon="6.56494">
        <ele>2265</ele>
        <time>2018-01-15T14:13:28Z</time>
      </trkpt>
      <trkpt lat="45.97422" lon="6.56484">
        <ele>2266</ele>
        <time>2018-01-15T14:13:57Z</time>
      </trkpt>
      <trkpt lat="45.97421" lon="6.56487">
        <ele>2266</ele>
        <time>2018-01-15T14:14:04Z</time>
      </trkpt>
      <trkpt lat="45.97421" lon="6.5649">
        <ele>2267</ele>
        <time>2018-01-15T14:14:09Z</time>
      </trkpt>
      <trkpt lat="45.97421" lon="6.56494">
        <ele>2267</ele>
        <time>2018-01-15T14:14:14Z</time>
      </trkpt>
      <trkpt lat="45.97424" lon="6.56506">
        <ele>2269</ele>
        <time>2018-01-15T14:14:30Z</time>
      </trkpt>
      <trkpt lat="45.97424" lon="6.56508">
        <ele>2269</ele>
        <time>2018-01-15T14:14:33Z</time>
      </trkpt>
      <trkpt lat="45.9742" lon="6.56517">
        <ele>2270</ele>
        <time>2018-01-15T14:14:50Z</time>
      </trkpt>
      <trkpt lat="45.97413" lon="6.56511">
        <ele>2286</ele>
        <time>2018-01-15T14:15:10Z</time>
      </trkpt>
      <trkpt lat="45.97408" lon="6.5651">
        <ele>2289</ele>
        <time>2018-01-15T14:15:18Z</time>
      </trkpt>
      <trkpt lat="45.97402" lon="6.56506">
        <ele>2293</ele>
        <time>2018-01-15T14:15:32Z</time>
      </trkpt>
      <trkpt lat="45.97395" lon="6.565">
        <ele>2298</ele>
        <time>2018-01-15T14:15:47Z</time>
      </trkpt>
      <trkpt lat="45.97395" lon="6.56504">
        <ele>2298</ele>
        <time>2018-01-15T14:16:00Z</time>
      </trkpt>
      <trkpt lat="45.97396" lon="6.56515">
        <ele>2301</ele>
        <time>2018-01-15T14:16:15Z</time>
      </trkpt>
      <trkpt lat="45.97399" lon="6.56537">
        <ele>2306</ele>
        <time>2018-01-15T14:16:48Z</time>
      </trkpt>
      <trkpt lat="45.97401" lon="6.56544">
        <ele>2306</ele>
        <time>2018-01-15T14:17:00Z</time>
      </trkpt>
      <trkpt lat="45.97401" lon="6.56548">
        <ele>2307</ele>
        <time>2018-01-15T14:17:05Z</time>
      </trkpt>
      <trkpt lat="45.97401" lon="6.56551">
        <ele>2307</ele>
        <time>2018-01-15T14:17:10Z</time>
      </trkpt>
      <trkpt lat="45.97401" lon="6.56552">
        <ele>2307</ele>
        <time>2018-01-15T14:17:11Z</time>
      </trkpt>
      <trkpt lat="45.97401" lon="6.56556">
        <ele>2306</ele>
        <time>2018-01-15T14:17:18Z</time>
      </trkpt>
      <trkpt lat="45.97402" lon="6.56561">
        <ele>2305</ele>
        <time>2018-01-15T14:17:26Z</time>
      </trkpt>
      <trkpt lat="45.97403" lon="6.56561">
        <ele>2305</ele>
        <time>2018-01-15T14:17:28Z</time>
      </trkpt>
      <trkpt lat="45.97404" lon="6.56566">
        <ele>2304</ele>
        <time>2018-01-15T14:17:40Z</time>
      </trkpt>
      <trkpt lat="45.97405" lon="6.56571">
        <ele>2302</ele>
        <time>2018-01-15T14:17:54Z</time>
      </trkpt>
      <trkpt lat="45.97406" lon="6.56573">
        <ele>2300</ele>
        <time>2018-01-15T14:17:59Z</time>
      </trkpt>
      <trkpt lat="45.97407" lon="6.56578">
        <ele>2298</ele>
        <time>2018-01-15T14:18:07Z</time>
      </trkpt>
      <trkpt lat="45.97407" lon="6.56578">
        <ele>2298</ele>
        <time>2018-01-15T14:18:08Z</time>
      </trkpt>
      <trkpt lat="45.97409" lon="6.56586">
        <ele>2302</ele>
        <time>2018-01-15T14:18:26Z</time>
      </trkpt>
      <trkpt lat="45.97412" lon="6.56598">
        <ele>2309</ele>
        <time>2018-01-15T14:18:45Z</time>
      </trkpt>
      <trkpt lat="45.97413" lon="6.56599">
        <ele>2310</ele>
        <time>2018-01-15T14:18:47Z</time>
      </trkpt>
      <trkpt lat="45.97414" lon="6.56601">
        <ele>2312</ele>
        <time>2018-01-15T14:18:50Z</time>
      </trkpt>
      <trkpt lat="45.97418" lon="6.56612">
        <ele>2295</ele>
        <time>2018-01-15T14:19:12Z</time>
      </trkpt>
      <trkpt lat="45.97428" lon="6.56629">
        <ele>2299</ele>
        <time>2018-01-15T14:19:51Z</time>
      </trkpt>
      <trkpt lat="45.97434" lon="6.56637">
        <ele>2301</ele>
        <time>2018-01-15T14:20:11Z</time>
      </trkpt>
      <trkpt lat="45.97433" lon="6.56638">
        <ele>2301</ele>
        <time>2018-01-15T14:20:14Z</time>
      </trkpt>
      <trkpt lat="45.97425" lon="6.56639">
        <ele>2303</ele>
        <time>2018-01-15T14:20:29Z</time>
      </trkpt>
      <trkpt lat="45.97426" lon="6.56647">
        <ele>2307</ele>
        <time>2018-01-15T14:21:01Z</time>
      </trkpt>
      <trkpt lat="45.97427" lon="6.56648">
        <ele>2307</ele>
        <time>2018-01-15T14:21:02Z</time>
      </trkpt>
      <trkpt lat="45.97429" lon="6.56652">
        <ele>2308</ele>
        <time>2018-01-15T14:21:08Z</time>
      </trkpt>
      <trkpt lat="45.97431" lon="6.56653">
        <ele>2307</ele>
        <time>2018-01-15T14:21:12Z</time>
      </trkpt>
      <trkpt lat="45.97438" lon="6.56661">
        <ele>2307</ele>
        <time>2018-01-15T14:21:29Z</time>
      </trkpt>
      <trkpt lat="45.97437" lon="6.56662">
        <ele>2307</ele>
        <time>2018-01-15T14:21:35Z</time>
      </trkpt>
      <trkpt lat="45.97437" lon="6.56662">
        <ele>2307</ele>
        <time>2018-01-15T14:21:38Z</time>
      </trkpt>
      <trkpt lat="45.97436" lon="6.56661">
        <ele>2308</ele>
        <time>2018-01-15T14:21:46Z</time>
      </trkpt>
      <trkpt lat="45.97435" lon="6.56661">
        <ele>2308</ele>
        <time>2018-01-15T14:21:48Z</time>
      </trkpt>
      <trkpt lat="45.97433" lon="6.56661">
        <ele>2309</ele>
        <time>2018-01-15T14:21:53Z</time>
      </trkpt>
      <trkpt lat="45.97433" lon="6.5666">
        <ele>2309</ele>
        <time>2018-01-15T14:21:59Z</time>
      </trkpt>
      <trkpt lat="45.97433" lon="6.5666">
        <ele>2309</ele>
        <time>2018-01-15T14:22:01Z</time>
      </trkpt>
      <trkpt lat="45.97428" lon="6.56662">
        <ele>2313</ele>
        <time>2018-01-15T14:22:38Z</time>
      </trkpt>
      <trkpt lat="45.97429" lon="6.56663">
        <ele>2312</ele>
        <time>2018-01-15T14:22:42Z</time>
      </trkpt>
      <trkpt lat="45.97431" lon="6.56665">
        <ele>2311</ele>
        <time>2018-01-15T14:22:46Z</time>
      </trkpt>
      <trkpt lat="45.97431" lon="6.56665">
        <ele>2311</ele>
        <time>2018-01-15T14:22:47Z</time>
      </trkpt>
      <trkpt lat="45.97432" lon="6.56667">
        <ele>2310</ele>
        <time>2018-01-15T14:22:52Z</time>
      </trkpt>
      <trkpt lat="45.97434" lon="6.56669">
        <ele>2318</ele>
        <time>2018-01-15T14:22:59Z</time>
      </trkpt>
      <trkpt lat="45.97437" lon="6.56673">
        <ele>2317</ele>
        <time>2018-01-15T14:23:09Z</time>
      </trkpt>
      <trkpt lat="45.97438" lon="6.56673">
        <ele>2317</ele>
        <time>2018-01-15T14:23:10Z</time>
      </trkpt>
      <trkpt lat="45.97439" lon="6.56675">
        <ele>2316</ele>
        <time>2018-01-15T14:23:17Z</time>
      </trkpt>
      <trkpt lat="45.9744" lon="6.56675">
        <ele>2316</ele>
        <time>2018-01-15T14:23:18Z</time>
      </trkpt>
      <trkpt lat="45.97442" lon="6.56677">
        <ele>2316</ele>
        <time>2018-01-15T14:23:27Z</time>
      </trkpt>
      <trkpt lat="45.97442" lon="6.56678">
        <ele>2316</ele>
        <time>2018-01-15T14:23:33Z</time>
      </trkpt>
      <trkpt lat="45.97443" lon="6.56678">
        <ele>2315</ele>
        <time>2018-01-15T14:23:38Z</time>
      </trkpt>
      <trkpt lat="45.97444" lon="6.56678">
        <ele>2315</ele>
        <time>2018-01-15T14:23:41Z</time>
      </trkpt>
      <trkpt lat="45.97444" lon="6.56678">
        <ele>2315</ele>
        <time>2018-01-15T14:23:42Z</time>
      </trkpt>
      <trkpt lat="45.97447" lon="6.56681">
        <ele>2315</ele>
        <time>2018-01-15T14:23:47Z</time>
      </trkpt>
      <trkpt lat="45.9745" lon="6.56685">
        <ele>2314</ele>
        <time>2018-01-15T14:23:54Z</time>
      </trkpt>
      <trkpt lat="45.97452" lon="6.5669">
        <ele>2314</ele>
        <time>2018-01-15T14:24:03Z</time>
      </trkpt>
      <trkpt lat="45.97457" lon="6.567">
        <ele>2313</ele>
        <time>2018-01-15T14:24:20Z</time>
      </trkpt>
      <trkpt lat="45.97459" lon="6.56701">
        <ele>2313</ele>
        <time>2018-01-15T14:24:32Z</time>
      </trkpt>
      <trkpt lat="45.97459" lon="6.56701">
        <ele>2313</ele>
        <time>2018-01-15T14:24:35Z</time>
      </trkpt>
      <trkpt lat="45.9746" lon="6.567">
        <ele>2313</ele>
        <time>2018-01-15T14:24:40Z</time>
      </trkpt>
      <trkpt lat="45.9746" lon="6.567">
        <ele>2313</ele>
        <time>2018-01-15T14:24:46Z</time>
      </trkpt>
      <trkpt lat="45.9746" lon="6.567">
        <ele>2313</ele>
        <time>2018-01-15T14:24:49Z</time>
      </trkpt>
      <trkpt lat="45.9746" lon="6.567">
        <ele>2313</ele>
        <time>2018-01-15T14:24:50Z</time>
      </trkpt>
      <trkpt lat="45.9746" lon="6.567">
        <ele>2313</ele>
        <time>2018-01-15T14:24:52Z</time>
      </trkpt>
      <trkpt lat="45.9746" lon="6.567">
        <ele>2313</ele>
        <time>2018-01-15T14:24:53Z</time>
      </trkpt>
      <trkpt lat="45.9746" lon="6.567">
        <ele>2312</ele>
        <time>2018-01-15T14:24:56Z</time>
      </trkpt>
      <trkpt lat="45.9746" lon="6.567">
        <ele>2312</ele>
        <time>2018-01-15T14:24:59Z</time>
      </trkpt>
      <trkpt lat="45.97461" lon="6.567">
        <ele>2312</ele>
        <time>2018-01-15T14:25:00Z</time>
      </trkpt>
      <trkpt lat="45.97461" lon="6.567">
        <ele>2312</ele>
        <time>2018-01-15T14:25:02Z</time>
      </trkpt>
      <trkpt lat="45.97461" lon="6.567">
        <ele>2312</ele>
        <time>2018-01-15T14:25:05Z</time>
      </trkpt>
      <trkpt lat="45.97461" lon="6.567">
        <ele>2312</ele>
        <time>2018-01-15T14:25:07Z</time>
      </trkpt>
      <trkpt lat="45.97461" lon="6.567">
        <ele>2312</ele>
        <time>2018-01-15T14:25:08Z</time>
      </trkpt>
      <trkpt lat="45.97461" lon="6.567">
        <ele>2312</ele>
        <time>2018-01-15T14:25:12Z</time>
      </trkpt>
      <trkpt lat="45.9746" lon="6.56701">
        <ele>2312</ele>
        <time>2018-01-15T14:25:17Z</time>
      </trkpt>
      <trkpt lat="45.9746" lon="6.56701">
        <ele>2313</ele>
        <time>2018-01-15T14:25:22Z</time>
      </trkpt>
      <trkpt lat="45.97461" lon="6.56701">
        <ele>2312</ele>
        <time>2018-01-15T14:25:29Z</time>
      </trkpt>
      <trkpt lat="45.9746" lon="6.56702">
        <ele>2313</ele>
        <time>2018-01-15T14:25:42Z</time>
      </trkpt>
      <trkpt lat="45.97459" lon="6.56701">
        <ele>2313</ele>
        <time>2018-01-15T14:25:47Z</time>
      </trkpt>
      <trkpt lat="45.97459" lon="6.56701">
        <ele>2313</ele>
        <time>2018-01-15T14:25:51Z</time>
      </trkpt>
      <trkpt lat="45.97461" lon="6.56703">
        <ele>2313</ele>
        <time>2018-01-15T14:25:58Z</time>
      </trkpt>
      <trkpt lat="45.97461" lon="6.56701">
        <ele>2312</ele>
        <time>2018-01-15T14:26:23Z</time>
      </trkpt>
      <trkpt lat="45.97461" lon="6.567">
        <ele>2312</ele>
        <time>2018-01-15T14:26:32Z</time>
      </trkpt>
      <trkpt lat="45.97459" lon="6.56699">
        <ele>2313</ele>
        <time>2018-01-15T14:26:44Z</time>
      </trkpt>
      <trkpt lat="45.9746" lon="6.567">
        <ele>2313</ele>
        <time>2018-01-15T14:26:51Z</time>
      </trkpt>
      <trkpt lat="45.97461" lon="6.567">
        <ele>2312</ele>
        <time>2018-01-15T14:27:02Z</time>
      </trkpt>
      <trkpt lat="45.97461" lon="6.56701">
        <ele>2312</ele>
        <time>2018-01-15T14:27:11Z</time>
      </trkpt>
      <trkpt lat="45.97461" lon="6.56701">
        <ele>2312</ele>
        <time>2018-01-15T14:27:33Z</time>
      </trkpt>
      <trkpt lat="45.97462" lon="6.56701">
        <ele>2312</ele>
        <time>2018-01-15T14:27:36Z</time>
      </trkpt>
      <trkpt lat="45.97461" lon="6.56702">
        <ele>2313</ele>
        <time>2018-01-15T14:28:06Z</time>
      </trkpt>
      <trkpt lat="45.97461" lon="6.56701">
        <ele>2313</ele>
        <time>2018-01-15T14:28:21Z</time>
      </trkpt>
      <trkpt lat="45.97461" lon="6.56701">
        <ele>2312</ele>
        <time>2018-01-15T14:28:27Z</time>
      </trkpt>
      <trkpt lat="45.97461" lon="6.56701">
        <ele>2312</ele>
        <time>2018-01-15T14:28:46Z</time>
      </trkpt>
      <trkpt lat="45.97461" lon="6.567">
        <ele>2312</ele>
        <time>2018-01-15T14:28:58Z</time>
      </trkpt>
      <trkpt lat="45.97461" lon="6.567">
        <ele>2312</ele>
        <time>2018-01-15T14:29:28Z</time>
      </trkpt>
      <trkpt lat="45.97462" lon="6.567">
        <ele>2312</ele>
        <time>2018-01-15T14:29:34Z</time>
      </trkpt>
      <trkpt lat="45.97461" lon="6.567">
        <ele>2312</ele>
        <time>2018-01-15T14:29:39Z</time>
      </trkpt>
      <trkpt lat="45.97461" lon="6.567">
        <ele>2312</ele>
        <time>2018-01-15T14:29:47Z</time>
      </trkpt>
      <trkpt lat="45.9746" lon="6.56701">
        <ele>2313</ele>
        <time>2018-01-15T14:30:11Z</time>
      </trkpt>
      <trkpt lat="45.9746" lon="6.56701">
        <ele>2313</ele>
        <time>2018-01-15T14:30:19Z</time>
      </trkpt>
      <trkpt lat="45.97461" lon="6.567">
        <ele>2312</ele>
        <time>2018-01-15T14:30:31Z</time>
      </trkpt>
      <trkpt lat="45.97458" lon="6.56701">
        <ele>2313</ele>
        <time>2018-01-15T14:30:48Z</time>
      </trkpt>
      <trkpt lat="45.97459" lon="6.56701">
        <ele>2313</ele>
        <time>2018-01-15T14:30:53Z</time>
      </trkpt>
      <trkpt lat="45.9746" lon="6.56702">
        <ele>2313</ele>
        <time>2018-01-15T14:31:27Z</time>
      </trkpt>
      <trkpt lat="45.9746" lon="6.56703">
        <ele>2313</ele>
        <time>2018-01-15T14:31:32Z</time>
      </trkpt>
      <trkpt lat="45.97461" lon="6.56703">
        <ele>2313</ele>
        <time>2018-01-15T14:31:41Z</time>
      </trkpt>
      <trkpt lat="45.97459" lon="6.56702">
        <ele>2313</ele>
        <time>2018-01-15T14:31:46Z</time>
      </trkpt>
      <trkpt lat="45.97456" lon="6.56697">
        <ele>2313</ele>
        <time>2018-01-15T14:32:01Z</time>
      </trkpt>
      <trkpt lat="45.97456" lon="6.56696">
        <ele>2313</ele>
        <time>2018-01-15T14:32:02Z</time>
      </trkpt>
      <trkpt lat="45.97454" lon="6.56694">
        <ele>2313</ele>
        <time>2018-01-15T14:32:03Z</time>
      </trkpt>
      <trkpt lat="45.97453" lon="6.56692">
        <ele>2314</ele>
        <time>2018-01-15T14:32:04Z</time>
      </trkpt>
      <trkpt lat="45.97451" lon="6.56691">
        <ele>2314</ele>
        <time>2018-01-15T14:32:05Z</time>
      </trkpt>
      <trkpt lat="45.9745" lon="6.5669">
        <ele>2314</ele>
        <time>2018-01-15T14:32:06Z</time>
      </trkpt>
      <trkpt lat="45.97449" lon="6.56688">
        <ele>2314</ele>
        <time>2018-01-15T14:32:07Z</time>
      </trkpt>
      <trkpt lat="45.97448" lon="6.56687">
        <ele>2314</ele>
        <time>2018-01-15T14:32:08Z</time>
      </trkpt>
      <trkpt lat="45.97447" lon="6.56686">
        <ele>2315</ele>
        <time>2018-01-15T14:32:09Z</time>
      </trkpt>
      <trkpt lat="45.97436" lon="6.56672">
        <ele>2317</ele>
        <time>2018-01-15T14:32:16Z</time>
      </trkpt>
      <trkpt lat="45.97427" lon="6.56665">
        <ele>2314</ele>
        <time>2018-01-15T14:32:22Z</time>
      </trkpt>
      <trkpt lat="45.97427" lon="6.56664">
        <ele>2314</ele>
        <time>2018-01-15T14:32:23Z</time>
      </trkpt>
      <trkpt lat="45.97423" lon="6.56661">
        <ele>2316</ele>
        <time>2018-01-15T14:32:28Z</time>
      </trkpt>
      <trkpt lat="45.9742" lon="6.56657">
        <ele>2314</ele>
        <time>2018-01-15T14:32:34Z</time>
      </trkpt>
      <trkpt lat="45.9742" lon="6.56653">
        <ele>2311</ele>
        <time>2018-01-15T14:32:35Z</time>
      </trkpt>
      <trkpt lat="45.97422" lon="6.5665">
        <ele>2309</ele>
        <time>2018-01-15T14:32:36Z</time>
      </trkpt>
      <trkpt lat="45.97424" lon="6.56649">
        <ele>2308</ele>
        <time>2018-01-15T14:32:37Z</time>
      </trkpt>
      <trkpt lat="45.97427" lon="6.56649">
        <ele>2307</ele>
        <time>2018-01-15T14:32:38Z</time>
      </trkpt>
      <trkpt lat="45.97429" lon="6.56645">
        <ele>2305</ele>
        <time>2018-01-15T14:32:39Z</time>
      </trkpt>
      <trkpt lat="45.97429" lon="6.56641">
        <ele>2303</ele>
        <time>2018-01-15T14:32:40Z</time>
      </trkpt>
      <trkpt lat="45.97427" lon="6.56638">
        <ele>2302</ele>
        <time>2018-01-15T14:32:41Z</time>
      </trkpt>
      <trkpt lat="45.97426" lon="6.56633">
        <ele>2301</ele>
        <time>2018-01-15T14:32:42Z</time>
      </trkpt>
      <trkpt lat="45.97426" lon="6.56629">
        <ele>2299</ele>
        <time>2018-01-15T14:32:43Z</time>
      </trkpt>
      <trkpt lat="45.9743" lon="6.56627">
        <ele>2298</ele>
        <time>2018-01-15T14:32:44Z</time>
      </trkpt>
      <trkpt lat="45.97432" lon="6.56625">
        <ele>2298</ele>
        <time>2018-01-15T14:32:45Z</time>
      </trkpt>
      <trkpt lat="45.97433" lon="6.56621">
        <ele>2296</ele>
        <time>2018-01-15T14:32:46Z</time>
      </trkpt>
      <trkpt lat="45.97434" lon="6.56615">
        <ele>2295</ele>
        <time>2018-01-15T14:32:47Z</time>
      </trkpt>
      <trkpt lat="45.97435" lon="6.5661">
        <ele>2294</ele>
        <time>2018-01-15T14:32:48Z</time>
      </trkpt>
      <trkpt lat="45.97439" lon="6.56607">
        <ele>2293</ele>
        <time>2018-01-15T14:32:49Z</time>
      </trkpt>
      <trkpt lat="45.9744" lon="6.56601">
        <ele>2292</ele>
        <time>2018-01-15T14:32:50Z</time>
      </trkpt>
      <trkpt lat="45.97439" lon="6.56594">
        <ele>2291</ele>
        <time>2018-01-15T14:32:51Z</time>
      </trkpt>
      <trkpt lat="45.97438" lon="6.56588">
        <ele>2291</ele>
        <time>2018-01-15T14:32:52Z</time>
      </trkpt>
      <trkpt lat="45.97443" lon="6.56583">
        <ele>2276</ele>
        <time>2018-01-15T14:32:53Z</time>
      </trkpt>
      <trkpt lat="45.97448" lon="6.56581">
        <ele>2275</ele>
        <time>2018-01-15T14:32:54Z</time>
      </trkpt>
      <trkpt lat="45.97453" lon="6.56578">
        <ele>2274</ele>
        <time>2018-01-15T14:32:55Z</time>
      </trkpt>
      <trkpt lat="45.97457" lon="6.56573">
        <ele>2273</ele>
        <time>2018-01-15T14:32:56Z</time>
      </trkpt>
      <trkpt lat="45.97458" lon="6.56566">
        <ele>2272</ele>
        <time>2018-01-15T14:32:57Z</time>
      </trkpt>
      <trkpt lat="45.97462" lon="6.56561">
        <ele>2271</ele>
        <time>2018-01-15T14:32:58Z</time>
      </trkpt>
      <trkpt lat="45.97467" lon="6.56558">
        <ele>2270</ele>
        <time>2018-01-15T14:32:59Z</time>
      </trkpt>
      <trkpt lat="45.97469" lon="6.56552">
        <ele>2270</ele>
        <time>2018-01-15T14:33:00Z</time>
      </trkpt>
      <trkpt lat="45.9747" lon="6.56544">
        <ele>2268</ele>
        <time>2018-01-15T14:33:01Z</time>
      </trkpt>
      <trkpt lat="45.97475" lon="6.56539">
        <ele>2267</ele>
        <time>2018-01-15T14:33:02Z</time>
      </trkpt>
      <trkpt lat="45.97481" lon="6.56538">
        <ele>2266</ele>
        <time>2018-01-15T14:33:03Z</time>
      </trkpt>
      <trkpt lat="45.97485" lon="6.56533">
        <ele>2265</ele>
        <time>2018-01-15T14:33:04Z</time>
      </trkpt>
      <trkpt lat="45.97488" lon="6.56527">
        <ele>2263</ele>
        <time>2018-01-15T14:33:05Z</time>
      </trkpt>
      <trkpt lat="45.97494" lon="6.56522">
        <ele>2261</ele>
        <time>2018-01-15T14:33:06Z</time>
      </trkpt>
      <trkpt lat="45.97501" lon="6.56516">
        <ele>2257</ele>
        <time>2018-01-15T14:33:07Z</time>
      </trkpt>
      <trkpt lat="45.97506" lon="6.56509">
        <ele>2255</ele>
        <time>2018-01-15T14:33:08Z</time>
      </trkpt>
      <trkpt lat="45.97511" lon="6.565">
        <ele>2252</ele>
        <time>2018-01-15T14:33:09Z</time>
      </trkpt>
      <trkpt lat="45.97517" lon="6.56495">
        <ele>2254</ele>
        <time>2018-01-15T14:33:10Z</time>
      </trkpt>
      <trkpt lat="45.97522" lon="6.5649">
        <ele>2255</ele>
        <time>2018-01-15T14:33:11Z</time>
      </trkpt>
      <trkpt lat="45.97525" lon="6.56481">
        <ele>2256</ele>
        <time>2018-01-15T14:33:12Z</time>
      </trkpt>
      <trkpt lat="45.97529" lon="6.56474">
        <ele>2257</ele>
        <time>2018-01-15T14:33:13Z</time>
      </trkpt>
      <trkpt lat="45.97535" lon="6.56468">
        <ele>2257</ele>
        <time>2018-01-15T14:33:14Z</time>
      </trkpt>
      <trkpt lat="45.97539" lon="6.56459">
        <ele>2258</ele>
        <time>2018-01-15T14:33:15Z</time>
      </trkpt>
      <trkpt lat="45.97541" lon="6.56449">
        <ele>2258</ele>
        <time>2018-01-15T14:33:16Z</time>
      </trkpt>
      <trkpt lat="45.97545" lon="6.56443">
        <ele>2258</ele>
        <time>2018-01-15T14:33:17Z</time>
      </trkpt>
      <trkpt lat="45.97553" lon="6.56433">
        <ele>2257</ele>
        <time>2018-01-15T14:33:19Z</time>
      </trkpt>
      <trkpt lat="45.97555" lon="6.56426">
        <ele>2257</ele>
        <time>2018-01-15T14:33:20Z</time>
      </trkpt>
      <trkpt lat="45.97559" lon="6.5642">
        <ele>2256</ele>
        <time>2018-01-15T14:33:21Z</time>
      </trkpt>
      <trkpt lat="45.97562" lon="6.56416">
        <ele>2244</ele>
        <time>2018-01-15T14:33:22Z</time>
      </trkpt>
      <trkpt lat="45.97564" lon="6.56408">
        <ele>2243</ele>
        <time>2018-01-15T14:33:23Z</time>
      </trkpt>
      <trkpt lat="45.97567" lon="6.56401">
        <ele>2241</ele>
        <time>2018-01-15T14:33:24Z</time>
      </trkpt>
      <trkpt lat="45.97572" lon="6.56398">
        <ele>2240</ele>
        <time>2018-01-15T14:33:25Z</time>
      </trkpt>
      <trkpt lat="45.97577" lon="6.56396">
        <ele>2240</ele>
        <time>2018-01-15T14:33:26Z</time>
      </trkpt>
      <trkpt lat="45.9758" lon="6.56393">
        <ele>2238</ele>
        <time>2018-01-15T14:33:27Z</time>
      </trkpt>
      <trkpt lat="45.97585" lon="6.56388">
        <ele>2215</ele>
        <time>2018-01-15T14:33:28Z</time>
      </trkpt>
      <trkpt lat="45.9759" lon="6.56385">
        <ele>2211</ele>
        <time>2018-01-15T14:33:29Z</time>
      </trkpt>
      <trkpt lat="45.97593" lon="6.56381">
        <ele>2208</ele>
        <time>2018-01-15T14:33:30Z</time>
      </trkpt>
      <trkpt lat="45.97595" lon="6.56375">
        <ele>2204</ele>
        <time>2018-01-15T14:33:31Z</time>
      </trkpt>
      <trkpt lat="45.97598" lon="6.56369">
        <ele>2199</ele>
        <time>2018-01-15T14:33:32Z</time>
      </trkpt>
      <trkpt lat="45.97602" lon="6.56368">
        <ele>2198</ele>
        <time>2018-01-15T14:33:33Z</time>
      </trkpt>
      <trkpt lat="45.97604" lon="6.56368">
        <ele>2199</ele>
        <time>2018-01-15T14:33:34Z</time>
      </trkpt>
      <trkpt lat="45.97608" lon="6.56368">
        <ele>2198</ele>
        <time>2018-01-15T14:33:36Z</time>
      </trkpt>
      <trkpt lat="45.97613" lon="6.56365">
        <ele>2196</ele>
        <time>2018-01-15T14:33:38Z</time>
      </trkpt>
      <trkpt lat="45.97617" lon="6.5636">
        <ele>2193</ele>
        <time>2018-01-15T14:33:40Z</time>
      </trkpt>
      <trkpt lat="45.97618" lon="6.56356">
        <ele>2191</ele>
        <time>2018-01-15T14:33:41Z</time>
      </trkpt>
      <trkpt lat="45.97617" lon="6.56351">
        <ele>2190</ele>
        <time>2018-01-15T14:33:42Z</time>
      </trkpt>
      <trkpt lat="45.97612" lon="6.56347">
        <ele>2189</ele>
        <time>2018-01-15T14:33:43Z</time>
      </trkpt>
      <trkpt lat="45.9761" lon="6.56343">
        <ele>2187</ele>
        <time>2018-01-15T14:33:44Z</time>
      </trkpt>
      <trkpt lat="45.97611" lon="6.56338">
        <ele>2186</ele>
        <time>2018-01-15T14:33:45Z</time>
      </trkpt>
      <trkpt lat="45.97611" lon="6.56332">
        <ele>2150</ele>
        <time>2018-01-15T14:33:46Z</time>
      </trkpt>
      <trkpt lat="45.97612" lon="6.56326">
        <ele>2148</ele>
        <time>2018-01-15T14:33:47Z</time>
      </trkpt>
      <trkpt lat="45.97613" lon="6.56319">
        <ele>2146</ele>
        <time>2018-01-15T14:33:48Z</time>
      </trkpt>
      <trkpt lat="45.97617" lon="6.56313">
        <ele>2144</ele>
        <time>2018-01-15T14:33:49Z</time>
      </trkpt>
      <trkpt lat="45.97617" lon="6.56308">
        <ele>2142</ele>
        <time>2018-01-15T14:33:50Z</time>
      </trkpt>
      <trkpt lat="45.97616" lon="6.56301">
        <ele>2140</ele>
        <time>2018-01-15T14:33:51Z</time>
      </trkpt>
      <trkpt lat="45.97616" lon="6.56294">
        <ele>2138</ele>
        <time>2018-01-15T14:33:52Z</time>
      </trkpt>
      <trkpt lat="45.97615" lon="6.56287">
        <ele>2136</ele>
        <time>2018-01-15T14:33:53Z</time>
      </trkpt>
      <trkpt lat="45.97614" lon="6.56277">
        <ele>2133</ele>
        <time>2018-01-15T14:33:55Z</time>
      </trkpt>
      <trkpt lat="45.97616" lon="6.56273">
        <ele>2132</ele>
        <time>2018-01-15T14:33:56Z</time>
      </trkpt>
      <trkpt lat="45.97617" lon="6.5627">
        <ele>2131</ele>
        <time>2018-01-15T14:33:57Z</time>
      </trkpt>
      <trkpt lat="45.97617" lon="6.56268">
        <ele>2130</ele>
        <time>2018-01-15T14:33:58Z</time>
      </trkpt>
      <trkpt lat="45.97618" lon="6.56266">
        <ele>2130</ele>
        <time>2018-01-15T14:33:59Z</time>
      </trkpt>
      <trkpt lat="45.9762" lon="6.56263">
        <ele>2130</ele>
        <time>2018-01-15T14:34:08Z</time>
      </trkpt>
      <trkpt lat="45.97624" lon="6.56253">
        <ele>2128</ele>
        <time>2018-01-15T14:34:10Z</time>
      </trkpt>
      <trkpt lat="45.97625" lon="6.56247">
        <ele>2111</ele>
        <time>2018-01-15T14:34:11Z</time>
      </trkpt>
      <trkpt lat="45.97626" lon="6.5624">
        <ele>2111</ele>
        <time>2018-01-15T14:34:12Z</time>
      </trkpt>
      <trkpt lat="45.97627" lon="6.56234">
        <ele>2110</ele>
        <time>2018-01-15T14:34:13Z</time>
      </trkpt>
      <trkpt lat="45.97627" lon="6.56227">
        <ele>2110</ele>
        <time>2018-01-15T14:34:14Z</time>
      </trkpt>
      <trkpt lat="45.97627" lon="6.56221">
        <ele>2110</ele>
        <time>2018-01-15T14:34:15Z</time>
      </trkpt>
      <trkpt lat="45.97626" lon="6.56212">
        <ele>2109</ele>
        <time>2018-01-15T14:34:17Z</time>
      </trkpt>
      <trkpt lat="45.97625" lon="6.56212">
        <ele>2109</ele>
        <time>2018-01-15T14:34:18Z</time>
      </trkpt>
      <trkpt lat="45.97624" lon="6.56212">
        <ele>2109</ele>
        <time>2018-01-15T14:34:19Z</time>
      </trkpt>
      <trkpt lat="45.97623" lon="6.56213">
        <ele>2110</ele>
        <time>2018-01-15T14:34:22Z</time>
      </trkpt>
      <trkpt lat="45.97623" lon="6.56208">
        <ele>2109</ele>
        <time>2018-01-15T14:34:25Z</time>
      </trkpt>
      <trkpt lat="45.97625" lon="6.56204">
        <ele>2109</ele>
        <time>2018-01-15T14:34:26Z</time>
      </trkpt>
      <trkpt lat="45.97626" lon="6.56201">
        <ele>2109</ele>
        <time>2018-01-15T14:34:27Z</time>
      </trkpt>
      <trkpt lat="45.97624" lon="6.56197">
        <ele>2109</ele>
        <time>2018-01-15T14:34:28Z</time>
      </trkpt>
      <trkpt lat="45.97624" lon="6.56194">
        <ele>2109</ele>
        <time>2018-01-15T14:34:29Z</time>
      </trkpt>
      <trkpt lat="45.97621" lon="6.56175">
        <ele>2108</ele>
        <time>2018-01-15T14:34:33Z</time>
      </trkpt>
      <trkpt lat="45.97615" lon="6.56171">
        <ele>2108</ele>
        <time>2018-01-15T14:34:34Z</time>
      </trkpt>
      <trkpt lat="45.9761" lon="6.56164">
        <ele>2102</ele>
        <time>2018-01-15T14:34:36Z</time>
      </trkpt>
      <trkpt lat="45.97609" lon="6.56153">
        <ele>2101</ele>
        <time>2018-01-15T14:34:38Z</time>
      </trkpt>
      <trkpt lat="45.97607" lon="6.56145">
        <ele>2100</ele>
        <time>2018-01-15T14:34:39Z</time>
      </trkpt>
      <trkpt lat="45.97605" lon="6.56137">
        <ele>2100</ele>
        <time>2018-01-15T14:34:40Z</time>
      </trkpt>
      <trkpt lat="45.97604" lon="6.56131">
        <ele>2099</ele>
        <time>2018-01-15T14:34:41Z</time>
      </trkpt>
      <trkpt lat="45.97604" lon="6.56127">
        <ele>2099</ele>
        <time>2018-01-15T14:34:42Z</time>
      </trkpt>
      <trkpt lat="45.97606" lon="6.56118">
        <ele>2098</ele>
        <time>2018-01-15T14:34:59Z</time>
      </trkpt>
      <trkpt lat="45.97611" lon="6.5609">
        <ele>2096</ele>
        <time>2018-01-15T14:35:26Z</time>
      </trkpt>
      <trkpt lat="45.97615" lon="6.56078">
        <ele>2086</ele>
        <time>2018-01-15T14:35:39Z</time>
      </trkpt>
      <trkpt lat="45.97618" lon="6.56073">
        <ele>2085</ele>
        <time>2018-01-15T14:35:47Z</time>
      </trkpt>
      <trkpt lat="45.97619" lon="6.56072">
        <ele>2084</ele>
        <time>2018-01-15T14:35:49Z</time>
      </trkpt>
      <trkpt lat="45.97621" lon="6.56069">
        <ele>2084</ele>
        <time>2018-01-15T14:35:51Z</time>
      </trkpt>
      <trkpt lat="45.97621" lon="6.56067">
        <ele>2084</ele>
        <time>2018-01-15T14:35:52Z</time>
      </trkpt>
      <trkpt lat="45.97621" lon="6.56064">
        <ele>2083</ele>
        <time>2018-01-15T14:35:53Z</time>
      </trkpt>
      <trkpt lat="45.97621" lon="6.56059">
        <ele>2083</ele>
        <time>2018-01-15T14:35:54Z</time>
      </trkpt>
      <trkpt lat="45.97619" lon="6.56054">
        <ele>2083</ele>
        <time>2018-01-15T14:35:55Z</time>
      </trkpt>
      <trkpt lat="45.97618" lon="6.56043">
        <ele>2082</ele>
        <time>2018-01-15T14:35:57Z</time>
      </trkpt>
      <trkpt lat="45.9762" lon="6.56038">
        <ele>2081</ele>
        <time>2018-01-15T14:35:58Z</time>
      </trkpt>
      <trkpt lat="45.97624" lon="6.56035">
        <ele>2080</ele>
        <time>2018-01-15T14:35:59Z</time>
      </trkpt>
      <trkpt lat="45.97626" lon="6.5603">
        <ele>2079</ele>
        <time>2018-01-15T14:36:00Z</time>
      </trkpt>
      <trkpt lat="45.97629" lon="6.56025">
        <ele>2078</ele>
        <time>2018-01-15T14:36:01Z</time>
      </trkpt>
      <trkpt lat="45.97631" lon="6.5602">
        <ele>2077</ele>
        <time>2018-01-15T14:36:02Z</time>
      </trkpt>
      <trkpt lat="45.97632" lon="6.56013">
        <ele>2076</ele>
        <time>2018-01-15T14:36:03Z</time>
      </trkpt>
      <trkpt lat="45.97634" lon="6.56006">
        <ele>2075</ele>
        <time>2018-01-15T14:36:04Z</time>
      </trkpt>
      <trkpt lat="45.97637" lon="6.56001">
        <ele>2073</ele>
        <time>2018-01-15T14:36:05Z</time>
      </trkpt>
      <trkpt lat="45.97639" lon="6.55994">
        <ele>2061</ele>
        <time>2018-01-15T14:36:06Z</time>
      </trkpt>
      <trkpt lat="45.9764" lon="6.55987">
        <ele>2061</ele>
        <time>2018-01-15T14:36:07Z</time>
      </trkpt>
      <trkpt lat="45.97641" lon="6.5598">
        <ele>2060</ele>
        <time>2018-01-15T14:36:08Z</time>
      </trkpt>
      <trkpt lat="45.97643" lon="6.55974">
        <ele>2060</ele>
        <time>2018-01-15T14:36:09Z</time>
      </trkpt>
      <trkpt lat="45.97644" lon="6.55968">
        <ele>2059</ele>
        <time>2018-01-15T14:36:10Z</time>
      </trkpt>
      <trkpt lat="45.97645" lon="6.55962">
        <ele>2058</ele>
        <time>2018-01-15T14:36:11Z</time>
      </trkpt>
      <trkpt lat="45.97645" lon="6.55956">
        <ele>2057</ele>
        <time>2018-01-15T14:36:12Z</time>
      </trkpt>
      <trkpt lat="45.97643" lon="6.55952">
        <ele>2057</ele>
        <time>2018-01-15T14:36:13Z</time>
      </trkpt>
      <trkpt lat="45.97642" lon="6.5595">
        <ele>2057</ele>
        <time>2018-01-15T14:36:14Z</time>
      </trkpt>
      <trkpt lat="45.97641" lon="6.55948">
        <ele>2056</ele>
        <time>2018-01-15T14:36:15Z</time>
      </trkpt>
      <trkpt lat="45.9764" lon="6.55946">
        <ele>2056</ele>
        <time>2018-01-15T14:36:16Z</time>
      </trkpt>
      <trkpt lat="45.97638" lon="6.55943">
        <ele>2056</ele>
        <time>2018-01-15T14:36:17Z</time>
      </trkpt>
      <trkpt lat="45.97624" lon="6.55922">
        <ele>2058</ele>
        <time>2018-01-15T14:36:24Z</time>
      </trkpt>
      <trkpt lat="45.97624" lon="6.55917">
        <ele>2058</ele>
        <time>2018-01-15T14:36:36Z</time>
      </trkpt>
      <trkpt lat="45.97624" lon="6.55915">
        <ele>2045</ele>
        <time>2018-01-15T14:36:38Z</time>
      </trkpt>
      <trkpt lat="45.97623" lon="6.55913">
        <ele>2045</ele>
        <time>2018-01-15T14:36:39Z</time>
      </trkpt>
      <trkpt lat="45.9762" lon="6.55897">
        <ele>2045</ele>
        <time>2018-01-15T14:36:44Z</time>
      </trkpt>
      <trkpt lat="45.97615" lon="6.55879">
        <ele>2044</ele>
        <time>2018-01-15T14:36:47Z</time>
      </trkpt>
      <trkpt lat="45.97612" lon="6.55874">
        <ele>2044</ele>
        <time>2018-01-15T14:36:48Z</time>
      </trkpt>
      <trkpt lat="45.97609" lon="6.5587">
        <ele>2044</ele>
        <time>2018-01-15T14:36:49Z</time>
      </trkpt>
      <trkpt lat="45.97604" lon="6.55861">
        <ele>2044</ele>
        <time>2018-01-15T14:36:52Z</time>
      </trkpt>
      <trkpt lat="45.97602" lon="6.55857">
        <ele>2044</ele>
        <time>2018-01-15T14:36:54Z</time>
      </trkpt>
      <trkpt lat="45.9759" lon="6.55843">
        <ele>2047</ele>
        <time>2018-01-15T14:37:01Z</time>
      </trkpt>
      <trkpt lat="45.97587" lon="6.55838">
        <ele>2048</ele>
        <time>2018-01-15T14:37:02Z</time>
      </trkpt>
      <trkpt lat="45.97584" lon="6.55832">
        <ele>2048</ele>
        <time>2018-01-15T14:37:03Z</time>
      </trkpt>
      <trkpt lat="45.97581" lon="6.55825">
        <ele>2056</ele>
        <time>2018-01-15T14:37:04Z</time>
      </trkpt>
      <trkpt lat="45.97578" lon="6.55812">
        <ele>2061</ele>
        <time>2018-01-15T14:37:06Z</time>
      </trkpt>
      <trkpt lat="45.97573" lon="6.55793">
        <ele>2063</ele>
        <time>2018-01-15T14:37:10Z</time>
      </trkpt>
      <trkpt lat="45.9757" lon="6.55781">
        <ele>2061</ele>
        <time>2018-01-15T14:37:13Z</time>
      </trkpt>
      <trkpt lat="45.9757" lon="6.55775">
        <ele>2059</ele>
        <time>2018-01-15T14:37:14Z</time>
      </trkpt>
      <trkpt lat="45.97574" lon="6.5577">
        <ele>2056</ele>
        <time>2018-01-15T14:37:15Z</time>
      </trkpt>
      <trkpt lat="45.97578" lon="6.55768">
        <ele>2053</ele>
        <time>2018-01-15T14:37:16Z</time>
      </trkpt>
      <trkpt lat="45.97582" lon="6.55764">
        <ele>2050</ele>
        <time>2018-01-15T14:37:17Z</time>
      </trkpt>
      <trkpt lat="45.97586" lon="6.55761">
        <ele>2030</ele>
        <time>2018-01-15T14:37:18Z</time>
      </trkpt>
      <trkpt lat="45.97591" lon="6.55759">
        <ele>2030</ele>
        <time>2018-01-15T14:37:19Z</time>
      </trkpt>
      <trkpt lat="45.97593" lon="6.55754">
        <ele>2030</ele>
        <time>2018-01-15T14:37:20Z</time>
      </trkpt>
      <trkpt lat="45.97596" lon="6.55746">
        <ele>2020</ele>
        <time>2018-01-15T14:37:21Z</time>
      </trkpt>
      <trkpt lat="45.976" lon="6.55741">
        <ele>2016</ele>
        <time>2018-01-15T14:37:22Z</time>
      </trkpt>
      <trkpt lat="45.97604" lon="6.55736">
        <ele>2012</ele>
        <time>2018-01-15T14:37:23Z</time>
      </trkpt>
      <trkpt lat="45.97605" lon="6.55729">
        <ele>2010</ele>
        <time>2018-01-15T14:37:24Z</time>
      </trkpt>
      <trkpt lat="45.97609" lon="6.55722">
        <ele>2007</ele>
        <time>2018-01-15T14:37:25Z</time>
      </trkpt>
      <trkpt lat="45.97611" lon="6.55717">
        <ele>2005</ele>
        <time>2018-01-15T14:37:26Z</time>
      </trkpt>
      <trkpt lat="45.97613" lon="6.5571">
        <ele>2003</ele>
        <time>2018-01-15T14:37:27Z</time>
      </trkpt>
      <trkpt lat="45.97616" lon="6.55705">
        <ele>2002</ele>
        <time>2018-01-15T14:37:28Z</time>
      </trkpt>
      <trkpt lat="45.97618" lon="6.55701">
        <ele>2000</ele>
        <time>2018-01-15T14:37:29Z</time>
      </trkpt>
      <trkpt lat="45.97618" lon="6.55695">
        <ele>2000</ele>
        <time>2018-01-15T14:37:30Z</time>
      </trkpt>
      <trkpt lat="45.97617" lon="6.55691">
        <ele>2000</ele>
        <time>2018-01-15T14:37:31Z</time>
      </trkpt>
      <trkpt lat="45.97616" lon="6.55687">
        <ele>2000</ele>
        <time>2018-01-15T14:37:32Z</time>
      </trkpt>
      <trkpt lat="45.97616" lon="6.55685">
        <ele>2000</ele>
        <time>2018-01-15T14:37:35Z</time>
      </trkpt>
      <trkpt lat="45.97621" lon="6.5568">
        <ele>1998</ele>
        <time>2018-01-15T14:37:40Z</time>
      </trkpt>
      <trkpt lat="45.97623" lon="6.55677">
        <ele>1997</ele>
        <time>2018-01-15T14:37:41Z</time>
      </trkpt>
      <trkpt lat="45.97623" lon="6.55671">
        <ele>1996</ele>
        <time>2018-01-15T14:37:42Z</time>
      </trkpt>
      <trkpt lat="45.97626" lon="6.55665">
        <ele>1979</ele>
        <time>2018-01-15T14:37:43Z</time>
      </trkpt>
      <trkpt lat="45.97629" lon="6.55661">
        <ele>1977</ele>
        <time>2018-01-15T14:37:44Z</time>
      </trkpt>
      <trkpt lat="45.97631" lon="6.55655">
        <ele>1976</ele>
        <time>2018-01-15T14:37:45Z</time>
      </trkpt>
      <trkpt lat="45.97632" lon="6.55647">
        <ele>1975</ele>
        <time>2018-01-15T14:37:46Z</time>
      </trkpt>
      <trkpt lat="45.97633" lon="6.55641">
        <ele>1974</ele>
        <time>2018-01-15T14:37:47Z</time>
      </trkpt>
      <trkpt lat="45.97637" lon="6.55637">
        <ele>1973</ele>
        <time>2018-01-15T14:37:48Z</time>
      </trkpt>
      <trkpt lat="45.97641" lon="6.55633">
        <ele>1971</ele>
        <time>2018-01-15T14:37:49Z</time>
      </trkpt>
      <trkpt lat="45.97643" lon="6.55628">
        <ele>1970</ele>
        <time>2018-01-15T14:37:50Z</time>
      </trkpt>
      <trkpt lat="45.97647" lon="6.55625">
        <ele>1968</ele>
        <time>2018-01-15T14:37:51Z</time>
      </trkpt>
      <trkpt lat="45.97649" lon="6.55621">
        <ele>1967</ele>
        <time>2018-01-15T14:37:52Z</time>
      </trkpt>
      <trkpt lat="45.97654" lon="6.55615">
        <ele>1964</ele>
        <time>2018-01-15T14:37:53Z</time>
      </trkpt>
      <trkpt lat="45.97657" lon="6.55613">
        <ele>1962</ele>
        <time>2018-01-15T14:37:54Z</time>
      </trkpt>
      <trkpt lat="45.97659" lon="6.5561">
        <ele>1960</ele>
        <time>2018-01-15T14:37:55Z</time>
      </trkpt>
      <trkpt lat="45.97661" lon="6.55605">
        <ele>1957</ele>
        <time>2018-01-15T14:37:56Z</time>
      </trkpt>
      <trkpt lat="45.97663" lon="6.556">
        <ele>1953</ele>
        <time>2018-01-15T14:37:57Z</time>
      </trkpt>
      <trkpt lat="45.97665" lon="6.55596">
        <ele>1950</ele>
        <time>2018-01-15T14:37:58Z</time>
      </trkpt>
      <trkpt lat="45.97667" lon="6.55589">
        <ele>1933</ele>
        <time>2018-01-15T14:37:59Z</time>
      </trkpt>
      <trkpt lat="45.97667" lon="6.55584">
        <ele>1935</ele>
        <time>2018-01-15T14:38:00Z</time>
      </trkpt>
      <trkpt lat="45.97665" lon="6.55579">
        <ele>1937</ele>
        <time>2018-01-15T14:38:01Z</time>
      </trkpt>
      <trkpt lat="45.97666" lon="6.55573">
        <ele>1938</ele>
        <time>2018-01-15T14:38:02Z</time>
      </trkpt>
      <trkpt lat="45.97668" lon="6.55568">
        <ele>1919</ele>
        <time>2018-01-15T14:38:03Z</time>
      </trkpt>
      <trkpt lat="45.97671" lon="6.55563">
        <ele>1915</ele>
        <time>2018-01-15T14:38:04Z</time>
      </trkpt>
      <trkpt lat="45.97674" lon="6.55555">
        <ele>1911</ele>
        <time>2018-01-15T14:38:05Z</time>
      </trkpt>
      <trkpt lat="45.97677" lon="6.55551">
        <ele>1909</ele>
        <time>2018-01-15T14:38:06Z</time>
      </trkpt>
      <trkpt lat="45.97682" lon="6.5555">
        <ele>1908</ele>
        <time>2018-01-15T14:38:07Z</time>
      </trkpt>
      <trkpt lat="45.97684" lon="6.55546">
        <ele>1907</ele>
        <time>2018-01-15T14:38:08Z</time>
      </trkpt>
      <trkpt lat="45.97686" lon="6.5554">
        <ele>1905</ele>
        <time>2018-01-15T14:38:09Z</time>
      </trkpt>
      <trkpt lat="45.97689" lon="6.55536">
        <ele>1904</ele>
        <time>2018-01-15T14:38:10Z</time>
      </trkpt>
      <trkpt lat="45.97692" lon="6.55531">
        <ele>1903</ele>
        <time>2018-01-15T14:38:11Z</time>
      </trkpt>
      <trkpt lat="45.97695" lon="6.55526">
        <ele>1901</ele>
        <time>2018-01-15T14:38:12Z</time>
      </trkpt>
      <trkpt lat="45.97698" lon="6.55523">
        <ele>1900</ele>
        <time>2018-01-15T14:38:13Z</time>
      </trkpt>
      <trkpt lat="45.977" lon="6.55521">
        <ele>1900</ele>
        <time>2018-01-15T14:38:14Z</time>
      </trkpt>
      <trkpt lat="45.97699" lon="6.55516">
        <ele>1900</ele>
        <time>2018-01-15T14:38:15Z</time>
      </trkpt>
      <trkpt lat="45.97698" lon="6.55511">
        <ele>1899</ele>
        <time>2018-01-15T14:38:16Z</time>
      </trkpt>
      <trkpt lat="45.97699" lon="6.55506">
        <ele>1899</ele>
        <time>2018-01-15T14:38:17Z</time>
      </trkpt>
      <trkpt lat="45.97701" lon="6.55505">
        <ele>1898</ele>
        <time>2018-01-15T14:38:18Z</time>
      </trkpt>
      <trkpt lat="45.97704" lon="6.55505">
        <ele>1897</ele>
        <time>2018-01-15T14:38:19Z</time>
      </trkpt>
      <trkpt lat="45.97706" lon="6.55503">
        <ele>1897</ele>
        <time>2018-01-15T14:38:20Z</time>
      </trkpt>
      <trkpt lat="45.97707" lon="6.55499">
        <ele>1883</ele>
        <time>2018-01-15T14:38:21Z</time>
      </trkpt>
      <trkpt lat="45.97705" lon="6.55497">
        <ele>1883</ele>
        <time>2018-01-15T14:38:24Z</time>
      </trkpt>
      <trkpt lat="45.97703" lon="6.55497">
        <ele>1884</ele>
        <time>2018-01-15T14:38:30Z</time>
      </trkpt>
      <trkpt lat="45.97702" lon="6.55495">
        <ele>1884</ele>
        <time>2018-01-15T14:38:32Z</time>
      </trkpt>
      <trkpt lat="45.97702" lon="6.55493">
        <ele>1884</ele>
        <time>2018-01-15T14:38:33Z</time>
      </trkpt>
      <trkpt lat="45.97703" lon="6.55483">
        <ele>1883</ele>
        <time>2018-01-15T14:38:35Z</time>
      </trkpt>
      <trkpt lat="45.97705" lon="6.5548">
        <ele>1882</ele>
        <time>2018-01-15T14:38:36Z</time>
      </trkpt>
      <trkpt lat="45.97707" lon="6.55476">
        <ele>1881</ele>
        <time>2018-01-15T14:38:37Z</time>
      </trkpt>
      <trkpt lat="45.97711" lon="6.55471">
        <ele>1879</ele>
        <time>2018-01-15T14:38:39Z</time>
      </trkpt>
      <trkpt lat="45.97712" lon="6.55473">
        <ele>1879</ele>
        <time>2018-01-15T14:38:40Z</time>
      </trkpt>
      <trkpt lat="45.97714" lon="6.55475">
        <ele>1879</ele>
        <time>2018-01-15T14:38:41Z</time>
      </trkpt>
      <trkpt lat="45.97714" lon="6.55477">
        <ele>1879</ele>
        <time>2018-01-15T14:38:42Z</time>
      </trkpt>
      <trkpt lat="45.97716" lon="6.55478">
        <ele>1878</ele>
        <time>2018-01-15T14:38:43Z</time>
      </trkpt>
      <trkpt lat="45.97717" lon="6.55477">
        <ele>1878</ele>
        <time>2018-01-15T14:38:44Z</time>
      </trkpt>
      <trkpt lat="45.97719" lon="6.55475">
        <ele>1877</ele>
        <time>2018-01-15T14:38:45Z</time>
      </trkpt>
      <trkpt lat="45.97722" lon="6.55473">
        <ele>1876</ele>
        <time>2018-01-15T14:38:46Z</time>
      </trkpt>
      <trkpt lat="45.97724" lon="6.5547">
        <ele>1876</ele>
        <time>2018-01-15T14:38:47Z</time>
      </trkpt>
      <trkpt lat="45.97726" lon="6.55469">
        <ele>1875</ele>
        <time>2018-01-15T14:38:48Z</time>
      </trkpt>
      <trkpt lat="45.97729" lon="6.5547">
        <ele>1874</ele>
        <time>2018-01-15T14:38:49Z</time>
      </trkpt>
      <trkpt lat="45.97731" lon="6.55467">
        <ele>1874</ele>
        <time>2018-01-15T14:38:50Z</time>
      </trkpt>
      <trkpt lat="45.97734" lon="6.55463">
        <ele>1873</ele>
        <time>2018-01-15T14:38:51Z</time>
      </trkpt>
      <trkpt lat="45.97737" lon="6.55462">
        <ele>1872</ele>
        <time>2018-01-15T14:38:52Z</time>
      </trkpt>
      <trkpt lat="45.97741" lon="6.55462">
        <ele>1871</ele>
        <time>2018-01-15T14:38:53Z</time>
      </trkpt>
      <trkpt lat="45.97746" lon="6.5546">
        <ele>1871</ele>
        <time>2018-01-15T14:38:54Z</time>
      </trkpt>
      <trkpt lat="45.97749" lon="6.5546">
        <ele>1870</ele>
        <time>2018-01-15T14:38:55Z</time>
      </trkpt>
      <trkpt lat="45.97753" lon="6.55464">
        <ele>1845</ele>
        <time>2018-01-15T14:38:56Z</time>
      </trkpt>
      <trkpt lat="45.97754" lon="6.55468">
        <ele>1846</ele>
        <time>2018-01-15T14:38:57Z</time>
      </trkpt>
      <trkpt lat="45.97756" lon="6.55471">
        <ele>1847</ele>
        <time>2018-01-15T14:38:58Z</time>
      </trkpt>
      <trkpt lat="45.97755" lon="6.55474">
        <ele>1848</ele>
        <time>2018-01-15T14:38:59Z</time>
      </trkpt>
      <trkpt lat="45.97756" lon="6.55475">
        <ele>1848</ele>
        <time>2018-01-15T14:39:00Z</time>
      </trkpt>
      <trkpt lat="45.97758" lon="6.55475">
        <ele>1848</ele>
        <time>2018-01-15T14:39:04Z</time>
      </trkpt>
      <trkpt lat="45.97759" lon="6.55473">
        <ele>1847</ele>
        <time>2018-01-15T14:39:05Z</time>
      </trkpt>
      <trkpt lat="45.97759" lon="6.55469">
        <ele>1845</ele>
        <time>2018-01-15T14:39:06Z</time>
      </trkpt>
      <trkpt lat="45.97761" lon="6.55465">
        <ele>1844</ele>
        <time>2018-01-15T14:39:07Z</time>
      </trkpt>
      <trkpt lat="45.97764" lon="6.55462">
        <ele>1843</ele>
        <time>2018-01-15T14:39:08Z</time>
      </trkpt>
      <trkpt lat="45.97767" lon="6.55458">
        <ele>1842</ele>
        <time>2018-01-15T14:39:09Z</time>
      </trkpt>
      <trkpt lat="45.97771" lon="6.55454">
        <ele>1841</ele>
        <time>2018-01-15T14:39:10Z</time>
      </trkpt>
      <trkpt lat="45.97774" lon="6.5545">
        <ele>1840</ele>
        <time>2018-01-15T14:39:11Z</time>
      </trkpt>
      <trkpt lat="45.97776" lon="6.55445">
        <ele>1839</ele>
        <time>2018-01-15T14:39:12Z</time>
      </trkpt>
      <trkpt lat="45.97779" lon="6.55442">
        <ele>1838</ele>
        <time>2018-01-15T14:39:13Z</time>
      </trkpt>
      <trkpt lat="45.97781" lon="6.55438">
        <ele>1837</ele>
        <time>2018-01-15T14:39:14Z</time>
      </trkpt>
      <trkpt lat="45.97782" lon="6.55434">
        <ele>1837</ele>
        <time>2018-01-15T14:39:15Z</time>
      </trkpt>
      <trkpt lat="45.97784" lon="6.55429">
        <ele>1836</ele>
        <time>2018-01-15T14:39:17Z</time>
      </trkpt>
      <trkpt lat="45.97787" lon="6.5543">
        <ele>1835</ele>
        <time>2018-01-15T14:39:18Z</time>
      </trkpt>
      <trkpt lat="45.97789" lon="6.55433">
        <ele>1835</ele>
        <time>2018-01-15T14:39:19Z</time>
      </trkpt>
      <trkpt lat="45.97794" lon="6.55437">
        <ele>1834</ele>
        <time>2018-01-15T14:39:21Z</time>
      </trkpt>
      <trkpt lat="45.97798" lon="6.55434">
        <ele>1832</ele>
        <time>2018-01-15T14:39:22Z</time>
      </trkpt>
      <trkpt lat="45.97802" lon="6.55435">
        <ele>1831</ele>
        <time>2018-01-15T14:39:23Z</time>
      </trkpt>
      <trkpt lat="45.97806" lon="6.55438">
        <ele>1830</ele>
        <time>2018-01-15T14:39:24Z</time>
      </trkpt>
      <trkpt lat="45.9781" lon="6.55442">
        <ele>1830</ele>
        <time>2018-01-15T14:39:25Z</time>
      </trkpt>
      <trkpt lat="45.97813" lon="6.55443">
        <ele>1829</ele>
        <time>2018-01-15T14:39:26Z</time>
      </trkpt>
      <trkpt lat="45.97815" lon="6.55439">
        <ele>1828</ele>
        <time>2018-01-15T14:39:27Z</time>
      </trkpt>
      <trkpt lat="45.97816" lon="6.55435">
        <ele>1826</ele>
        <time>2018-01-15T14:39:28Z</time>
      </trkpt>
      <trkpt lat="45.97818" lon="6.5543">
        <ele>1824</ele>
        <time>2018-01-15T14:39:29Z</time>
      </trkpt>
      <trkpt lat="45.97819" lon="6.55425">
        <ele>1822</ele>
        <time>2018-01-15T14:39:30Z</time>
      </trkpt>
      <trkpt lat="45.9782" lon="6.5542">
        <ele>1820</ele>
        <time>2018-01-15T14:39:31Z</time>
      </trkpt>
      <trkpt lat="45.97823" lon="6.55419">
        <ele>1818</ele>
        <time>2018-01-15T14:39:32Z</time>
      </trkpt>
      <trkpt lat="45.97826" lon="6.55419">
        <ele>1815</ele>
        <time>2018-01-15T14:39:33Z</time>
      </trkpt>
      <trkpt lat="45.97829" lon="6.55417">
        <ele>1813</ele>
        <time>2018-01-15T14:39:34Z</time>
      </trkpt>
      <trkpt lat="45.97832" lon="6.55415">
        <ele>1809</ele>
        <time>2018-01-15T14:39:35Z</time>
      </trkpt>
      <trkpt lat="45.97836" lon="6.55414">
        <ele>1803</ele>
        <time>2018-01-15T14:39:36Z</time>
      </trkpt>
      <trkpt lat="45.97839" lon="6.55411">
        <ele>1800</ele>
        <time>2018-01-15T14:39:37Z</time>
      </trkpt>
      <trkpt lat="45.97841" lon="6.55408">
        <ele>1796</ele>
        <time>2018-01-15T14:39:38Z</time>
      </trkpt>
      <trkpt lat="45.97843" lon="6.55406">
        <ele>1794</ele>
        <time>2018-01-15T14:39:39Z</time>
      </trkpt>
      <trkpt lat="45.97847" lon="6.55406">
        <ele>1792</ele>
        <time>2018-01-15T14:39:40Z</time>
      </trkpt>
      <trkpt lat="45.9785" lon="6.55408">
        <ele>1791</ele>
        <time>2018-01-15T14:39:41Z</time>
      </trkpt>
      <trkpt lat="45.97852" lon="6.55408">
        <ele>1790</ele>
        <time>2018-01-15T14:39:42Z</time>
      </trkpt>
      <trkpt lat="45.97854" lon="6.55407">
        <ele>1789</ele>
        <time>2018-01-15T14:39:43Z</time>
      </trkpt>
      <trkpt lat="45.97856" lon="6.55405">
        <ele>1787</ele>
        <time>2018-01-15T14:39:44Z</time>
      </trkpt>
      <trkpt lat="45.97857" lon="6.55402">
        <ele>1786</ele>
        <time>2018-01-15T14:39:45Z</time>
      </trkpt>
      <trkpt lat="45.97858" lon="6.55402">
        <ele>1786</ele>
        <time>2018-01-15T14:39:46Z</time>
      </trkpt>
      <trkpt lat="45.97859" lon="6.554">
        <ele>1785</ele>
        <time>2018-01-15T14:39:47Z</time>
      </trkpt>
      <trkpt lat="45.9786" lon="6.55397">
        <ele>1784</ele>
        <time>2018-01-15T14:39:48Z</time>
      </trkpt>
      <trkpt lat="45.97862" lon="6.55396">
        <ele>1783</ele>
        <time>2018-01-15T14:39:49Z</time>
      </trkpt>
      <trkpt lat="45.97865" lon="6.55394">
        <ele>1782</ele>
        <time>2018-01-15T14:39:50Z</time>
      </trkpt>
      <trkpt lat="45.97867" lon="6.55395">
        <ele>1781</ele>
        <time>2018-01-15T14:39:51Z</time>
      </trkpt>
      <trkpt lat="45.97868" lon="6.55395">
        <ele>1781</ele>
        <time>2018-01-15T14:39:52Z</time>
      </trkpt>
      <trkpt lat="45.97867" lon="6.55395">
        <ele>1781</ele>
        <time>2018-01-15T14:39:54Z</time>
      </trkpt>
      <trkpt lat="45.97868" lon="6.55396">
        <ele>1781</ele>
        <time>2018-01-15T14:40:04Z</time>
      </trkpt>
      <trkpt lat="45.97869" lon="6.55397">
        <ele>1781</ele>
        <time>2018-01-15T14:40:12Z</time>
      </trkpt>
      <trkpt lat="45.9787" lon="6.554">
        <ele>1781</ele>
        <time>2018-01-15T14:40:15Z</time>
      </trkpt>
      <trkpt lat="45.9787" lon="6.55401">
        <ele>1781</ele>
        <time>2018-01-15T14:40:16Z</time>
      </trkpt>
      <trkpt lat="45.97871" lon="6.55403">
        <ele>1781</ele>
        <time>2018-01-15T14:40:17Z</time>
      </trkpt>
      <trkpt lat="45.97876" lon="6.55408">
        <ele>1780</ele>
        <time>2018-01-15T14:40:20Z</time>
      </trkpt>
      <trkpt lat="45.97878" lon="6.55405">
        <ele>1779</ele>
        <time>2018-01-15T14:40:21Z</time>
      </trkpt>
      <trkpt lat="45.9788" lon="6.55403">
        <ele>1778</ele>
        <time>2018-01-15T14:40:22Z</time>
      </trkpt>
      <trkpt lat="45.97882" lon="6.55405">
        <ele>1778</ele>
        <time>2018-01-15T14:40:23Z</time>
      </trkpt>
      <trkpt lat="45.97883" lon="6.55406">
        <ele>1777</ele>
        <time>2018-01-15T14:40:24Z</time>
      </trkpt>
      <trkpt lat="45.97885" lon="6.55406">
        <ele>1777</ele>
        <time>2018-01-15T14:40:25Z</time>
      </trkpt>
      <trkpt lat="45.97886" lon="6.55407">
        <ele>1776</ele>
        <time>2018-01-15T14:40:26Z</time>
      </trkpt>
      <trkpt lat="45.97888" lon="6.55408">
        <ele>1776</ele>
        <time>2018-01-15T14:40:27Z</time>
      </trkpt>
      <trkpt lat="45.97891" lon="6.55411">
        <ele>1775</ele>
        <time>2018-01-15T14:40:28Z</time>
      </trkpt>
      <trkpt lat="45.97895" lon="6.55414">
        <ele>1774</ele>
        <time>2018-01-15T14:40:29Z</time>
      </trkpt>
      <trkpt lat="45.97899" lon="6.55417">
        <ele>1784</ele>
        <time>2018-01-15T14:40:30Z</time>
      </trkpt>
      <trkpt lat="45.97901" lon="6.5542">
        <ele>1783</ele>
        <time>2018-01-15T14:40:31Z</time>
      </trkpt>
      <trkpt lat="45.97903" lon="6.55422">
        <ele>1782</ele>
        <time>2018-01-15T14:40:32Z</time>
      </trkpt>
      <trkpt lat="45.97903" lon="6.55422">
        <ele>1782</ele>
        <time>2018-01-15T14:40:33Z</time>
      </trkpt>
      <trkpt lat="45.97904" lon="6.5542">
        <ele>1781</ele>
        <time>2018-01-15T14:40:37Z</time>
      </trkpt>
      <trkpt lat="45.97905" lon="6.55417">
        <ele>1780</ele>
        <time>2018-01-15T14:40:38Z</time>
      </trkpt>
      <trkpt lat="45.97905" lon="6.55412">
        <ele>1772</ele>
        <time>2018-01-15T14:40:39Z</time>
      </trkpt>
      <trkpt lat="45.97905" lon="6.554">
        <ele>1772</ele>
        <time>2018-01-15T14:40:41Z</time>
      </trkpt>
      <trkpt lat="45.97905" lon="6.55393">
        <ele>1772</ele>
        <time>2018-01-15T14:40:42Z</time>
      </trkpt>
      <trkpt lat="45.97902" lon="6.55383">
        <ele>1771</ele>
        <time>2018-01-15T14:40:44Z</time>
      </trkpt>
      <trkpt lat="45.97885" lon="6.55363">
        <ele>1772</ele>
        <time>2018-01-15T14:40:54Z</time>
      </trkpt>
      <trkpt lat="45.97885" lon="6.5536">
        <ele>1771</ele>
        <time>2018-01-15T14:40:55Z</time>
      </trkpt>
      <trkpt lat="45.97885" lon="6.55353">
        <ele>1770</ele>
        <time>2018-01-15T14:40:57Z</time>
      </trkpt>
      <trkpt lat="45.97884" lon="6.55349">
        <ele>1769</ele>
        <time>2018-01-15T14:40:58Z</time>
      </trkpt>
      <trkpt lat="45.97886" lon="6.55347">
        <ele>1768</ele>
        <time>2018-01-15T14:40:59Z</time>
      </trkpt>
      <trkpt lat="45.97888" lon="6.55346">
        <ele>1767</ele>
        <time>2018-01-15T14:41:00Z</time>
      </trkpt>
      <trkpt lat="45.97889" lon="6.55345">
        <ele>1766</ele>
        <time>2018-01-15T14:41:01Z</time>
      </trkpt>
      <trkpt lat="45.97889" lon="6.55344">
        <ele>1766</ele>
        <time>2018-01-15T14:41:02Z</time>
      </trkpt>
      <trkpt lat="45.97888" lon="6.55341">
        <ele>1766</ele>
        <time>2018-01-15T14:41:05Z</time>
      </trkpt>
      <trkpt lat="45.97887" lon="6.55338">
        <ele>1766</ele>
        <time>2018-01-15T14:41:06Z</time>
      </trkpt>
      <trkpt lat="45.97887" lon="6.55333">
        <ele>1750</ele>
        <time>2018-01-15T14:41:07Z</time>
      </trkpt>
      <trkpt lat="45.97887" lon="6.55328">
        <ele>1749</ele>
        <time>2018-01-15T14:41:08Z</time>
      </trkpt>
      <trkpt lat="45.97886" lon="6.55324">
        <ele>1749</ele>
        <time>2018-01-15T14:41:09Z</time>
      </trkpt>
      <trkpt lat="45.97886" lon="6.5532">
        <ele>1749</ele>
        <time>2018-01-15T14:41:10Z</time>
      </trkpt>
      <trkpt lat="45.97889" lon="6.55318">
        <ele>1748</ele>
        <time>2018-01-15T14:41:16Z</time>
      </trkpt>
      <trkpt lat="45.97891" lon="6.55318">
        <ele>1747</ele>
        <time>2018-01-15T14:41:17Z</time>
      </trkpt>
      <trkpt lat="45.97893" lon="6.55316">
        <ele>1747</ele>
        <time>2018-01-15T14:41:18Z</time>
      </trkpt>
      <trkpt lat="45.97892" lon="6.55314">
        <ele>1747</ele>
        <time>2018-01-15T14:41:19Z</time>
      </trkpt>
      <trkpt lat="45.97891" lon="6.55311">
        <ele>1747</ele>
        <time>2018-01-15T14:41:20Z</time>
      </trkpt>
      <trkpt lat="45.9789" lon="6.55307">
        <ele>1747</ele>
        <time>2018-01-15T14:41:21Z</time>
      </trkpt>
      <trkpt lat="45.97893" lon="6.55303">
        <ele>1746</ele>
        <time>2018-01-15T14:41:22Z</time>
      </trkpt>
      <trkpt lat="45.97894" lon="6.55298">
        <ele>1744</ele>
        <time>2018-01-15T14:41:23Z</time>
      </trkpt>
      <trkpt lat="45.97896" lon="6.55294">
        <ele>1743</ele>
        <time>2018-01-15T14:41:24Z</time>
      </trkpt>
      <trkpt lat="45.97899" lon="6.55292">
        <ele>1742</ele>
        <time>2018-01-15T14:41:25Z</time>
      </trkpt>
      <trkpt lat="45.97903" lon="6.55289">
        <ele>1740</ele>
        <time>2018-01-15T14:41:26Z</time>
      </trkpt>
      <trkpt lat="45.97906" lon="6.55286">
        <ele>1739</ele>
        <time>2018-01-15T14:41:27Z</time>
      </trkpt>
      <trkpt lat="45.97909" lon="6.55284">
        <ele>1738</ele>
        <time>2018-01-15T14:41:28Z</time>
      </trkpt>
      <trkpt lat="45.97911" lon="6.55281">
        <ele>1736</ele>
        <time>2018-01-15T14:41:29Z</time>
      </trkpt>
      <trkpt lat="45.97914" lon="6.55278">
        <ele>1734</ele>
        <time>2018-01-15T14:41:30Z</time>
      </trkpt>
      <trkpt lat="45.97918" lon="6.55277">
        <ele>1710</ele>
        <time>2018-01-15T14:41:31Z</time>
      </trkpt>
      <trkpt lat="45.9792" lon="6.55278">
        <ele>1710</ele>
        <time>2018-01-15T14:41:32Z</time>
      </trkpt>
      <trkpt lat="45.97922" lon="6.5528">
        <ele>1710</ele>
        <time>2018-01-15T14:41:33Z</time>
      </trkpt>
      <trkpt lat="45.97923" lon="6.5528">
        <ele>1710</ele>
        <time>2018-01-15T14:41:34Z</time>
      </trkpt>
      <trkpt lat="45.9793" lon="6.55282">
        <ele>1710</ele>
        <time>2018-01-15T14:41:37Z</time>
      </trkpt>
      <trkpt lat="45.97944" lon="6.55285">
        <ele>1708</ele>
        <time>2018-01-15T14:41:40Z</time>
      </trkpt>
      <trkpt lat="45.97945" lon="6.55281">
        <ele>1707</ele>
        <time>2018-01-15T14:41:41Z</time>
      </trkpt>
      <trkpt lat="45.97946" lon="6.55275">
        <ele>1706</ele>
        <time>2018-01-15T14:41:42Z</time>
      </trkpt>
      <trkpt lat="45.97947" lon="6.5527">
        <ele>1705</ele>
        <time>2018-01-15T14:41:43Z</time>
      </trkpt>
      <trkpt lat="45.97948" lon="6.55265">
        <ele>1704</ele>
        <time>2018-01-15T14:41:44Z</time>
      </trkpt>
      <trkpt lat="45.97949" lon="6.55259">
        <ele>1704</ele>
        <time>2018-01-15T14:41:45Z</time>
      </trkpt>
      <trkpt lat="45.9795" lon="6.55253">
        <ele>1703</ele>
        <time>2018-01-15T14:41:46Z</time>
      </trkpt>
      <trkpt lat="45.9795" lon="6.55248">
        <ele>1686</ele>
        <time>2018-01-15T14:41:47Z</time>
      </trkpt>
      <trkpt lat="45.97951" lon="6.55244">
        <ele>1685</ele>
        <time>2018-01-15T14:41:48Z</time>
      </trkpt>
      <trkpt lat="45.97953" lon="6.55241">
        <ele>1684</ele>
        <time>2018-01-15T14:41:49Z</time>
      </trkpt>
      <trkpt lat="45.97955" lon="6.55239">
        <ele>1683</ele>
        <time>2018-01-15T14:41:50Z</time>
      </trkpt>
      <trkpt lat="45.97956" lon="6.55236">
        <ele>1682</ele>
        <time>2018-01-15T14:41:51Z</time>
      </trkpt>
      <trkpt lat="45.97957" lon="6.55232">
        <ele>1681</ele>
        <time>2018-01-15T14:41:52Z</time>
      </trkpt>
      <trkpt lat="45.97959" lon="6.55228">
        <ele>1680</ele>
        <time>2018-01-15T14:41:53Z</time>
      </trkpt>
      <trkpt lat="45.9796" lon="6.55225">
        <ele>1680</ele>
        <time>2018-01-15T14:41:54Z</time>
      </trkpt>
      <trkpt lat="45.97959" lon="6.5522">
        <ele>1679</ele>
        <time>2018-01-15T14:41:55Z</time>
      </trkpt>
      <trkpt lat="45.97959" lon="6.55216">
        <ele>1678</ele>
        <time>2018-01-15T14:41:56Z</time>
      </trkpt>
      <trkpt lat="45.97958" lon="6.55212">
        <ele>1678</ele>
        <time>2018-01-15T14:41:57Z</time>
      </trkpt>
      <trkpt lat="45.97956" lon="6.55209">
        <ele>1678</ele>
        <time>2018-01-15T14:41:58Z</time>
      </trkpt>
      <trkpt lat="45.97955" lon="6.55208">
        <ele>1678</ele>
        <time>2018-01-15T14:41:59Z</time>
      </trkpt>
      <trkpt lat="45.97952" lon="6.55204">
        <ele>1678</ele>
        <time>2018-01-15T14:42:04Z</time>
      </trkpt>
      <trkpt lat="45.97952" lon="6.55202">
        <ele>1677</ele>
        <time>2018-01-15T14:42:05Z</time>
      </trkpt>
      <trkpt lat="45.97954" lon="6.552">
        <ele>1677</ele>
        <time>2018-01-15T14:42:06Z</time>
      </trkpt>
      <trkpt lat="45.97954" lon="6.55197">
        <ele>1676</ele>
        <time>2018-01-15T14:42:07Z</time>
      </trkpt>
      <trkpt lat="45.97953" lon="6.55194">
        <ele>1676</ele>
        <time>2018-01-15T14:42:08Z</time>
      </trkpt>
      <trkpt lat="45.97952" lon="6.55192">
        <ele>1676</ele>
        <time>2018-01-15T14:42:09Z</time>
      </trkpt>
      <trkpt lat="45.97951" lon="6.5519">
        <ele>1676</ele>
        <time>2018-01-15T14:42:11Z</time>
      </trkpt>
      <trkpt lat="45.97951" lon="6.55189">
        <ele>1676</ele>
        <time>2018-01-15T14:42:12Z</time>
      </trkpt>
      <trkpt lat="45.97951" lon="6.55187">
        <ele>1676</ele>
        <time>2018-01-15T14:42:13Z</time>
      </trkpt>
      <trkpt lat="45.9795" lon="6.55185">
        <ele>1676</ele>
        <time>2018-01-15T14:42:14Z</time>
      </trkpt>
      <trkpt lat="45.97949" lon="6.55183">
        <ele>1675</ele>
        <time>2018-01-15T14:42:15Z</time>
      </trkpt>
      <trkpt lat="45.97949" lon="6.55179">
        <ele>1675</ele>
        <time>2018-01-15T14:42:16Z</time>
      </trkpt>
      <trkpt lat="45.9795" lon="6.55177">
        <ele>1675</ele>
        <time>2018-01-15T14:42:17Z</time>
      </trkpt>
      <trkpt lat="45.9795" lon="6.55175">
        <ele>1675</ele>
        <time>2018-01-15T14:42:18Z</time>
      </trkpt>
      <trkpt lat="45.9795" lon="6.55175">
        <ele>1675</ele>
        <time>2018-01-15T14:42:20Z</time>
      </trkpt>
      <trkpt lat="45.97953" lon="6.5518">
        <ele>1674</ele>
        <time>2018-01-15T14:42:26Z</time>
      </trkpt>
      <trkpt lat="45.97954" lon="6.55182">
        <ele>1674</ele>
        <time>2018-01-15T14:42:27Z</time>
      </trkpt>
      <trkpt lat="45.97956" lon="6.55182">
        <ele>1674</ele>
        <time>2018-01-15T14:42:28Z</time>
      </trkpt>
      <trkpt lat="45.97957" lon="6.5518">
        <ele>1673</ele>
        <time>2018-01-15T14:42:29Z</time>
      </trkpt>
      <trkpt lat="45.97958" lon="6.55177">
        <ele>1672</ele>
        <time>2018-01-15T14:42:30Z</time>
      </trkpt>
      <trkpt lat="45.9796" lon="6.55175">
        <ele>1672</ele>
        <time>2018-01-15T14:42:31Z</time>
      </trkpt>
      <trkpt lat="45.97962" lon="6.55176">
        <ele>1671</ele>
        <time>2018-01-15T14:42:32Z</time>
      </trkpt>
      <trkpt lat="45.97964" lon="6.55177">
        <ele>1671</ele>
        <time>2018-01-15T14:42:33Z</time>
      </trkpt>
      <trkpt lat="45.97965" lon="6.55178">
        <ele>1670</ele>
        <time>2018-01-15T14:42:34Z</time>
      </trkpt>
      <trkpt lat="45.97966" lon="6.55179">
        <ele>1670</ele>
        <time>2018-01-15T14:42:35Z</time>
      </trkpt>
      <trkpt lat="45.97969" lon="6.55182">
        <ele>1670</ele>
        <time>2018-01-15T14:42:38Z</time>
      </trkpt>
      <trkpt lat="45.9797" lon="6.55185">
        <ele>1670</ele>
        <time>2018-01-15T14:42:39Z</time>
      </trkpt>
      <trkpt lat="45.97972" lon="6.55189">
        <ele>1670</ele>
        <time>2018-01-15T14:42:40Z</time>
      </trkpt>
      <trkpt lat="45.97972" lon="6.55192">
        <ele>1671</ele>
        <time>2018-01-15T14:42:41Z</time>
      </trkpt>
      <trkpt lat="45.97974" lon="6.55194">
        <ele>1671</ele>
        <time>2018-01-15T14:42:42Z</time>
      </trkpt>
      <trkpt lat="45.97974" lon="6.55196">
        <ele>1671</ele>
        <time>2018-01-15T14:42:43Z</time>
      </trkpt>
      <trkpt lat="45.97975" lon="6.55194">
        <ele>1671</ele>
        <time>2018-01-15T14:42:45Z</time>
      </trkpt>
      <trkpt lat="45.97975" lon="6.55189">
        <ele>1669</ele>
        <time>2018-01-15T14:42:46Z</time>
      </trkpt>
      <trkpt lat="45.97976" lon="6.55186">
        <ele>1668</ele>
        <time>2018-01-15T14:42:47Z</time>
      </trkpt>
      <trkpt lat="45.97978" lon="6.55178">
        <ele>1665</ele>
        <time>2018-01-15T14:42:50Z</time>
      </trkpt>
      <trkpt lat="45.97979" lon="6.55175">
        <ele>1664</ele>
        <time>2018-01-15T14:42:51Z</time>
      </trkpt>
      <trkpt lat="45.97983" lon="6.55175">
        <ele>1662</ele>
        <time>2018-01-15T14:42:52Z</time>
      </trkpt>
      <trkpt lat="45.97985" lon="6.55173">
        <ele>1660</ele>
        <time>2018-01-15T14:42:53Z</time>
      </trkpt>
      <trkpt lat="45.97987" lon="6.5517">
        <ele>1658</ele>
        <time>2018-01-15T14:42:54Z</time>
      </trkpt>
      <trkpt lat="45.9799" lon="6.55169">
        <ele>1656</ele>
        <time>2018-01-15T14:42:55Z</time>
      </trkpt>
      <trkpt lat="45.97994" lon="6.55163">
        <ele>1646</ele>
        <time>2018-01-15T14:42:57Z</time>
      </trkpt>
      <trkpt lat="45.97994" lon="6.55159">
        <ele>1646</ele>
        <time>2018-01-15T14:42:58Z</time>
      </trkpt>
      <trkpt lat="45.97993" lon="6.55156">
        <ele>1646</ele>
        <time>2018-01-15T14:42:59Z</time>
      </trkpt>
      <trkpt lat="45.97991" lon="6.55154">
        <ele>1646</ele>
        <time>2018-01-15T14:43:00Z</time>
      </trkpt>
      <trkpt lat="45.9799" lon="6.55151">
        <ele>1646</ele>
        <time>2018-01-15T14:43:01Z</time>
      </trkpt>
      <trkpt lat="45.97989" lon="6.55148">
        <ele>1646</ele>
        <time>2018-01-15T14:43:02Z</time>
      </trkpt>
      <trkpt lat="45.9799" lon="6.55145">
        <ele>1646</ele>
        <time>2018-01-15T14:43:03Z</time>
      </trkpt>
      <trkpt lat="45.97989" lon="6.55141">
        <ele>1645</ele>
        <time>2018-01-15T14:43:04Z</time>
      </trkpt>
      <trkpt lat="45.97987" lon="6.55137">
        <ele>1645</ele>
        <time>2018-01-15T14:43:05Z</time>
      </trkpt>
      <trkpt lat="45.97985" lon="6.55134">
        <ele>1645</ele>
        <time>2018-01-15T14:43:06Z</time>
      </trkpt>
      <trkpt lat="45.97983" lon="6.5513">
        <ele>1645</ele>
        <time>2018-01-15T14:43:07Z</time>
      </trkpt>
      <trkpt lat="45.97981" lon="6.55127">
        <ele>1644</ele>
        <time>2018-01-15T14:43:08Z</time>
      </trkpt>
      <trkpt lat="45.97974" lon="6.55116">
        <ele>1643</ele>
        <time>2018-01-15T14:43:17Z</time>
      </trkpt>
      <trkpt lat="45.97973" lon="6.5511">
        <ele>1642</ele>
        <time>2018-01-15T14:43:19Z</time>
      </trkpt>
      <trkpt lat="45.97971" lon="6.55106">
        <ele>1642</ele>
        <time>2018-01-15T14:43:20Z</time>
      </trkpt>
      <trkpt lat="45.97968" lon="6.55103">
        <ele>1642</ele>
        <time>2018-01-15T14:43:21Z</time>
      </trkpt>
      <trkpt lat="45.97967" lon="6.551">
        <ele>1641</ele>
        <time>2018-01-15T14:43:22Z</time>
      </trkpt>
      <trkpt lat="45.97966" lon="6.55095">
        <ele>1641</ele>
        <time>2018-01-15T14:43:23Z</time>
      </trkpt>
      <trkpt lat="45.97966" lon="6.55091">
        <ele>1641</ele>
        <time>2018-01-15T14:43:24Z</time>
      </trkpt>
      <trkpt lat="45.97963" lon="6.55085">
        <ele>1641</ele>
        <time>2018-01-15T14:43:25Z</time>
      </trkpt>
      <trkpt lat="45.9796" lon="6.55079">
        <ele>1624</ele>
        <time>2018-01-15T14:43:26Z</time>
      </trkpt>
      <trkpt lat="45.97957" lon="6.55074">
        <ele>1624</ele>
        <time>2018-01-15T14:43:27Z</time>
      </trkpt>
      <trkpt lat="45.97954" lon="6.55069">
        <ele>1624</ele>
        <time>2018-01-15T14:43:28Z</time>
      </trkpt>
      <trkpt lat="45.97955" lon="6.55062">
        <ele>1623</ele>
        <time>2018-01-15T14:43:29Z</time>
      </trkpt>
      <trkpt lat="45.97955" lon="6.55056">
        <ele>1622</ele>
        <time>2018-01-15T14:43:30Z</time>
      </trkpt>
      <trkpt lat="45.97954" lon="6.55048">
        <ele>1621</ele>
        <time>2018-01-15T14:43:31Z</time>
      </trkpt>
      <trkpt lat="45.97954" lon="6.55041">
        <ele>1620</ele>
        <time>2018-01-15T14:43:32Z</time>
      </trkpt>
      <trkpt lat="45.97954" lon="6.55033">
        <ele>1619</ele>
        <time>2018-01-15T14:43:33Z</time>
      </trkpt>
      <trkpt lat="45.97953" lon="6.55025">
        <ele>1618</ele>
        <time>2018-01-15T14:43:34Z</time>
      </trkpt>
      <trkpt lat="45.97953" lon="6.55018">
        <ele>1617</ele>
        <time>2018-01-15T14:43:35Z</time>
      </trkpt>
      <trkpt lat="45.97953" lon="6.55011">
        <ele>1616</ele>
        <time>2018-01-15T14:43:36Z</time>
      </trkpt>
      <trkpt lat="45.97954" lon="6.55004">
        <ele>1615</ele>
        <time>2018-01-15T14:43:37Z</time>
      </trkpt>
      <trkpt lat="45.97955" lon="6.54997">
        <ele>1598</ele>
        <time>2018-01-15T14:43:38Z</time>
      </trkpt>
      <trkpt lat="45.97957" lon="6.54991">
        <ele>1597</ele>
        <time>2018-01-15T14:43:39Z</time>
      </trkpt>
      <trkpt lat="45.97956" lon="6.54987">
        <ele>1597</ele>
        <time>2018-01-15T14:43:40Z</time>
      </trkpt>
      <trkpt lat="45.97955" lon="6.54983">
        <ele>1597</ele>
        <time>2018-01-15T14:43:41Z</time>
      </trkpt>
      <trkpt lat="45.97953" lon="6.54978">
        <ele>1596</ele>
        <time>2018-01-15T14:43:42Z</time>
      </trkpt>
      <trkpt lat="45.97954" lon="6.54972">
        <ele>1595</ele>
        <time>2018-01-15T14:43:43Z</time>
      </trkpt>
      <trkpt lat="45.97954" lon="6.54966">
        <ele>1594</ele>
        <time>2018-01-15T14:43:44Z</time>
      </trkpt>
      <trkpt lat="45.97957" lon="6.54945">
        <ele>1591</ele>
        <time>2018-01-15T14:43:47Z</time>
      </trkpt>
      <trkpt lat="45.97958" lon="6.54936">
        <ele>1589</ele>
        <time>2018-01-15T14:43:48Z</time>
      </trkpt>
      <trkpt lat="45.9796" lon="6.54928">
        <ele>1588</ele>
        <time>2018-01-15T14:43:49Z</time>
      </trkpt>
      <trkpt lat="45.97962" lon="6.5492">
        <ele>1587</ele>
        <time>2018-01-15T14:43:50Z</time>
      </trkpt>
      <trkpt lat="45.97963" lon="6.54913">
        <ele>1570</ele>
        <time>2018-01-15T14:43:51Z</time>
      </trkpt>
      <trkpt lat="45.97965" lon="6.54906">
        <ele>1569</ele>
        <time>2018-01-15T14:43:52Z</time>
      </trkpt>
      <trkpt lat="45.97966" lon="6.549">
        <ele>1568</ele>
        <time>2018-01-15T14:43:53Z</time>
      </trkpt>
      <trkpt lat="45.97966" lon="6.54894">
        <ele>1568</ele>
        <time>2018-01-15T14:43:54Z</time>
      </trkpt>
      <trkpt lat="45.97966" lon="6.5489">
        <ele>1567</ele>
        <time>2018-01-15T14:43:55Z</time>
      </trkpt>
      <trkpt lat="45.97965" lon="6.54884">
        <ele>1566</ele>
        <time>2018-01-15T14:43:56Z</time>
      </trkpt>
      <trkpt lat="45.97965" lon="6.54878">
        <ele>1566</ele>
        <time>2018-01-15T14:43:57Z</time>
      </trkpt>
      <trkpt lat="45.97965" lon="6.54873">
        <ele>1565</ele>
        <time>2018-01-15T14:43:58Z</time>
      </trkpt>
      <trkpt lat="45.97967" lon="6.54869">
        <ele>1564</ele>
        <time>2018-01-15T14:43:59Z</time>
      </trkpt>
      <trkpt lat="45.97967" lon="6.54864">
        <ele>1563</ele>
        <time>2018-01-15T14:44:00Z</time>
      </trkpt>
      <trkpt lat="45.97967" lon="6.54861">
        <ele>1562</ele>
        <time>2018-01-15T14:44:01Z</time>
      </trkpt>
      <trkpt lat="45.97967" lon="6.54859">
        <ele>1562</ele>
        <time>2018-01-15T14:44:02Z</time>
      </trkpt>
      <trkpt lat="45.97967" lon="6.54858">
        <ele>1562</ele>
        <time>2018-01-15T14:44:03Z</time>
      </trkpt>
      <trkpt lat="45.9797" lon="6.54852">
        <ele>1561</ele>
        <time>2018-01-15T14:44:12Z</time>
      </trkpt>
      <trkpt lat="45.97969" lon="6.54849">
        <ele>1560</ele>
        <time>2018-01-15T14:44:13Z</time>
      </trkpt>
      <trkpt lat="45.97968" lon="6.54845">
        <ele>1560</ele>
        <time>2018-01-15T14:44:14Z</time>
      </trkpt>
      <trkpt lat="45.97968" lon="6.54841">
        <ele>1560</ele>
        <time>2018-01-15T14:44:15Z</time>
      </trkpt>
      <trkpt lat="45.97966" lon="6.54839">
        <ele>1560</ele>
        <time>2018-01-15T14:44:16Z</time>
      </trkpt>
      <trkpt lat="45.97965" lon="6.54835">
        <ele>1560</ele>
        <time>2018-01-15T14:44:17Z</time>
      </trkpt>
      <trkpt lat="45.97965" lon="6.54831">
        <ele>1541</ele>
        <time>2018-01-15T14:44:18Z</time>
      </trkpt>
      <trkpt lat="45.97964" lon="6.54827">
        <ele>1540</ele>
        <time>2018-01-15T14:44:19Z</time>
      </trkpt>
      <trkpt lat="45.97964" lon="6.54822">
        <ele>1540</ele>
        <time>2018-01-15T14:44:20Z</time>
      </trkpt>
      <trkpt lat="45.97964" lon="6.54817">
        <ele>1539</ele>
        <time>2018-01-15T14:44:21Z</time>
      </trkpt>
      <trkpt lat="45.97962" lon="6.54814">
        <ele>1539</ele>
        <time>2018-01-15T14:44:22Z</time>
      </trkpt>
      <trkpt lat="45.97958" lon="6.54801">
        <ele>1537</ele>
        <time>2018-01-15T14:44:25Z</time>
      </trkpt>
      <trkpt lat="45.97956" lon="6.54797">
        <ele>1536</ele>
        <time>2018-01-15T14:44:26Z</time>
      </trkpt>
      <trkpt lat="45.97957" lon="6.54793">
        <ele>1535</ele>
        <time>2018-01-15T14:44:27Z</time>
      </trkpt>
      <trkpt lat="45.97956" lon="6.54788">
        <ele>1534</ele>
        <time>2018-01-15T14:44:28Z</time>
      </trkpt>
      <trkpt lat="45.97955" lon="6.54784">
        <ele>1534</ele>
        <time>2018-01-15T14:44:29Z</time>
      </trkpt>
      <trkpt lat="45.97954" lon="6.54779">
        <ele>1533</ele>
        <time>2018-01-15T14:44:30Z</time>
      </trkpt>
      <trkpt lat="45.97954" lon="6.54774">
        <ele>1532</ele>
        <time>2018-01-15T14:44:31Z</time>
      </trkpt>
      <trkpt lat="45.97956" lon="6.5477">
        <ele>1531</ele>
        <time>2018-01-15T14:44:32Z</time>
      </trkpt>
      <trkpt lat="45.97956" lon="6.54766">
        <ele>1530</ele>
        <time>2018-01-15T14:44:33Z</time>
      </trkpt>
      <trkpt lat="45.97956" lon="6.54762">
        <ele>1530</ele>
        <time>2018-01-15T14:44:34Z</time>
      </trkpt>
      <trkpt lat="45.97955" lon="6.54758">
        <ele>1529</ele>
        <time>2018-01-15T14:44:35Z</time>
      </trkpt>
      <trkpt lat="45.97955" lon="6.54754">
        <ele>1529</ele>
        <time>2018-01-15T14:44:36Z</time>
      </trkpt>
      <trkpt lat="45.97955" lon="6.54746">
        <ele>1505</ele>
        <time>2018-01-15T14:44:38Z</time>
      </trkpt>
      <trkpt lat="45.97957" lon="6.54744">
        <ele>1504</ele>
        <time>2018-01-15T14:44:39Z</time>
      </trkpt>
      <trkpt lat="45.97959" lon="6.54742">
        <ele>1504</ele>
        <time>2018-01-15T14:44:40Z</time>
      </trkpt>
      <trkpt lat="45.9796" lon="6.54739">
        <ele>1504</ele>
        <time>2018-01-15T14:44:41Z</time>
      </trkpt>
      <trkpt lat="45.9796" lon="6.54737">
        <ele>1503</ele>
        <time>2018-01-15T14:44:42Z</time>
      </trkpt>
      <trkpt lat="45.97959" lon="6.54733">
        <ele>1502</ele>
        <time>2018-01-15T14:44:43Z</time>
      </trkpt>
      <trkpt lat="45.97958" lon="6.5473">
        <ele>1502</ele>
        <time>2018-01-15T14:44:44Z</time>
      </trkpt>
      <trkpt lat="45.97956" lon="6.54729">
        <ele>1502</ele>
        <time>2018-01-15T14:44:45Z</time>
      </trkpt>
      <trkpt lat="45.97955" lon="6.54726">
        <ele>1501</ele>
        <time>2018-01-15T14:44:46Z</time>
      </trkpt>
      <trkpt lat="45.97954" lon="6.54722">
        <ele>1500</ele>
        <time>2018-01-15T14:44:47Z</time>
      </trkpt>
      <trkpt lat="45.97953" lon="6.5472">
        <ele>1500</ele>
        <time>2018-01-15T14:44:48Z</time>
      </trkpt>
      <trkpt lat="45.9795" lon="6.54719">
        <ele>1500</ele>
        <time>2018-01-15T14:44:49Z</time>
      </trkpt>
      <trkpt lat="45.97949" lon="6.54719">
        <ele>1500</ele>
        <time>2018-01-15T14:44:50Z</time>
      </trkpt>
      <trkpt lat="45.97947" lon="6.54719">
        <ele>1500</ele>
        <time>2018-01-15T14:44:51Z</time>
      </trkpt>
      <trkpt lat="45.97945" lon="6.54719">
        <ele>1500</ele>
        <time>2018-01-15T14:44:52Z</time>
      </trkpt>
      <trkpt lat="45.97943" lon="6.5472">
        <ele>1501</ele>
        <time>2018-01-15T14:44:53Z</time>
      </trkpt>
      <trkpt lat="45.9794" lon="6.54721">
        <ele>1501</ele>
        <time>2018-01-15T14:44:54Z</time>
      </trkpt>
      <trkpt lat="45.97937" lon="6.54722">
        <ele>1502</ele>
        <time>2018-01-15T14:44:55Z</time>
      </trkpt>
      <trkpt lat="45.9793" lon="6.54719">
        <ele>1502</ele>
        <time>2018-01-15T14:44:58Z</time>
      </trkpt>
      <trkpt lat="45.97929" lon="6.54715">
        <ele>1500</ele>
        <time>2018-01-15T14:44:59Z</time>
      </trkpt>
      <trkpt lat="45.97928" lon="6.54713">
        <ele>1500</ele>
        <time>2018-01-15T14:45:00Z</time>
      </trkpt>
      <trkpt lat="45.97927" lon="6.5471">
        <ele>1499</ele>
        <time>2018-01-15T14:45:01Z</time>
      </trkpt>
      <trkpt lat="45.97925" lon="6.54708">
        <ele>1498</ele>
        <time>2018-01-15T14:45:02Z</time>
      </trkpt>
      <trkpt lat="45.97924" lon="6.54705">
        <ele>1497</ele>
        <time>2018-01-15T14:45:03Z</time>
      </trkpt>
      <trkpt lat="45.97923" lon="6.54703">
        <ele>1496</ele>
        <time>2018-01-15T14:45:04Z</time>
      </trkpt>
      <trkpt lat="45.97917" lon="6.54697">
        <ele>1494</ele>
        <time>2018-01-15T14:45:09Z</time>
      </trkpt>
      <trkpt lat="45.97912" lon="6.54695">
        <ele>1503</ele>
        <time>2018-01-15T14:45:12Z</time>
      </trkpt>
      <trkpt lat="45.97911" lon="6.54692">
        <ele>1502</ele>
        <time>2018-01-15T14:45:13Z</time>
      </trkpt>
      <trkpt lat="45.9791" lon="6.54689">
        <ele>1501</ele>
        <time>2018-01-15T14:45:14Z</time>
      </trkpt>
      <trkpt lat="45.97909" lon="6.54687">
        <ele>1500</ele>
        <time>2018-01-15T14:45:15Z</time>
      </trkpt>
      <trkpt lat="45.97908" lon="6.54685">
        <ele>1499</ele>
        <time>2018-01-15T14:45:16Z</time>
      </trkpt>
      <trkpt lat="45.97908" lon="6.54683">
        <ele>1498</ele>
        <time>2018-01-15T14:45:17Z</time>
      </trkpt>
      <trkpt lat="45.97908" lon="6.54682">
        <ele>1497</ele>
        <time>2018-01-15T14:45:18Z</time>
      </trkpt>
      <trkpt lat="45.97908" lon="6.5468">
        <ele>1496</ele>
        <time>2018-01-15T14:45:19Z</time>
      </trkpt>
      <trkpt lat="45.97908" lon="6.54678">
        <ele>1495</ele>
        <time>2018-01-15T14:45:21Z</time>
      </trkpt>
      <trkpt lat="45.97908" lon="6.54676">
        <ele>1493</ele>
        <time>2018-01-15T14:45:22Z</time>
      </trkpt>
      <trkpt lat="45.97909" lon="6.54673">
        <ele>1491</ele>
        <time>2018-01-15T14:45:23Z</time>
      </trkpt>
      <trkpt lat="45.97911" lon="6.54671">
        <ele>1489</ele>
        <time>2018-01-15T14:45:24Z</time>
      </trkpt>
      <trkpt lat="45.97912" lon="6.54669">
        <ele>1487</ele>
        <time>2018-01-15T14:45:25Z</time>
      </trkpt>
      <trkpt lat="45.97913" lon="6.54668">
        <ele>1486</ele>
        <time>2018-01-15T14:45:26Z</time>
      </trkpt>
      <trkpt lat="45.97913" lon="6.54665">
        <ele>1480</ele>
        <time>2018-01-15T14:45:27Z</time>
      </trkpt>
      <trkpt lat="45.97914" lon="6.54663">
        <ele>1479</ele>
        <time>2018-01-15T14:45:28Z</time>
      </trkpt>
      <trkpt lat="45.97915" lon="6.5466">
        <ele>1479</ele>
        <time>2018-01-15T14:45:29Z</time>
      </trkpt>
      <trkpt lat="45.97918" lon="6.54659">
        <ele>1474</ele>
        <time>2018-01-15T14:45:30Z</time>
      </trkpt>
      <trkpt lat="45.9792" lon="6.54658">
        <ele>1473</ele>
        <time>2018-01-15T14:45:31Z</time>
      </trkpt>
      <trkpt lat="45.97922" lon="6.54656">
        <ele>1471</ele>
        <time>2018-01-15T14:45:32Z</time>
      </trkpt>
      <trkpt lat="45.97921" lon="6.54652">
        <ele>1469</ele>
        <time>2018-01-15T14:45:34Z</time>
      </trkpt>
      <trkpt lat="45.97919" lon="6.5465">
        <ele>1468</ele>
        <time>2018-01-15T14:45:35Z</time>
      </trkpt>
      <trkpt lat="45.97918" lon="6.54647">
        <ele>1466</ele>
        <time>2018-01-15T14:45:36Z</time>
      </trkpt>
      <trkpt lat="45.97918" lon="6.54645">
        <ele>1465</ele>
        <time>2018-01-15T14:45:37Z</time>
      </trkpt>
      <trkpt lat="45.97919" lon="6.54643">
        <ele>1464</ele>
        <time>2018-01-15T14:45:38Z</time>
      </trkpt>
      <trkpt lat="45.9792" lon="6.5464">
        <ele>1463</ele>
        <time>2018-01-15T14:45:39Z</time>
      </trkpt>
      <trkpt lat="45.9792" lon="6.54637">
        <ele>1461</ele>
        <time>2018-01-15T14:45:40Z</time>
      </trkpt>
      <trkpt lat="45.9792" lon="6.54633">
        <ele>1459</ele>
        <time>2018-01-15T14:45:41Z</time>
      </trkpt>
      <trkpt lat="45.97921" lon="6.54629">
        <ele>1458</ele>
        <time>2018-01-15T14:45:42Z</time>
      </trkpt>
      <trkpt lat="45.9792" lon="6.54625">
        <ele>1457</ele>
        <time>2018-01-15T14:45:43Z</time>
      </trkpt>
      <trkpt lat="45.97918" lon="6.54622">
        <ele>1456</ele>
        <time>2018-01-15T14:45:44Z</time>
      </trkpt>
      <trkpt lat="45.97917" lon="6.54618">
        <ele>1454</ele>
        <time>2018-01-15T14:45:45Z</time>
      </trkpt>
      <trkpt lat="45.97918" lon="6.54614">
        <ele>1453</ele>
        <time>2018-01-15T14:45:46Z</time>
      </trkpt>
      <trkpt lat="45.97917" lon="6.5461">
        <ele>1452</ele>
        <time>2018-01-15T14:45:47Z</time>
      </trkpt>
      <trkpt lat="45.97916" lon="6.54607">
        <ele>1461</ele>
        <time>2018-01-15T14:45:48Z</time>
      </trkpt>
      <trkpt lat="45.97915" lon="6.54603">
        <ele>1459</ele>
        <time>2018-01-15T14:45:49Z</time>
      </trkpt>
      <trkpt lat="45.97916" lon="6.54598">
        <ele>1456</ele>
        <time>2018-01-15T14:45:50Z</time>
      </trkpt>
      <trkpt lat="45.97915" lon="6.54593">
        <ele>1452</ele>
        <time>2018-01-15T14:45:51Z</time>
      </trkpt>
      <trkpt lat="45.97913" lon="6.54588">
        <ele>1449</ele>
        <time>2018-01-15T14:45:52Z</time>
      </trkpt>
      <trkpt lat="45.97913" lon="6.54583">
        <ele>1442</ele>
        <time>2018-01-15T14:45:53Z</time>
      </trkpt>
      <trkpt lat="45.97913" lon="6.54577">
        <ele>1441</ele>
        <time>2018-01-15T14:45:54Z</time>
      </trkpt>
      <trkpt lat="45.97912" lon="6.54572">
        <ele>1440</ele>
        <time>2018-01-15T14:45:55Z</time>
      </trkpt>
      <trkpt lat="45.97911" lon="6.54567">
        <ele>1439</ele>
        <time>2018-01-15T14:45:56Z</time>
      </trkpt>
      <trkpt lat="45.97911" lon="6.54561">
        <ele>1437</ele>
        <time>2018-01-15T14:45:57Z</time>
      </trkpt>
      <trkpt lat="45.9791" lon="6.54556">
        <ele>1436</ele>
        <time>2018-01-15T14:45:58Z</time>
      </trkpt>
      <trkpt lat="45.97909" lon="6.5455">
        <ele>1435</ele>
        <time>2018-01-15T14:45:59Z</time>
      </trkpt>
      <trkpt lat="45.97909" lon="6.54544">
        <ele>1433</ele>
        <time>2018-01-15T14:46:00Z</time>
      </trkpt>
      <trkpt lat="45.97908" lon="6.54541">
        <ele>1433</ele>
        <time>2018-01-15T14:46:01Z</time>
      </trkpt>
      <trkpt lat="45.97905" lon="6.54539">
        <ele>1432</ele>
        <time>2018-01-15T14:46:02Z</time>
      </trkpt>
      <trkpt lat="45.97903" lon="6.54538">
        <ele>1432</ele>
        <time>2018-01-15T14:46:03Z</time>
      </trkpt>
      <trkpt lat="45.97885" lon="6.54531">
        <ele>1432</ele>
        <time>2018-01-15T14:46:09Z</time>
      </trkpt>
      <trkpt lat="45.97862" lon="6.54505">
        <ele>1431</ele>
        <time>2018-01-15T14:46:17Z</time>
      </trkpt>
      <trkpt lat="45.97861" lon="6.545">
        <ele>1430</ele>
        <time>2018-01-15T14:46:18Z</time>
      </trkpt>
      <trkpt lat="45.97862" lon="6.54496">
        <ele>1414</ele>
        <time>2018-01-15T14:46:19Z</time>
      </trkpt>
      <trkpt lat="45.97863" lon="6.5449">
        <ele>1413</ele>
        <time>2018-01-15T14:46:20Z</time>
      </trkpt>
      <trkpt lat="45.97865" lon="6.54484">
        <ele>1412</ele>
        <time>2018-01-15T14:46:21Z</time>
      </trkpt>
      <trkpt lat="45.97868" lon="6.54479">
        <ele>1411</ele>
        <time>2018-01-15T14:46:22Z</time>
      </trkpt>
      <trkpt lat="45.97869" lon="6.54473">
        <ele>1411</ele>
        <time>2018-01-15T14:46:23Z</time>
      </trkpt>
      <trkpt lat="45.97868" lon="6.54468">
        <ele>1410</ele>
        <time>2018-01-15T14:46:24Z</time>
      </trkpt>
      <trkpt lat="45.97866" lon="6.54462">
        <ele>1409</ele>
        <time>2018-01-15T14:46:25Z</time>
      </trkpt>
      <trkpt lat="45.97861" lon="6.5445">
        <ele>1408</ele>
        <time>2018-01-15T14:46:28Z</time>
      </trkpt>
      <trkpt lat="45.97858" lon="6.54447">
        <ele>1408</ele>
        <time>2018-01-15T14:46:29Z</time>
      </trkpt>
      <trkpt lat="45.97856" lon="6.54445">
        <ele>1408</ele>
        <time>2018-01-15T14:46:30Z</time>
      </trkpt>
      <trkpt lat="45.97854" lon="6.54442">
        <ele>1408</ele>
        <time>2018-01-15T14:46:31Z</time>
      </trkpt>
      <trkpt lat="45.97852" lon="6.54438">
        <ele>1407</ele>
        <time>2018-01-15T14:46:32Z</time>
      </trkpt>
      <trkpt lat="45.97846" lon="6.54428">
        <ele>1407</ele>
        <time>2018-01-15T14:46:34Z</time>
      </trkpt>
      <trkpt lat="45.97844" lon="6.54424">
        <ele>1407</ele>
        <time>2018-01-15T14:46:35Z</time>
      </trkpt>
      <trkpt lat="45.97836" lon="6.54404">
        <ele>1398</ele>
        <time>2018-01-15T14:46:40Z</time>
      </trkpt>
      <trkpt lat="45.97837" lon="6.54389">
        <ele>1394</ele>
        <time>2018-01-15T14:46:43Z</time>
      </trkpt>
      <trkpt lat="45.97837" lon="6.54368">
        <ele>1390</ele>
        <time>2018-01-15T14:46:50Z</time>
      </trkpt>
      <trkpt lat="45.97836" lon="6.54366">
        <ele>1390</ele>
        <time>2018-01-15T14:46:51Z</time>
      </trkpt>
      <trkpt lat="45.97835" lon="6.54365">
        <ele>1390</ele>
        <time>2018-01-15T14:46:52Z</time>
      </trkpt>
      <trkpt lat="45.9783" lon="6.5436">
        <ele>1403</ele>
        <time>2018-01-15T14:46:55Z</time>
      </trkpt>
      <trkpt lat="45.97821" lon="6.54356">
        <ele>1403</ele>
        <time>2018-01-15T14:47:07Z</time>
      </trkpt>
      <trkpt lat="45.97829" lon="6.54351">
        <ele>1401</ele>
        <time>2018-01-15T14:47:15Z</time>
      </trkpt>
      <trkpt lat="45.97829" lon="6.54347">
        <ele>1399</ele>
        <time>2018-01-15T14:47:24Z</time>
      </trkpt>
      <trkpt lat="45.97827" lon="6.54347">
        <ele>1399</ele>
        <time>2018-01-15T14:47:30Z</time>
      </trkpt>
      <trkpt lat="45.97825" lon="6.54346">
        <ele>1399</ele>
        <time>2018-01-15T14:47:31Z</time>
      </trkpt>
      <trkpt lat="45.97824" lon="6.54343">
        <ele>1399</ele>
        <time>2018-01-15T14:47:32Z</time>
      </trkpt>
      <trkpt lat="45.9782" lon="6.54334">
        <ele>1399</ele>
        <time>2018-01-15T14:47:34Z</time>
      </trkpt>
      <trkpt lat="45.97818" lon="6.54325">
        <ele>1395</ele>
        <time>2018-01-15T14:47:36Z</time>
      </trkpt>
      <trkpt lat="45.97821" lon="6.5432">
        <ele>1395</ele>
        <time>2018-01-15T14:47:37Z</time>
      </trkpt>
      <trkpt lat="45.97818" lon="6.54317">
        <ele>1396</ele>
        <time>2018-01-15T14:47:38Z</time>
      </trkpt>
      <trkpt lat="45.97817" lon="6.54315">
        <ele>1396</ele>
        <time>2018-01-15T14:47:39Z</time>
      </trkpt>
      <trkpt lat="45.97817" lon="6.54313">
        <ele>1396</ele>
        <time>2018-01-15T14:47:41Z</time>
      </trkpt>
      <trkpt lat="45.97818" lon="6.5431">
        <ele>1396</ele>
        <time>2018-01-15T14:47:42Z</time>
      </trkpt>
      <trkpt lat="45.97819" lon="6.54308">
        <ele>1396</ele>
        <time>2018-01-15T14:47:43Z</time>
      </trkpt>
      <trkpt lat="45.97819" lon="6.54298">
        <ele>1396</ele>
        <time>2018-01-15T14:47:48Z</time>
      </trkpt>
      <trkpt lat="45.97818" lon="6.54279">
        <ele>1394</ele>
        <time>2018-01-15T14:47:52Z</time>
      </trkpt>
      <trkpt lat="45.9782" lon="6.54272">
        <ele>1393</ele>
        <time>2018-01-15T14:47:53Z</time>
      </trkpt>
      <trkpt lat="45.97821" lon="6.54263">
        <ele>1391</ele>
        <time>2018-01-15T14:47:54Z</time>
      </trkpt>
      <trkpt lat="45.97822" lon="6.54254">
        <ele>1389</ele>
        <time>2018-01-15T14:47:55Z</time>
      </trkpt>
      <trkpt lat="45.97825" lon="6.54246">
        <ele>1386</ele>
        <time>2018-01-15T14:47:56Z</time>
      </trkpt>
      <trkpt lat="45.97826" lon="6.54238">
        <ele>1387</ele>
        <time>2018-01-15T14:47:57Z</time>
      </trkpt>
      <trkpt lat="45.97827" lon="6.54231">
        <ele>1388</ele>
        <time>2018-01-15T14:47:58Z</time>
      </trkpt>
      <trkpt lat="45.97828" lon="6.54225">
        <ele>1388</ele>
        <time>2018-01-15T14:47:59Z</time>
      </trkpt>
      <trkpt lat="45.97828" lon="6.54219">
        <ele>1388</ele>
        <time>2018-01-15T14:48:00Z</time>
      </trkpt>
      <trkpt lat="45.9783" lon="6.54193">
        <ele>1387</ele>
        <time>2018-01-15T14:48:03Z</time>
      </trkpt>
      <trkpt lat="45.9783" lon="6.54162">
        <ele>1379</ele>
        <time>2018-01-15T14:48:06Z</time>
      </trkpt>
      <trkpt lat="45.9783" lon="6.54138">
        <ele>1384</ele>
        <time>2018-01-15T14:48:09Z</time>
      </trkpt>
      <trkpt lat="45.97828" lon="6.54133">
        <ele>1384</ele>
        <time>2018-01-15T14:48:10Z</time>
      </trkpt>
      <trkpt lat="45.97826" lon="6.54129">
        <ele>1385</ele>
        <time>2018-01-15T14:48:11Z</time>
      </trkpt>
      <trkpt lat="45.97822" lon="6.54122">
        <ele>1385</ele>
        <time>2018-01-15T14:48:13Z</time>
      </trkpt>
      <trkpt lat="45.97821" lon="6.54121">
        <ele>1385</ele>
        <time>2018-01-15T14:48:14Z</time>
      </trkpt>
      <trkpt lat="45.97818" lon="6.54119">
        <ele>1385</ele>
        <time>2018-01-15T14:48:28Z</time>
      </trkpt>
      <trkpt lat="45.97816" lon="6.54114">
        <ele>1385</ele>
        <time>2018-01-15T14:48:35Z</time>
      </trkpt>
      <trkpt lat="45.97814" lon="6.54106">
        <ele>1385</ele>
        <time>2018-01-15T14:48:44Z</time>
      </trkpt>
      <trkpt lat="45.97814" lon="6.54104">
        <ele>1385</ele>
        <time>2018-01-15T14:48:53Z</time>
      </trkpt>
      <trkpt lat="45.97809" lon="6.54095">
        <ele>1385</ele>
        <time>2018-01-15T14:49:13Z</time>
      </trkpt>
      <trkpt lat="45.9782" lon="6.5406">
        <ele>1386</ele>
        <time>2018-01-15T14:49:51Z</time>
      </trkpt>
      <trkpt lat="45.97834" lon="6.54058">
        <ele>1382</ele>
        <time>2018-01-15T14:50:05Z</time>
      </trkpt>
      <trkpt lat="45.97847" lon="6.54056">
        <ele>1382</ele>
        <time>2018-01-15T14:50:18Z</time>
      </trkpt>
      <trkpt lat="45.97876" lon="6.54061">
        <ele>1381</ele>
        <time>2018-01-15T14:50:44Z</time>
      </trkpt>
      <trkpt lat="45.97896" lon="6.54057">
        <ele>1380</ele>
        <time>2018-01-15T14:51:05Z</time>
      </trkpt>
      <trkpt lat="45.97899" lon="6.54056">
        <ele>1380</ele>
        <time>2018-01-15T14:51:08Z</time>
      </trkpt>
      <trkpt lat="45.979" lon="6.54056">
        <ele>1380</ele>
        <time>2018-01-15T14:51:09Z</time>
      </trkpt>
      <trkpt lat="45.97901" lon="6.54056">
        <ele>1380</ele>
        <time>2018-01-15T14:51:10Z</time>
      </trkpt>
      <trkpt lat="45.97902" lon="6.54055">
        <ele>1380</ele>
        <time>2018-01-15T14:51:11Z</time>
      </trkpt>
      <trkpt lat="45.97903" lon="6.54055">
        <ele>1380</ele>
        <time>2018-01-15T14:51:12Z</time>
      </trkpt>
      <trkpt lat="45.97904" lon="6.54055">
        <ele>1380</ele>
        <time>2018-01-15T14:51:13Z</time>
      </trkpt>
      <trkpt lat="45.97905" lon="6.54055">
        <ele>1380</ele>
        <time>2018-01-15T14:51:14Z</time>
      </trkpt>
      <trkpt lat="45.97906" lon="6.54055">
        <ele>1380</ele>
        <time>2018-01-15T14:51:15Z</time>
      </trkpt>
      <trkpt lat="45.97907" lon="6.54054">
        <ele>1380</ele>
        <time>2018-01-15T14:51:16Z</time>
      </trkpt>
      <trkpt lat="45.97908" lon="6.54054">
        <ele>1380</ele>
        <time>2018-01-15T14:51:17Z</time>
      </trkpt>
      <trkpt lat="45.97909" lon="6.54054">
        <ele>1380</ele>
        <time>2018-01-15T14:51:18Z</time>
      </trkpt>
      <trkpt lat="45.97911" lon="6.54053">
        <ele>1380</ele>
        <time>2018-01-15T14:51:19Z</time>
      </trkpt>
      <trkpt lat="45.97912" lon="6.54053">
        <ele>1380</ele>
        <time>2018-01-15T14:51:20Z</time>
      </trkpt>
      <trkpt lat="45.97912" lon="6.54053">
        <ele>1380</ele>
        <time>2018-01-15T14:51:21Z</time>
      </trkpt>
      <trkpt lat="45.97932" lon="6.54032">
        <ele>1382</ele>
        <time>2018-01-15T14:51:45Z</time>
      </trkpt>
      <trkpt lat="45.97937" lon="6.5403">
        <ele>1383</ele>
        <time>2018-01-15T14:51:46Z</time>
      </trkpt>
      <trkpt lat="45.97942" lon="6.54028">
        <ele>1383</ele>
        <time>2018-01-15T14:51:47Z</time>
      </trkpt>
      <trkpt lat="45.97948" lon="6.54028">
        <ele>1383</ele>
        <time>2018-01-15T14:51:48Z</time>
      </trkpt>
      <trkpt lat="45.97953" lon="6.5403">
        <ele>1383</ele>
        <time>2018-01-15T14:51:49Z</time>
      </trkpt>
      <trkpt lat="45.97957" lon="6.54035">
        <ele>1382</ele>
        <time>2018-01-15T14:51:50Z</time>
      </trkpt>
      <trkpt lat="45.9796" lon="6.54042">
        <ele>1382</ele>
        <time>2018-01-15T14:51:51Z</time>
      </trkpt>
      <trkpt lat="45.97963" lon="6.54045">
        <ele>1381</ele>
        <time>2018-01-15T14:51:52Z</time>
      </trkpt>
      <trkpt lat="45.97965" lon="6.54049">
        <ele>1381</ele>
        <time>2018-01-15T14:52:01Z</time>
      </trkpt>
      <trkpt lat="45.9797" lon="6.54048">
        <ele>1381</ele>
        <time>2018-01-15T14:52:23Z</time>
      </trkpt>
      <trkpt lat="45.97971" lon="6.54056">
        <ele>1379</ele>
        <time>2018-01-15T14:52:31Z</time>
      </trkpt>
      <trkpt lat="45.97971" lon="6.54057">
        <ele>1379</ele>
        <time>2018-01-15T14:52:32Z</time>
      </trkpt>
      <trkpt lat="45.97975" lon="6.54068">
        <ele>1377</ele>
        <time>2018-01-15T14:52:45Z</time>
      </trkpt>
      <trkpt lat="45.97975" lon="6.5407">
        <ele>1377</ele>
        <time>2018-01-15T14:52:46Z</time>
      </trkpt>
      <trkpt lat="45.9798" lon="6.54082">
        <ele>1375</ele>
        <time>2018-01-15T14:53:00Z</time>
      </trkpt>
      <trkpt lat="45.97978" lon="6.541">
        <ele>1364</ele>
        <time>2018-01-15T14:53:15Z</time>
      </trkpt>
      <trkpt lat="45.97979" lon="6.54102">
        <ele>1364</ele>
        <time>2018-01-15T14:53:18Z</time>
      </trkpt>
      <trkpt lat="45.97978" lon="6.54101">
        <ele>1364</ele>
        <time>2018-01-15T14:53:33Z</time>
      </trkpt>
      <trkpt lat="45.97978" lon="6.54101">
        <ele>1364</ele>
        <time>2018-01-15T14:53:38Z</time>
      </trkpt>
      <trkpt lat="45.97981" lon="6.54126">
        <ele>1361</ele>
        <time>2018-01-15T14:53:46Z</time>
      </trkpt>
      <trkpt lat="45.97986" lon="6.5413">
        <ele>1360</ele>
        <time>2018-01-15T14:53:47Z</time>
      </trkpt>
      <trkpt lat="45.97991" lon="6.54132">
        <ele>1359</ele>
        <time>2018-01-15T14:53:48Z</time>
      </trkpt>
      <trkpt lat="45.97996" lon="6.54133">
        <ele>1359</ele>
        <time>2018-01-15T14:53:49Z</time>
      </trkpt>
      <trkpt lat="45.98" lon="6.54133">
        <ele>1357</ele>
        <time>2018-01-15T14:53:50Z</time>
      </trkpt>
      <trkpt lat="45.98004" lon="6.54137">
        <ele>1356</ele>
        <time>2018-01-15T14:53:51Z</time>
      </trkpt>
      <trkpt lat="45.98006" lon="6.54145">
        <ele>1354</ele>
        <time>2018-01-15T14:53:52Z</time>
      </trkpt>
      <trkpt lat="45.98008" lon="6.54157">
        <ele>1352</ele>
        <time>2018-01-15T14:53:53Z</time>
      </trkpt>
      <trkpt lat="45.98011" lon="6.54168">
        <ele>1344</ele>
        <time>2018-01-15T14:53:54Z</time>
      </trkpt>
      <trkpt lat="45.98018" lon="6.54176">
        <ele>1343</ele>
        <time>2018-01-15T14:53:55Z</time>
      </trkpt>
      <trkpt lat="45.98027" lon="6.5418">
        <ele>1342</ele>
        <time>2018-01-15T14:53:56Z</time>
      </trkpt>
      <trkpt lat="45.98036" lon="6.54182">
        <ele>1341</ele>
        <time>2018-01-15T14:53:57Z</time>
      </trkpt>
      <trkpt lat="45.98046" lon="6.54184">
        <ele>1341</ele>
        <time>2018-01-15T14:53:58Z</time>
      </trkpt>
      <trkpt lat="45.98055" lon="6.54186">
        <ele>1341</ele>
        <time>2018-01-15T14:53:59Z</time>
      </trkpt>
      <trkpt lat="45.98063" lon="6.54186">
        <ele>1341</ele>
        <time>2018-01-15T14:54:00Z</time>
      </trkpt>
      <trkpt lat="45.98077" lon="6.54188">
        <ele>1341</ele>
        <time>2018-01-15T14:54:02Z</time>
      </trkpt>
      <trkpt lat="45.98086" lon="6.5419">
        <ele>1342</ele>
        <time>2018-01-15T14:54:04Z</time>
      </trkpt>
      <trkpt lat="45.98129" lon="6.54206">
        <ele>1341</ele>
        <time>2018-01-15T14:54:16Z</time>
      </trkpt>
      <trkpt lat="45.98139" lon="6.5421">
        <ele>1341</ele>
        <time>2018-01-15T14:54:20Z</time>
      </trkpt>
      <trkpt lat="45.98185" lon="6.54229">
        <ele>1341</ele>
        <time>2018-01-15T14:54:31Z</time>
      </trkpt>
      <trkpt lat="45.98195" lon="6.54232">
        <ele>1341</ele>
        <time>2018-01-15T14:54:33Z</time>
      </trkpt>
      <trkpt lat="45.982" lon="6.54234">
        <ele>1341</ele>
        <time>2018-01-15T14:54:34Z</time>
      </trkpt>
      <trkpt lat="45.98217" lon="6.5424">
        <ele>1340</ele>
        <time>2018-01-15T14:54:38Z</time>
      </trkpt>
      <trkpt lat="45.98222" lon="6.54242">
        <ele>1340</ele>
        <time>2018-01-15T14:54:39Z</time>
      </trkpt>
      <trkpt lat="45.98226" lon="6.54244">
        <ele>1339</ele>
        <time>2018-01-15T14:54:40Z</time>
      </trkpt>
      <trkpt lat="45.98231" lon="6.54246">
        <ele>1339</ele>
        <time>2018-01-15T14:54:41Z</time>
      </trkpt>
      <trkpt lat="45.98235" lon="6.54247">
        <ele>1338</ele>
        <time>2018-01-15T14:54:42Z</time>
      </trkpt>
      <trkpt lat="45.98239" lon="6.54249">
        <ele>1338</ele>
        <time>2018-01-15T14:54:43Z</time>
      </trkpt>
      <trkpt lat="45.98253" lon="6.54258">
        <ele>1332</ele>
        <time>2018-01-15T14:54:47Z</time>
      </trkpt>
      <trkpt lat="45.98279" lon="6.54269">
        <ele>1329</ele>
        <time>2018-01-15T14:54:53Z</time>
      </trkpt>
      <trkpt lat="45.98298" lon="6.54276">
        <ele>1328</ele>
        <time>2018-01-15T14:54:57Z</time>
      </trkpt>
      <trkpt lat="45.98303" lon="6.54277">
        <ele>1328</ele>
        <time>2018-01-15T14:54:58Z</time>
      </trkpt>
      <trkpt lat="45.98344" lon="6.54285">
        <ele>1325</ele>
        <time>2018-01-15T14:55:07Z</time>
      </trkpt>
      <trkpt lat="45.98349" lon="6.54285">
        <ele>1325</ele>
        <time>2018-01-15T14:55:08Z</time>
      </trkpt>
      <trkpt lat="45.98371" lon="6.54283">
        <ele>1324</ele>
        <time>2018-01-15T14:55:12Z</time>
      </trkpt>
      <trkpt lat="45.98408" lon="6.54285">
        <ele>1324</ele>
        <time>2018-01-15T14:55:18Z</time>
      </trkpt>
      <trkpt lat="45.98435" lon="6.54284">
        <ele>1325</ele>
        <time>2018-01-15T14:55:22Z</time>
      </trkpt>
      <trkpt lat="45.98442" lon="6.54288">
        <ele>1325</ele>
        <time>2018-01-15T14:55:23Z</time>
      </trkpt>
      <trkpt lat="45.98449" lon="6.54293">
        <ele>1324</ele>
        <time>2018-01-15T14:55:24Z</time>
      </trkpt>
      <trkpt lat="45.98464" lon="6.54306">
        <ele>1323</ele>
        <time>2018-01-15T14:55:26Z</time>
      </trkpt>
      <trkpt lat="45.98471" lon="6.54314">
        <ele>1322</ele>
        <time>2018-01-15T14:55:27Z</time>
      </trkpt>
      <trkpt lat="45.98476" lon="6.54322">
        <ele>1322</ele>
        <time>2018-01-15T14:55:28Z</time>
      </trkpt>
      <trkpt lat="45.9848" lon="6.54328">
        <ele>1321</ele>
        <time>2018-01-15T14:55:29Z</time>
      </trkpt>
      <trkpt lat="45.98484" lon="6.54334">
        <ele>1315</ele>
        <time>2018-01-15T14:55:30Z</time>
      </trkpt>
      <trkpt lat="45.98495" lon="6.54345">
        <ele>1315</ele>
        <time>2018-01-15T14:55:34Z</time>
      </trkpt>
      <trkpt lat="45.98497" lon="6.54345">
        <ele>1315</ele>
        <time>2018-01-15T14:55:35Z</time>
      </trkpt>
      <trkpt lat="45.98499" lon="6.54346">
        <ele>1315</ele>
        <time>2018-01-15T14:55:36Z</time>
      </trkpt>
      <trkpt lat="45.985" lon="6.54347">
        <ele>1317</ele>
        <time>2018-01-15T14:55:37Z</time>
      </trkpt>
      <trkpt lat="45.98502" lon="6.54347">
        <ele>1317</ele>
        <time>2018-01-15T14:55:38Z</time>
      </trkpt>
      <trkpt lat="45.98504" lon="6.54347">
        <ele>1317</ele>
        <time>2018-01-15T14:55:39Z</time>
      </trkpt>
      <trkpt lat="45.98506" lon="6.54347">
        <ele>1317</ele>
        <time>2018-01-15T14:55:40Z</time>
      </trkpt>
      <trkpt lat="45.98508" lon="6.54348">
        <ele>1317</ele>
        <time>2018-01-15T14:55:41Z</time>
      </trkpt>
      <trkpt lat="45.98526" lon="6.5435">
        <ele>1318</ele>
        <time>2018-01-15T14:55:48Z</time>
      </trkpt>
      <trkpt lat="45.98534" lon="6.54351">
        <ele>1318</ele>
        <time>2018-01-15T14:55:52Z</time>
      </trkpt>
      <trkpt lat="45.98549" lon="6.54358">
        <ele>1319</ele>
        <time>2018-01-15T14:55:57Z</time>
      </trkpt>
      <trkpt lat="45.98588" lon="6.54371">
        <ele>1320</ele>
        <time>2018-01-15T14:56:13Z</time>
      </trkpt>
      <trkpt lat="45.98609" lon="6.54381">
        <ele>1319</ele>
        <time>2018-01-15T14:56:18Z</time>
      </trkpt>
      <trkpt lat="45.9863" lon="6.5438">
        <ele>1319</ele>
        <time>2018-01-15T14:56:23Z</time>
      </trkpt>
      <trkpt lat="45.9864" lon="6.54375">
        <ele>1320</ele>
        <time>2018-01-15T14:56:24Z</time>
      </trkpt>
      <trkpt lat="45.98648" lon="6.54374">
        <ele>1320</ele>
        <time>2018-01-15T14:56:25Z</time>
      </trkpt>
      <trkpt lat="45.98665" lon="6.54372">
        <ele>1320</ele>
        <time>2018-01-15T14:56:28Z</time>
      </trkpt>
      <trkpt lat="45.9867" lon="6.54375">
        <ele>1318</ele>
        <time>2018-01-15T14:56:29Z</time>
      </trkpt>
      <trkpt lat="45.98676" lon="6.54378">
        <ele>1318</ele>
        <time>2018-01-15T14:56:30Z</time>
      </trkpt>
      <trkpt lat="45.98681" lon="6.5438">
        <ele>1317</ele>
        <time>2018-01-15T14:56:31Z</time>
      </trkpt>
      <trkpt lat="45.98727" lon="6.54393">
        <ele>1314</ele>
        <time>2018-01-15T14:56:38Z</time>
      </trkpt>
      <trkpt lat="45.98741" lon="6.54399">
        <ele>1311</ele>
        <time>2018-01-15T14:56:40Z</time>
      </trkpt>
      <trkpt lat="45.98778" lon="6.54412">
        <ele>1310</ele>
        <time>2018-01-15T14:56:46Z</time>
      </trkpt>
      <trkpt lat="45.98792" lon="6.5442">
        <ele>1302</ele>
        <time>2018-01-15T14:56:49Z</time>
      </trkpt>
      <trkpt lat="45.98796" lon="6.54422">
        <ele>1302</ele>
        <time>2018-01-15T14:56:50Z</time>
      </trkpt>
      <trkpt lat="45.98801" lon="6.54423">
        <ele>1302</ele>
        <time>2018-01-15T14:56:51Z</time>
      </trkpt>
      <trkpt lat="45.98807" lon="6.54424">
        <ele>1302</ele>
        <time>2018-01-15T14:56:52Z</time>
      </trkpt>
      <trkpt lat="45.98812" lon="6.54424">
        <ele>1301</ele>
        <time>2018-01-15T14:56:53Z</time>
      </trkpt>
      <trkpt lat="45.98839" lon="6.54426">
        <ele>1299</ele>
        <time>2018-01-15T14:56:58Z</time>
      </trkpt>
      <trkpt lat="45.98853" lon="6.5443">
        <ele>1298</ele>
        <time>2018-01-15T14:57:01Z</time>
      </trkpt>
      <trkpt lat="45.98857" lon="6.54432">
        <ele>1297</ele>
        <time>2018-01-15T14:57:02Z</time>
      </trkpt>
      <trkpt lat="45.98879" lon="6.54433">
        <ele>1296</ele>
        <time>2018-01-15T14:57:08Z</time>
      </trkpt>
      <trkpt lat="45.98891" lon="6.5443">
        <ele>1295</ele>
        <time>2018-01-15T14:57:11Z</time>
      </trkpt>
      <trkpt lat="45.98901" lon="6.54425">
        <ele>1294</ele>
        <time>2018-01-15T14:57:13Z</time>
      </trkpt>
      <trkpt lat="45.98905" lon="6.54424">
        <ele>1293</ele>
        <time>2018-01-15T14:57:14Z</time>
      </trkpt>
      <trkpt lat="45.98909" lon="6.54421">
        <ele>1293</ele>
        <time>2018-01-15T14:57:15Z</time>
      </trkpt>
      <trkpt lat="45.98927" lon="6.54412">
        <ele>1292</ele>
        <time>2018-01-15T14:57:19Z</time>
      </trkpt>
      <trkpt lat="45.98933" lon="6.54411">
        <ele>1292</ele>
        <time>2018-01-15T14:57:20Z</time>
      </trkpt>
      <trkpt lat="45.98939" lon="6.54409">
        <ele>1292</ele>
        <time>2018-01-15T14:57:21Z</time>
      </trkpt>
      <trkpt lat="45.98946" lon="6.54408">
        <ele>1292</ele>
        <time>2018-01-15T14:57:22Z</time>
      </trkpt>
      <trkpt lat="45.98949" lon="6.54409">
        <ele>1292</ele>
        <time>2018-01-15T14:57:23Z</time>
      </trkpt>
      <trkpt lat="45.98953" lon="6.54408">
        <ele>1291</ele>
        <time>2018-01-15T14:57:24Z</time>
      </trkpt>
      <trkpt lat="45.98952" lon="6.54408">
        <ele>1292</ele>
        <time>2018-01-15T14:57:25Z</time>
      </trkpt>
      <trkpt lat="45.98961" lon="6.54406">
        <ele>1291</ele>
        <time>2018-01-15T14:57:28Z</time>
      </trkpt>
      <trkpt lat="45.98966" lon="6.54403">
        <ele>1290</ele>
        <time>2018-01-15T14:57:29Z</time>
      </trkpt>
      <trkpt lat="45.98978" lon="6.54397">
        <ele>1289</ele>
        <time>2018-01-15T14:57:31Z</time>
      </trkpt>
      <trkpt lat="45.98987" lon="6.54394">
        <ele>1288</ele>
        <time>2018-01-15T14:57:33Z</time>
      </trkpt>
      <trkpt lat="45.98993" lon="6.54392">
        <ele>1288</ele>
        <time>2018-01-15T14:57:34Z</time>
      </trkpt>
      <trkpt lat="45.98996" lon="6.54391">
        <ele>1288</ele>
        <time>2018-01-15T14:57:35Z</time>
      </trkpt>
      <trkpt lat="45.98998" lon="6.54391">
        <ele>1288</ele>
        <time>2018-01-15T14:57:36Z</time>
      </trkpt>
      <trkpt lat="45.99001" lon="6.54389">
        <ele>1273</ele>
        <time>2018-01-15T14:57:38Z</time>
      </trkpt>
      <trkpt lat="45.99003" lon="6.54388">
        <ele>1272</ele>
        <time>2018-01-15T14:57:39Z</time>
      </trkpt>
      <trkpt lat="45.99004" lon="6.54387">
        <ele>1272</ele>
        <time>2018-01-15T14:57:40Z</time>
      </trkpt>
      <trkpt lat="45.99006" lon="6.54387">
        <ele>1272</ele>
        <time>2018-01-15T14:57:41Z</time>
      </trkpt>
      <trkpt lat="45.99008" lon="6.54386">
        <ele>1272</ele>
        <time>2018-01-15T14:57:42Z</time>
      </trkpt>
      <trkpt lat="45.9901" lon="6.54386">
        <ele>1272</ele>
        <time>2018-01-15T14:57:43Z</time>
      </trkpt>
      <trkpt lat="45.99014" lon="6.54387">
        <ele>1271</ele>
        <time>2018-01-15T14:57:44Z</time>
      </trkpt>
      <trkpt lat="45.99029" lon="6.54382">
        <ele>1269</ele>
        <time>2018-01-15T14:57:49Z</time>
      </trkpt>
      <trkpt lat="45.99039" lon="6.54379">
        <ele>1267</ele>
        <time>2018-01-15T14:57:52Z</time>
      </trkpt>
      <trkpt lat="45.99048" lon="6.54373">
        <ele>1266</ele>
        <time>2018-01-15T14:57:55Z</time>
      </trkpt>
      <trkpt lat="45.9906" lon="6.54365">
        <ele>1263</ele>
        <time>2018-01-15T14:57:59Z</time>
      </trkpt>
      <trkpt lat="45.99071" lon="6.54351">
        <ele>1258</ele>
        <time>2018-01-15T14:58:03Z</time>
      </trkpt>
      <trkpt lat="45.99077" lon="6.54338">
        <ele>1252</ele>
        <time>2018-01-15T14:58:07Z</time>
      </trkpt>
      <trkpt lat="45.99084" lon="6.54326">
        <ele>1244</ele>
        <time>2018-01-15T14:58:10Z</time>
      </trkpt>
      <trkpt lat="45.99093" lon="6.54314">
        <ele>1243</ele>
        <time>2018-01-15T14:58:13Z</time>
      </trkpt>
      <trkpt lat="45.99098" lon="6.54306">
        <ele>1242</ele>
        <time>2018-01-15T14:58:15Z</time>
      </trkpt>
      <trkpt lat="45.99109" lon="6.54296">
        <ele>1241</ele>
        <time>2018-01-15T14:58:18Z</time>
      </trkpt>
      <trkpt lat="45.99118" lon="6.54285">
        <ele>1239</ele>
        <time>2018-01-15T14:58:20Z</time>
      </trkpt>
      <trkpt lat="45.99128" lon="6.54274">
        <ele>1236</ele>
        <time>2018-01-15T14:58:22Z</time>
      </trkpt>
      <trkpt lat="45.99131" lon="6.54268">
        <ele>1235</ele>
        <time>2018-01-15T14:58:23Z</time>
      </trkpt>
      <trkpt lat="45.99136" lon="6.54257">
        <ele>1232</ele>
        <time>2018-01-15T14:58:25Z</time>
      </trkpt>
      <trkpt lat="45.99144" lon="6.54244">
        <ele>1230</ele>
        <time>2018-01-15T14:58:28Z</time>
      </trkpt>
      <trkpt lat="45.99158" lon="6.54222">
        <ele>1230</ele>
        <time>2018-01-15T14:58:32Z</time>
      </trkpt>
      <trkpt lat="45.9916" lon="6.54213">
        <ele>1231</ele>
        <time>2018-01-15T14:58:33Z</time>
      </trkpt>
      <trkpt lat="45.99161" lon="6.54202">
        <ele>1231</ele>
        <time>2018-01-15T14:58:34Z</time>
      </trkpt>
      <trkpt lat="45.99169" lon="6.54183">
        <ele>1204</ele>
        <time>2018-01-15T14:58:37Z</time>
      </trkpt>
      <trkpt lat="45.99182" lon="6.54159">
        <ele>1202</ele>
        <time>2018-01-15T14:58:42Z</time>
      </trkpt>
      <trkpt lat="45.99187" lon="6.5415">
        <ele>1199</ele>
        <time>2018-01-15T14:58:46Z</time>
      </trkpt>
      <trkpt lat="45.99186" lon="6.54142">
        <ele>1199</ele>
        <time>2018-01-15T14:58:49Z</time>
      </trkpt>
      <trkpt lat="45.99186" lon="6.54141">
        <ele>1199</ele>
        <time>2018-01-15T14:58:50Z</time>
      </trkpt>
      <trkpt lat="45.99183" lon="6.54136">
        <ele>1199</ele>
        <time>2018-01-15T14:58:56Z</time>
      </trkpt>
      <trkpt lat="45.9918" lon="6.54135">
        <ele>1200</ele>
        <time>2018-01-15T14:59:00Z</time>
      </trkpt>
      <trkpt lat="45.99179" lon="6.54135">
        <ele>1200</ele>
        <time>2018-01-15T14:59:01Z</time>
      </trkpt>
      <trkpt lat="45.99176" lon="6.54134">
        <ele>1200</ele>
        <time>2018-01-15T14:59:05Z</time>
      </trkpt>
      <trkpt lat="45.99176" lon="6.54134">
        <ele>1200</ele>
        <time>2018-01-15T14:59:07Z</time>
      </trkpt>
      <trkpt lat="45.99175" lon="6.54133">
        <ele>1200</ele>
        <time>2018-01-15T14:59:08Z</time>
      </trkpt>
      <trkpt lat="45.99175" lon="6.54133">
        <ele>1200</ele>
        <time>2018-01-15T14:59:11Z</time>
      </trkpt>
      <trkpt lat="45.99175" lon="6.54134">
        <ele>1200</ele>
        <time>2018-01-15T14:59:12Z</time>
      </trkpt>
      <trkpt lat="45.99177" lon="6.54134">
        <ele>1200</ele>
        <time>2018-01-15T14:59:13Z</time>
      </trkpt>
      <trkpt lat="45.99178" lon="6.54133">
        <ele>1200</ele>
        <time>2018-01-15T14:59:14Z</time>
      </trkpt>
      <trkpt lat="45.99179" lon="6.54133">
        <ele>1200</ele>
        <time>2018-01-15T14:59:15Z</time>
      </trkpt>
      <trkpt lat="45.99184" lon="6.5413">
        <ele>1199</ele>
        <time>2018-01-15T14:59:21Z</time>
      </trkpt>
      <trkpt lat="45.99186" lon="6.54129">
        <ele>1199</ele>
        <time>2018-01-15T14:59:22Z</time>
      </trkpt>
      <trkpt lat="45.99186" lon="6.54129">
        <ele>1199</ele>
        <time>2018-01-15T14:59:23Z</time>
      </trkpt>
      <trkpt lat="45.99187" lon="6.54129">
        <ele>1199</ele>
        <time>2018-01-15T14:59:24Z</time>
      </trkpt>
      <trkpt lat="45.99188" lon="6.54128">
        <ele>1198</ele>
        <time>2018-01-15T14:59:25Z</time>
      </trkpt>
      <trkpt lat="45.99189" lon="6.54128">
        <ele>1198</ele>
        <time>2018-01-15T14:59:26Z</time>
      </trkpt>
      <trkpt lat="45.99202" lon="6.54116">
        <ele>1196</ele>
        <time>2018-01-15T14:59:37Z</time>
      </trkpt>
      <trkpt lat="45.99203" lon="6.54115">
        <ele>1196</ele>
        <time>2018-01-15T14:59:38Z</time>
      </trkpt>
      <trkpt lat="45.99206" lon="6.54109">
        <ele>1195</ele>
        <time>2018-01-15T14:59:44Z</time>
      </trkpt>
      <trkpt lat="45.99206" lon="6.54106">
        <ele>1195</ele>
        <time>2018-01-15T14:59:46Z</time>
      </trkpt>
      <trkpt lat="45.99205" lon="6.54103">
        <ele>1196</ele>
        <time>2018-01-15T14:59:48Z</time>
      </trkpt>
      <trkpt lat="45.99208" lon="6.54101">
        <ele>1195</ele>
        <time>2018-01-15T14:59:50Z</time>
      </trkpt>
      <trkpt lat="45.99214" lon="6.54099">
        <ele>1193</ele>
        <time>2018-01-15T14:59:57Z</time>
      </trkpt>
      <trkpt lat="45.99216" lon="6.54097">
        <ele>1193</ele>
        <time>2018-01-15T14:59:58Z</time>
      </trkpt>
      <trkpt lat="45.99219" lon="6.54095">
        <ele>1192</ele>
        <time>2018-01-15T14:59:59Z</time>
      </trkpt>
      <trkpt lat="45.99221" lon="6.54093">
        <ele>1191</ele>
        <time>2018-01-15T15:00:00Z</time>
      </trkpt>
      <trkpt lat="45.99224" lon="6.54091">
        <ele>1190</ele>
        <time>2018-01-15T15:00:01Z</time>
      </trkpt>
      <trkpt lat="45.99228" lon="6.54088">
        <ele>1188</ele>
        <time>2018-01-15T15:00:02Z</time>
      </trkpt>
      <trkpt lat="45.99231" lon="6.54086">
        <ele>1187</ele>
        <time>2018-01-15T15:00:03Z</time>
      </trkpt>
      <trkpt lat="45.99241" lon="6.54084">
        <ele>1183</ele>
        <time>2018-01-15T15:00:17Z</time>
      </trkpt>
      <trkpt lat="45.99238" lon="6.54084">
        <ele>1184</ele>
        <time>2018-01-15T15:00:22Z</time>
      </trkpt>
      <trkpt lat="45.99239" lon="6.54081">
        <ele>1185</ele>
        <time>2018-01-15T15:00:25Z</time>
      </trkpt>
      <trkpt lat="45.9924" lon="6.5408">
        <ele>1185</ele>
        <time>2018-01-15T15:00:26Z</time>
      </trkpt>
      <trkpt lat="45.99241" lon="6.5408">
        <ele>1184</ele>
        <time>2018-01-15T15:00:27Z</time>
      </trkpt>
      <trkpt lat="45.99243" lon="6.54078">
        <ele>1184</ele>
        <time>2018-01-15T15:00:30Z</time>
      </trkpt>
      <trkpt lat="45.99262" lon="6.54064">
        <ele>1172</ele>
        <time>2018-01-15T15:00:44Z</time>
      </trkpt>
      <trkpt lat="45.99268" lon="6.54057">
        <ele>1171</ele>
        <time>2018-01-15T15:00:48Z</time>
      </trkpt>
      <trkpt lat="45.99288" lon="6.54035">
        <ele>1169</ele>
        <time>2018-01-15T15:01:02Z</time>
      </trkpt>
      <trkpt lat="45.99295" lon="6.54028">
        <ele>1168</ele>
        <time>2018-01-15T15:01:09Z</time>
      </trkpt>
      <trkpt lat="45.99305" lon="6.54019">
        <ele>1166</ele>
        <time>2018-01-15T15:01:17Z</time>
      </trkpt>
      <trkpt lat="45.99318" lon="6.54011">
        <ele>1163</ele>
        <time>2018-01-15T15:01:25Z</time>
      </trkpt>
      <trkpt lat="45.99327" lon="6.54">
        <ele>1159</ele>
        <time>2018-01-15T15:01:35Z</time>
      </trkpt>
      <trkpt lat="45.99335" lon="6.53988">
        <ele>1154</ele>
        <time>2018-01-15T15:01:47Z</time>
      </trkpt>
      <trkpt lat="45.99342" lon="6.53973">
        <ele>1152</ele>
        <time>2018-01-15T15:01:57Z</time>
      </trkpt>
      <trkpt lat="45.99343" lon="6.53972">
        <ele>1152</ele>
        <time>2018-01-15T15:01:58Z</time>
      </trkpt>
      <trkpt lat="45.99344" lon="6.53968">
        <ele>1152</ele>
        <time>2018-01-15T15:02:02Z</time>
      </trkpt>
      <trkpt lat="45.99345" lon="6.53967">
        <ele>1152</ele>
        <time>2018-01-15T15:02:03Z</time>
      </trkpt>
      <trkpt lat="45.99348" lon="6.53967">
        <ele>1152</ele>
        <time>2018-01-15T15:02:07Z</time>
      </trkpt>
      <trkpt lat="45.99354" lon="6.53966">
        <ele>1151</ele>
        <time>2018-01-15T15:02:24Z</time>
      </trkpt>
      <trkpt lat="45.99355" lon="6.53965">
        <ele>1151</ele>
        <time>2018-01-15T15:02:33Z</time>
      </trkpt>
      <trkpt lat="45.99354" lon="6.53964">
        <ele>1151</ele>
        <time>2018-01-15T15:02:43Z</time>
      </trkpt>
      <trkpt lat="45.99349" lon="6.53964">
        <ele>1152</ele>
        <time>2018-01-15T15:02:58Z</time>
      </trkpt>
      <trkpt lat="45.99351" lon="6.53967">
        <ele>1152</ele>
        <time>2018-01-15T15:02:59Z</time>
      </trkpt>
      <trkpt lat="45.99358" lon="6.53973">
        <ele>1150</ele>
        <time>2018-01-15T15:03:01Z</time>
      </trkpt>
      <trkpt lat="45.99367" lon="6.53975">
        <ele>1149</ele>
        <time>2018-01-15T15:03:03Z</time>
      </trkpt>
      <trkpt lat="45.99373" lon="6.53976">
        <ele>1148</ele>
        <time>2018-01-15T15:03:04Z</time>
      </trkpt>
      <trkpt lat="45.99378" lon="6.53976">
        <ele>1147</ele>
        <time>2018-01-15T15:03:05Z</time>
      </trkpt>
      <trkpt lat="45.99382" lon="6.5398">
        <ele>1146</ele>
        <time>2018-01-15T15:03:06Z</time>
      </trkpt>
      <trkpt lat="45.99392" lon="6.5398">
        <ele>1143</ele>
        <time>2018-01-15T15:03:07Z</time>
      </trkpt>
      <trkpt lat="45.99399" lon="6.53978">
        <ele>1142</ele>
        <time>2018-01-15T15:03:08Z</time>
      </trkpt>
      <trkpt lat="45.99406" lon="6.53978">
        <ele>1141</ele>
        <time>2018-01-15T15:03:09Z</time>
      </trkpt>
      <trkpt lat="45.99412" lon="6.53979">
        <ele>1140</ele>
        <time>2018-01-15T15:03:10Z</time>
      </trkpt>
      <trkpt lat="45.99416" lon="6.53981">
        <ele>1139</ele>
        <time>2018-01-15T15:03:11Z</time>
      </trkpt>
      <trkpt lat="45.9942" lon="6.5398">
        <ele>1129</ele>
        <time>2018-01-15T15:03:12Z</time>
      </trkpt>
      <trkpt lat="45.99425" lon="6.5398">
        <ele>1129</ele>
        <time>2018-01-15T15:03:13Z</time>
      </trkpt>
      <trkpt lat="45.9943" lon="6.5398">
        <ele>1129</ele>
        <time>2018-01-15T15:03:14Z</time>
      </trkpt>
      <trkpt lat="45.99431" lon="6.53984">
        <ele>1129</ele>
        <time>2018-01-15T15:03:15Z</time>
      </trkpt>
      <trkpt lat="45.99436" lon="6.53987">
        <ele>1129</ele>
        <time>2018-01-15T15:03:16Z</time>
      </trkpt>
      <trkpt lat="45.99439" lon="6.53991">
        <ele>1128</ele>
        <time>2018-01-15T15:03:17Z</time>
      </trkpt>
      <trkpt lat="45.99446" lon="6.53997">
        <ele>1128</ele>
        <time>2018-01-15T15:03:19Z</time>
      </trkpt>
      <trkpt lat="45.99449" lon="6.54">
        <ele>1128</ele>
        <time>2018-01-15T15:03:20Z</time>
      </trkpt>
      <trkpt lat="45.99449" lon="6.54002">
        <ele>1122</ele>
        <time>2018-01-15T15:03:21Z</time>
      </trkpt>
      <trkpt lat="45.99449" lon="6.54004">
        <ele>1122</ele>
        <time>2018-01-15T15:03:22Z</time>
      </trkpt>
      <trkpt lat="45.99447" lon="6.54006">
        <ele>1122</ele>
        <time>2018-01-15T15:03:23Z</time>
      </trkpt>
      <trkpt lat="45.99446" lon="6.54009">
        <ele>1122</ele>
        <time>2018-01-15T15:03:24Z</time>
      </trkpt>
      <trkpt lat="45.99444" lon="6.54013">
        <ele>1122</ele>
        <time>2018-01-15T15:03:25Z</time>
      </trkpt>
      <trkpt lat="45.99441" lon="6.54017">
        <ele>1122</ele>
        <time>2018-01-15T15:03:26Z</time>
      </trkpt>
      <trkpt lat="45.99439" lon="6.5402">
        <ele>1122</ele>
        <time>2018-01-15T15:03:27Z</time>
      </trkpt>
      <trkpt lat="45.99439" lon="6.54025">
        <ele>1122</ele>
        <time>2018-01-15T15:03:29Z</time>
      </trkpt>
      <trkpt lat="45.99439" lon="6.54027">
        <ele>1122</ele>
        <time>2018-01-15T15:03:30Z</time>
      </trkpt>
      <trkpt lat="45.99439" lon="6.54028">
        <ele>1122</ele>
        <time>2018-01-15T15:03:31Z</time>
      </trkpt>
      <trkpt lat="45.99438" lon="6.54032">
        <ele>1122</ele>
        <time>2018-01-15T15:03:36Z</time>
      </trkpt>
      <trkpt lat="45.99437" lon="6.54032">
        <ele>1122</ele>
        <time>2018-01-15T15:03:38Z</time>
      </trkpt>
      <trkpt lat="45.99438" lon="6.54036">
        <ele>1122</ele>
        <time>2018-01-15T15:03:46Z</time>
      </trkpt>
      <trkpt lat="45.9944" lon="6.54037">
        <ele>1122</ele>
        <time>2018-01-15T15:03:47Z</time>
      </trkpt>
      <trkpt lat="45.99441" lon="6.54041">
        <ele>1121</ele>
        <time>2018-01-15T15:03:48Z</time>
      </trkpt>
      <trkpt lat="45.99442" lon="6.54043">
        <ele>1121</ele>
        <time>2018-01-15T15:03:49Z</time>
      </trkpt>
      <trkpt lat="45.99443" lon="6.54045">
        <ele>1121</ele>
        <time>2018-01-15T15:03:50Z</time>
      </trkpt>
      <trkpt lat="45.99444" lon="6.54047">
        <ele>1121</ele>
        <time>2018-01-15T15:03:51Z</time>
      </trkpt>
      <trkpt lat="45.99445" lon="6.54049">
        <ele>1121</ele>
        <time>2018-01-15T15:03:52Z</time>
      </trkpt>
      <trkpt lat="45.99447" lon="6.54052">
        <ele>1121</ele>
        <time>2018-01-15T15:03:53Z</time>
      </trkpt>
      <trkpt lat="45.99452" lon="6.54052">
        <ele>1120</ele>
        <time>2018-01-15T15:03:54Z</time>
      </trkpt>
      <trkpt lat="45.99455" lon="6.54053">
        <ele>1120</ele>
        <time>2018-01-15T15:03:55Z</time>
      </trkpt>
      <trkpt lat="45.99469" lon="6.54059">
        <ele>1119</ele>
        <time>2018-01-15T15:04:00Z</time>
      </trkpt>
      <trkpt lat="45.99473" lon="6.54062">
        <ele>1119</ele>
        <time>2018-01-15T15:04:06Z</time>
      </trkpt>
      <trkpt lat="45.99475" lon="6.54063">
        <ele>1118</ele>
        <time>2018-01-15T15:04:08Z</time>
      </trkpt>
      <trkpt lat="45.99477" lon="6.54066">
        <ele>1118</ele>
        <time>2018-01-15T15:04:09Z</time>
      </trkpt>
      <trkpt lat="45.99479" lon="6.54068">
        <ele>1118</ele>
        <time>2018-01-15T15:04:10Z</time>
      </trkpt>
      <trkpt lat="45.99505" lon="6.54085">
        <ele>1115</ele>
        <time>2018-01-15T15:04:23Z</time>
      </trkpt>
      <trkpt lat="45.99517" lon="6.54081">
        <ele>1111</ele>
        <time>2018-01-15T15:04:26Z</time>
      </trkpt>
      <trkpt lat="45.99522" lon="6.54079">
        <ele>1111</ele>
        <time>2018-01-15T15:04:27Z</time>
      </trkpt>
      <trkpt lat="45.99526" lon="6.54077">
        <ele>1111</ele>
        <time>2018-01-15T15:04:28Z</time>
      </trkpt>
      <trkpt lat="45.99532" lon="6.54075">
        <ele>1110</ele>
        <time>2018-01-15T15:04:30Z</time>
      </trkpt>
      <trkpt lat="45.99543" lon="6.54071">
        <ele>1110</ele>
        <time>2018-01-15T15:04:34Z</time>
      </trkpt>
      <trkpt lat="45.99556" lon="6.54071">
        <ele>1109</ele>
        <time>2018-01-15T15:04:37Z</time>
      </trkpt>
      <trkpt lat="45.99562" lon="6.54072">
        <ele>1109</ele>
        <time>2018-01-15T15:04:38Z</time>
      </trkpt>
      <trkpt lat="45.99579" lon="6.54081">
        <ele>1107</ele>
        <time>2018-01-15T15:04:42Z</time>
      </trkpt>
      <trkpt lat="45.99609" lon="6.5411">
        <ele>1109</ele>
        <time>2018-01-15T15:04:50Z</time>
      </trkpt>
      <trkpt lat="45.9962" lon="6.54122">
        <ele>1109</ele>
        <time>2018-01-15T15:04:52Z</time>
      </trkpt>
      <trkpt lat="45.99625" lon="6.54127">
        <ele>1109</ele>
        <time>2018-01-15T15:04:53Z</time>
      </trkpt>
      <trkpt lat="45.99631" lon="6.5413">
        <ele>1109</ele>
        <time>2018-01-15T15:04:54Z</time>
      </trkpt>
      <trkpt lat="45.99645" lon="6.54138">
        <ele>1109</ele>
        <time>2018-01-15T15:04:57Z</time>
      </trkpt>
      <trkpt lat="45.99664" lon="6.54142">
        <ele>1108</ele>
        <time>2018-01-15T15:05:01Z</time>
      </trkpt>
      <trkpt lat="45.99669" lon="6.54142">
        <ele>1100</ele>
        <time>2018-01-15T15:05:02Z</time>
      </trkpt>
      <trkpt lat="45.99674" lon="6.54141">
        <ele>1099</ele>
        <time>2018-01-15T15:05:03Z</time>
      </trkpt>
      <trkpt lat="45.9968" lon="6.54138">
        <ele>1098</ele>
        <time>2018-01-15T15:05:04Z</time>
      </trkpt>
      <trkpt lat="45.99685" lon="6.54136">
        <ele>1098</ele>
        <time>2018-01-15T15:05:05Z</time>
      </trkpt>
      <trkpt lat="45.9969" lon="6.54135">
        <ele>1097</ele>
        <time>2018-01-15T15:05:06Z</time>
      </trkpt>
      <trkpt lat="45.99698" lon="6.54132">
        <ele>1096</ele>
        <time>2018-01-15T15:05:07Z</time>
      </trkpt>
      <trkpt lat="45.99704" lon="6.54129">
        <ele>1095</ele>
        <time>2018-01-15T15:05:08Z</time>
      </trkpt>
      <trkpt lat="45.99725" lon="6.54116">
        <ele>1092</ele>
        <time>2018-01-15T15:05:12Z</time>
      </trkpt>
      <trkpt lat="45.99732" lon="6.54115">
        <ele>1091</ele>
        <time>2018-01-15T15:05:13Z</time>
      </trkpt>
      <trkpt lat="45.99737" lon="6.54115">
        <ele>1091</ele>
        <time>2018-01-15T15:05:14Z</time>
      </trkpt>
      <trkpt lat="45.99742" lon="6.54115">
        <ele>1091</ele>
        <time>2018-01-15T15:05:15Z</time>
      </trkpt>
      <trkpt lat="45.99748" lon="6.54116">
        <ele>1090</ele>
        <time>2018-01-15T15:05:16Z</time>
      </trkpt>
      <trkpt lat="45.99783" lon="6.54119">
        <ele>1084</ele>
        <time>2018-01-15T15:05:22Z</time>
      </trkpt>
      <trkpt lat="45.99799" lon="6.54117">
        <ele>1083</ele>
        <time>2018-01-15T15:05:25Z</time>
      </trkpt>
      <trkpt lat="45.99811" lon="6.54119">
        <ele>1082</ele>
        <time>2018-01-15T15:05:27Z</time>
      </trkpt>
      <trkpt lat="45.99834" lon="6.54124">
        <ele>1075</ele>
        <time>2018-01-15T15:05:33Z</time>
      </trkpt>
      <trkpt lat="45.99837" lon="6.54125">
        <ele>1075</ele>
        <time>2018-01-15T15:05:34Z</time>
      </trkpt>
      <trkpt lat="45.99843" lon="6.54127">
        <ele>1075</ele>
        <time>2018-01-15T15:05:36Z</time>
      </trkpt>
      <trkpt lat="45.99858" lon="6.54131">
        <ele>1075</ele>
        <time>2018-01-15T15:05:45Z</time>
      </trkpt>
      <trkpt lat="45.9986" lon="6.54132">
        <ele>1075</ele>
        <time>2018-01-15T15:05:48Z</time>
      </trkpt>
      <trkpt lat="45.99862" lon="6.54134">
        <ele>1075</ele>
        <time>2018-01-15T15:05:50Z</time>
      </trkpt>
      <trkpt lat="45.99863" lon="6.54136">
        <ele>1075</ele>
        <time>2018-01-15T15:05:52Z</time>
      </trkpt>
      <trkpt lat="45.99871" lon="6.54139">
        <ele>1074</ele>
        <time>2018-01-15T15:06:00Z</time>
      </trkpt>
      <trkpt lat="45.99873" lon="6.54139">
        <ele>1074</ele>
        <time>2018-01-15T15:06:01Z</time>
      </trkpt>
      <trkpt lat="45.99888" lon="6.54143">
        <ele>1073</ele>
        <time>2018-01-15T15:06:08Z</time>
      </trkpt>
      <trkpt lat="45.9991" lon="6.54155">
        <ele>1072</ele>
        <time>2018-01-15T15:06:25Z</time>
      </trkpt>
      <trkpt lat="45.99911" lon="6.54155">
        <ele>1072</ele>
        <time>2018-01-15T15:06:30Z</time>
      </trkpt>
      <trkpt lat="45.99911" lon="6.54155">
        <ele>1072</ele>
        <time>2018-01-15T15:06:32Z</time>
      </trkpt>
      <trkpt lat="45.99912" lon="6.54155">
        <ele>1072</ele>
        <time>2018-01-15T15:06:35Z</time>
      </trkpt>
      <trkpt lat="45.99912" lon="6.54158">
        <ele>1072</ele>
        <time>2018-01-15T15:06:54Z</time>
      </trkpt>
      <trkpt lat="45.99916" lon="6.54158">
        <ele>1072</ele>
        <time>2018-01-15T15:07:00Z</time>
      </trkpt>
      <trkpt lat="45.99917" lon="6.54158">
        <ele>1069</ele>
        <time>2018-01-15T15:07:02Z</time>
      </trkpt>
      <trkpt lat="45.99918" lon="6.54158">
        <ele>1069</ele>
        <time>2018-01-15T15:07:03Z</time>
      </trkpt>
      <trkpt lat="45.99919" lon="6.54158">
        <ele>1069</ele>
        <time>2018-01-15T15:07:04Z</time>
      </trkpt>
      <trkpt lat="45.99939" lon="6.54157">
        <ele>1067</ele>
        <time>2018-01-15T15:07:21Z</time>
      </trkpt>
      <trkpt lat="45.99975" lon="6.54143">
        <ele>1065</ele>
        <time>2018-01-15T15:07:51Z</time>
      </trkpt>
      <trkpt lat="45.99981" lon="6.54138">
        <ele>1065</ele>
        <time>2018-01-15T15:07:57Z</time>
      </trkpt>
      <trkpt lat="46.0002" lon="6.5412">
        <ele>1059</ele>
        <time>2018-01-15T15:08:20Z</time>
      </trkpt>
      <trkpt lat="46.00067" lon="6.54091">
        <ele>1053</ele>
        <time>2018-01-15T15:08:48Z</time>
      </trkpt>
      <trkpt lat="46.00068" lon="6.5409">
        <ele>1053</ele>
        <time>2018-01-15T15:08:49Z</time>
      </trkpt>
      <trkpt lat="46.0007" lon="6.54089">
        <ele>1053</ele>
        <time>2018-01-15T15:08:50Z</time>
      </trkpt>
      <trkpt lat="46.00072" lon="6.54088">
        <ele>1052</ele>
        <time>2018-01-15T15:08:52Z</time>
      </trkpt>
      <trkpt lat="46.00073" lon="6.54088">
        <ele>1052</ele>
        <time>2018-01-15T15:08:53Z</time>
      </trkpt>
      <trkpt lat="46.00087" lon="6.54081">
        <ele>1048</ele>
        <time>2018-01-15T15:09:06Z</time>
      </trkpt>
      <trkpt lat="46.00088" lon="6.54081">
        <ele>1047</ele>
        <time>2018-01-15T15:09:07Z</time>
      </trkpt>
      <trkpt lat="46.00089" lon="6.54081">
        <ele>1047</ele>
        <time>2018-01-15T15:09:08Z</time>
      </trkpt>
      <trkpt lat="46.00091" lon="6.54081">
        <ele>1047</ele>
        <time>2018-01-15T15:09:09Z</time>
      </trkpt>
      <trkpt lat="46.00093" lon="6.54082">
        <ele>1047</ele>
        <time>2018-01-15T15:09:10Z</time>
      </trkpt>
      <trkpt lat="46.00094" lon="6.54082">
        <ele>1047</ele>
        <time>2018-01-15T15:09:11Z</time>
      </trkpt>
      <trkpt lat="46.00096" lon="6.54083">
        <ele>1047</ele>
        <time>2018-01-15T15:09:12Z</time>
      </trkpt>
      <trkpt lat="46.00097" lon="6.54083">
        <ele>1047</ele>
        <time>2018-01-15T15:09:13Z</time>
      </trkpt>
      <trkpt lat="46.00099" lon="6.54084">
        <ele>1049</ele>
        <time>2018-01-15T15:09:14Z</time>
      </trkpt>
      <trkpt lat="46.001" lon="6.54085">
        <ele>1049</ele>
        <time>2018-01-15T15:09:15Z</time>
      </trkpt>
      <trkpt lat="46.00101" lon="6.54085">
        <ele>1049</ele>
        <time>2018-01-15T15:09:16Z</time>
      </trkpt>
      <trkpt lat="46.00102" lon="6.54085">
        <ele>1049</ele>
        <time>2018-01-15T15:09:17Z</time>
      </trkpt>
      <trkpt lat="46.00103" lon="6.54085">
        <ele>1049</ele>
        <time>2018-01-15T15:09:18Z</time>
      </trkpt>
      <trkpt lat="46.00108" lon="6.54086">
        <ele>1049</ele>
        <time>2018-01-15T15:09:22Z</time>
      </trkpt>
      <trkpt lat="46.00109" lon="6.54086">
        <ele>1049</ele>
        <time>2018-01-15T15:09:23Z</time>
      </trkpt>
      <trkpt lat="46.0011" lon="6.54086">
        <ele>1049</ele>
        <time>2018-01-15T15:09:24Z</time>
      </trkpt>
      <trkpt lat="46.00111" lon="6.54087">
        <ele>1049</ele>
        <time>2018-01-15T15:09:25Z</time>
      </trkpt>
      <trkpt lat="46.00113" lon="6.54087">
        <ele>1049</ele>
        <time>2018-01-15T15:09:26Z</time>
      </trkpt>
      <trkpt lat="46.00114" lon="6.54087">
        <ele>1049</ele>
        <time>2018-01-15T15:09:27Z</time>
      </trkpt>
      <trkpt lat="46.00116" lon="6.54087">
        <ele>1049</ele>
        <time>2018-01-15T15:09:28Z</time>
      </trkpt>
      <trkpt lat="46.00118" lon="6.54087">
        <ele>1049</ele>
        <time>2018-01-15T15:09:29Z</time>
      </trkpt>
      <trkpt lat="46.00148" lon="6.54092">
        <ele>1047</ele>
        <time>2018-01-15T15:09:48Z</time>
      </trkpt>
      <trkpt lat="46.00151" lon="6.54092">
        <ele>1046</ele>
        <time>2018-01-15T15:09:49Z</time>
      </trkpt>
      <trkpt lat="46.00152" lon="6.54092">
        <ele>1046</ele>
        <time>2018-01-15T15:09:50Z</time>
      </trkpt>
      <trkpt lat="46.00154" lon="6.54092">
        <ele>1046</ele>
        <time>2018-01-15T15:09:51Z</time>
      </trkpt>
      <trkpt lat="46.00156" lon="6.54092">
        <ele>1046</ele>
        <time>2018-01-15T15:09:52Z</time>
      </trkpt>
      <trkpt lat="46.00158" lon="6.54092">
        <ele>1045</ele>
        <time>2018-01-15T15:09:53Z</time>
      </trkpt>
      <trkpt lat="46.00164" lon="6.54091">
        <ele>1044</ele>
        <time>2018-01-15T15:09:58Z</time>
      </trkpt>
      <trkpt lat="46.00165" lon="6.54092">
        <ele>1044</ele>
        <time>2018-01-15T15:09:59Z</time>
      </trkpt>
      <trkpt lat="46.00166" lon="6.54092">
        <ele>1044</ele>
        <time>2018-01-15T15:10:00Z</time>
      </trkpt>
      <trkpt lat="46.00167" lon="6.54092">
        <ele>1044</ele>
        <time>2018-01-15T15:10:01Z</time>
      </trkpt>
      <trkpt lat="46.00168" lon="6.54093">
        <ele>1042</ele>
        <time>2018-01-15T15:10:02Z</time>
      </trkpt>
      <trkpt lat="46.00175" lon="6.54097">
        <ele>1042</ele>
        <time>2018-01-15T15:10:35Z</time>
      </trkpt>
    </trkseg>
  </trk>
</gpx>